     2              OBSERVATION DATA    GPS                 RINEX VERSION / TYPE
teqc 2002Apr3 20050208 23:02:01UTC                          PGM / RUN BY / DATE
                                                            COMMENT
L2: 1 -> 1; 150 -> 5; 250 -> 9                              COMMENT
L2: 1 -> 1; 150 -> 5; 250 -> 9                              COMMENT
L2: 1 -> 1; 150 -> 5; 250 -> 9                              COMMENT
L2: 1 -> 1; 150 -> 5; 250 -> 9                              COMMENT
L2: 1 -> 1; 150 -> 5; 250 -> 9                              COMMENT
Original Marker Name: NORC                                  COMMENT
Campaign Name: CSUSB June 2004                              COMMENT
4-Character Station Name: NORC                              COMMENT
6-Character Antenna Code: DMRCHT                            COMMENT
Vertical Measurement Point: BCR                             COMMENT
Vertical Offset to Rinex Ref. Point: 0.0348                 COMMENT
Radial Measurement Point: ECF                               COMMENT
Radial Offset to Rinex Ref. Point: 0.1897                   COMMENT
Antenna Height from Field Measurement: 1.0255 m             COMMENT
Additional Antenna Identification Info.:                    COMMENT
Turborogue and Ashtech Choke Ring                           COMMENT
Original XYZ: -2451140.6400 -4696392.0900 3540571.1400      COMMENT
New XYZ position is based on association with SCEC monument COMMENT
E1D0O3O1+0011. Position of that monument is believed to be  COMMENT
valid to within 1 m horizontally; vertical accuracy         COMMENT
should be no worse than 3-times this value.                 COMMENT
                                                            COMMENT
Revised Rinex header created by UCSD GPS archive for        COMMENT
GSAC on 20-Apr-2005 (2005:110) 16:16:09 GMT                 COMMENT
For assistance contact dagnew@ucsd.edu                      COMMENT
or anderson@python.ucsd.edu                                 COMMENT
                                                            COMMENT
NORC                                                        MARKER NAME
___ CSUSB                                                   OBSERVER / AGENCY
1602 ASHTECH Z-X ZB00                                       REC # / TYPE / VERS
1403 DORNE-MARGOL. TYPE T                                   ANT # / TYPE
 -2451083.0000 -4696385.0000  3540593.0000                  APPROX POSITION XYZ
        0.9730        0.0000        0.0000                  ANTENNA: DELTA H/E/N
     1     1     0                                          WAVELENGTH FACT L1/2
     7    C1    L1    L2    P1    P2    S1    S2            # / TYPES OF OBSERV
     0                                                      INTERVAL
  2004     6    18    15    48   20.000000                  TIME OF FIRST OBS
  2004     6    19     0     4    0.000000                  TIME OF LAST OBS
                                                            END OF HEADER
 04  6 18 15 48 20.0000000  0  5G22G21G 6G29G26
  22796882.6334   15717084.11753  12252182.27052  22796883.3124   22796879.7774
        51.0004         44.0004
  20814366.2194   15847143.47953  12356200.86252  20814367.2774   20814363.9944
        56.0004         50.0004
  20712436.2754   15993714.49654  12461305.36452  20712437.8054   20712435.3974
        57.0004         50.0004
  22777524.4814   15960444.75953  12435998.47052  22777526.1334   22777524.1234
        50.0004         44.0004
  21795770.9574   15905354.21253  12395116.77852  21795772.1994   21795770.5454
        52.0004         46.0004
 04  6 18 15 48 40.0000000  0  8G22G21G18G 6G16G15G29G26
  22786106.5154   15660455.05343  12208055.76142  22786107.0594   22786105.0414
        51.0004         44.0004
  20811462.2274   15831883.51843  12344309.98642  20811463.5844   20811459.8794
        56.0004         50.0004
  20796835.1434   -1520515.23153  -1175337.85152  20796836.3624   20796833.1104
        56.0004         50.0004
  20718615.8214   16026188.18244  12486609.52342  20718617.2244   20718615.1984
        57.0004         50.0004
  23562691.8914   -1474148.59953  -1143809.41552  23562693.4214   23562691.3324
        47.0004         40.0004
  23356315.5024   -1625614.03053  -1254396.34752  23356317.1274   23356316.0134
        48.0004         41.0004
  22781828.1144   15983061.72543  12453622.07042  22781830.0714   22781828.6844
        50.0004         44.0004
  21796430.8854   15908819.48943  12397817.00442  21796432.4964   21796430.7124
        52.0004         46.0004
 04  6 18 15 49  0.0000000  0  8G22G21G18G 6G16G15G29G26
  22775355.7934   15603960.05443  12164033.73242  22775356.0504   22775352.7544
        51.0004         44.0004
  20808574.3104   15816706.58543  12332483.80942  20808575.5244   20808572.0204
        56.0004         50.0004
  20791694.5714   -1547528.65543  -1196387.25642  20791695.5904   20791692.6454
        56.0004         50.0004
  20724835.8174   16058875.36944  12512080.04442  20724837.4564   20724835.2834
        57.0004         50.0004
  23560490.1114   -1485720.99143  -1152826.87242  23560490.7174   23560489.5204
        46.0004         40.0004
  23347153.9294   -1673758.14443  -1291911.19542  23347154.1934   23347154.5254
        48.0004         41.0004
  22786178.4504   16005922.61543  12471435.74142  22786180.8674   22786178.7134
        49.0004         44.0004
  21797147.3094   15912586.37543  12400752.24842  21797148.8084   21797147.4024
        52.0004         46.0004
 04  6 18 15 49 20.0000000  0  8G22G21G18G 6G16G15G29G26
  22764630.0584   15547595.11643  12120113.03742  22764630.3864   22764627.4404
        51.0004         44.0004
  20805701.2124   15801608.49543  12320719.07142  20805702.3044   20805699.1894
        56.0004         50.0004
  20786591.1884   -1574348.41243  -1217285.75442  20786592.2424   20786589.1104
        56.0004         50.0004
  20731095.8774   16091771.64044  12537713.48642  20731097.1354   20731095.2904
        57.0004         50.0004
  23558332.3144   -1497056.21543  -1161659.52142  23558333.0704   23558332.2474
        46.0004         40.0004
  23337996.3704   -1721879.05943  -1329407.97742  23337997.4914   23337996.2904
        48.0004         41.0004
  22790574.5554   16029022.78743  12489435.87242  22790575.0994   22790575.8454
        50.0004         44.0004
  21797920.7684   15916650.76643  12403919.31442  21797922.2824   21797919.9234
        52.0004         46.0004
 04  6 18 15 49 40.0000000  0  8G22G21G18G 6G16G15G29G26
  22753928.4984   15491359.01843  12076292.73942  22753928.2824   22753926.2984
        51.0004         44.0004
  20802843.0154   15786588.10744  12309014.87542  20802844.0474   20802840.5104
        57.0004         50.0004
  20781524.0464   -1600975.80243  -1238034.36042  20781525.0814   20781521.8844
        56.0004         50.0004
  20737395.3574   16124875.14644  12563508.40842  20737396.7064   20737394.6644
        57.0004         50.0004
  23556220.0374   -1508155.72443  -1170308.49542  23556222.4594   23556219.9134
        46.0004         40.0004
  23328843.4614   -1769978.27343  -1366887.84742  23328844.6304   23328844.4004
        48.0004         41.0004
  22795015.8154   16052360.55943  12507621.13442  22795017.8134   22795015.8224
        50.0004         44.0004
  21798750.5354   15921011.26943  12407317.10942  21798751.6764   21798750.8154
        52.0004         46.0004
 04  6 18 15 50  0.0000000  0  8G22G21G18G 6G16G15G29G26
  22743250.7924   15435247.77243  12032569.71642  22743251.5144   22743250.1764
        51.0004         44.0004
  20799998.5104   15771641.03444  12297367.80742  20799999.5834   20799996.2924
        57.0004         50.0004
  20776492.8064   -1627415.25043  -1258636.51642  20776494.0254   20776490.8074
        56.0004         50.0004
  20743733.2864   16158181.26644  12589461.21242  20743734.7274   20743732.7384
        57.0004         50.0004
  23554152.1294   -1519024.10043  -1178777.37042  23554152.1354   23554152.9114
        47.0004         40.0004
  23319694.0184   -1818060.12843  -1404354.18442  23319693.8384   23319694.4034
        48.0004         41.0004
  22799500.9794   16075931.03043  12525987.72742  22799501.8904   22799501.2664
        50.0004         44.0004
  21799635.9984   15925663.41343  12410942.15942  21799637.2274   21799635.8544
        53.0004         46.0004
 04  6 18 15 50 20.0000000  0  8G22G21G18G 6G16G15G29G26
  22732599.1214   15379270.79443  11988951.32442  22732598.8334   22732596.7404
        51.0004         44.0004
  20797169.9634   15756776.24543  12285784.85642  20797170.9394   20797167.6604
        56.0004         50.0004
  20771498.9434   -1653657.73143  -1279085.19042  20771500.2254   20771497.0154
        56.0004         50.0004
  20750111.4914   16191698.95444  12615578.87042  20750112.8414   20750110.7134
        57.0004         50.0004
  23552130.2814   -1529652.28943  -1187059.08642  23552131.3844   23552128.5694
        46.0004         40.0004
  23310548.8614   -1866115.57443  -1441799.95042  23310549.5054   23310549.1394
        48.0004         41.0004
  22804032.0434   16099742.86143  12544542.39142  22804033.1144   22804032.5154
        49.0004         44.0004
  21800578.2784   15930616.23943  12414801.51342  21800580.1054   21800578.8914
        52.0004         46.0004
 04  6 18 15 50 40.0000000  0  8G22G21G18G 6G16G15G29G26
  22721970.8244   15323421.62243  11945432.51942  22721970.7254   22721968.5024
        51.0004         44.0004
  20794355.7354   15741987.22344  12274260.94742  20794356.6714   20794353.3724
        57.0004         50.0004
  20766541.4544   -1679710.02843  -1299385.66742  20766542.4834   20766539.5144
        56.0004         50.0004
  20756528.6684   16225421.11844  12641855.85642  20756530.0854   20756528.0374
        57.0004         50.0004
  23550152.2274   -1540047.02543  -1195158.89042  23550153.0214   23550152.0544
        46.0004         40.0004
  23301407.6584   -1914151.41543  -1479230.42842  23301408.4914   23301407.6624
        48.0004         41.0004
  22808608.0134   16123789.28343  12563279.84942  22808609.3144   22808609.0314
        50.0004         44.0004
  21801576.6614   15935863.14543  12418890.01242  21801578.6814   21801576.3014
        53.0004         46.0004
 04  6 18 15 51  0.0000000  0  8G22G21G18G 6G16G15G29G26
  22711368.0694   15267704.70043  11902016.77142  22711367.8844   22711365.9854
        51.0004         44.0004
  20791556.7514   15727278.34243  12262799.48642  20791558.0124   20791554.2574
        56.0004         50.0004
  20761620.8824   -1705567.72243  -1319534.50942  20761622.0484   20761618.8204
        56.0004         50.0004
  20762985.4144   16259351.71544  12668295.26242  20762986.8644   20762984.6504
        57.0004         50.0004
  23548218.8814   -1550204.04343  -1203073.45842  23548220.4894   23548218.9914
        47.0004         40.0004
  23292271.6234   -1962163.38543  -1516642.31342  23292271.4204   23292270.9204
        48.0004         41.0004
  22813229.2264   16148074.10143  12582203.07342  22813230.2924   22813229.8594
        50.0004         44.0004
  21802632.2214   15941408.30643  12423210.92342  21802633.7764   21802631.9044
        53.0004         46.0004
 04  6 18 15 51 20.0000000  0  8G22G21G18G 6G16G15G29G26
  22700790.6244   15212117.26843  11858701.91642  22700789.8994   22700786.9654
        51.0004         44.0004
  20788772.5684   15712646.69344  12251398.20642  20788773.6984   20788770.0584
        57.0004         50.0004
  20756736.8094   -1731234.12943  -1339534.29542  20756737.9784   20756734.8994
        56.0004         50.0004
  20769481.3114   16293487.33444  12694894.42142  20769482.9094   20769480.6154
        57.0004         50.0004
  23546331.7814   -1560126.61543  -1210805.34642  23546332.7464   23546330.1544
        47.0004         40.0004
  23283139.4124   -2010154.58343  -1554038.01642  23283140.6964   23283139.3954
        48.0004         41.0004
  22817895.1654   16172593.73843  12601309.27142  22817896.2944   22817895.6564
        50.0004         44.0004
  21803743.3844   15947248.72643  12427761.90542  21803745.5204   21803744.0904
        53.0004         46.0004
 04  6 18 15 51 40.0000000  0  8G22G21G18G 6G16G15G29G26
  22690236.6614   15156656.65743  11815485.89442  22690236.9094   22690234.3454
        51.0004         44.0004
  20786002.2874   15698088.90843  12240054.47742  20786003.1994   20785999.8034
        56.0004         50.0004
  20751888.2734   -1756712.31943  -1359387.41942  20751889.5924   20751886.5674
        56.0004         50.0004
  20776015.5204   16327824.86744  12721650.92042  20776017.0174   20776014.9504
        57.0004         50.0004
  23544487.5984   -1569817.76143  -1218356.89942  23544488.7034   23544487.3274
        47.0004         40.0004
  23274009.8524   -2058127.98843  -1591419.84642  23274009.0144   23274011.6104
        48.0004         41.0004
  22822605.0134   16197344.99243  12620595.94542  22822606.4794   22822606.1254
        49.0004         44.0004
  21804910.2884   15953381.20843  12432540.46542  21804912.2724   21804910.2454
        53.0004         46.0004
 04  6 18 15 52  0.0000000  0  8G22G21G18G 6G16G15G29G26
  22679708.4884   15101331.38043  11772375.31542  22679708.4484   22679706.6024
        51.0004         44.0004
  20783247.6094   15683613.54344  12228774.97242  20783248.7744   20783245.1804
        57.0004         50.0004
  20747077.4254   -1781993.99444  -1379087.41342  20747078.6694   20747075.4034
        57.0004         50.0004
  20782589.7474   16362372.13144  12748570.84442  20782591.1744   20782588.9994
        57.0004         50.0004
  23542688.2814   -1579269.27543  -1225721.72242  23542689.9344   23542687.4054
        47.0004         40.0004
  23264886.2004   -2106075.42243  -1628781.44342  23264887.8364   23264886.0884
        48.0004         41.0004
  22827361.0014   16222335.60843  12640069.12542  22827362.3254   22827361.2534
        49.0004         44.0004
  21806134.3344   15959813.96643  12437553.00042  21806135.8784   21806134.2354
        53.0004         46.0004
 04  6 18 15 52 20.0000000  0  8G22G21G18G 6G16G15G29G26
  22669204.9754   15046135.56043  11729365.61442  22669205.2444   22669202.8194
        52.0004         44.0004
  20780507.6534   15669214.49544  12217554.93842  20780508.6544   20780505.2084
        57.0004         50.0004
  20742302.7174   -1807085.09743  -1398638.90842  20742303.9584   20742300.7494
        56.0004         50.0004
  20789202.4894   16397122.68744  12775649.17642  20789204.0394   20789201.7334
        57.0004         50.0004
  23540934.0504   -1588487.49443  -1232904.76742  23540935.4974   23540933.6754
        47.0004         40.0004
  23255765.7344   -2154003.17043  -1666127.68842  23255766.4894   23255764.1944
        48.0004         41.0004
  22832160.8574   16247559.10843  12659723.79042  22832163.3314   22832162.0584
        49.0004         43.0004
  21807414.7014   15966540.88143  12442794.75442  21807416.5734   21807413.8404
        52.0004         46.0004
 04  6 18 15 52 40.0000000  0  8G22G21G18G 6G16G15G29G26
  22658726.8314   14991072.47943  11686459.35242  22658727.6934   22658725.3604
        51.0004         44.0004
  20777782.5924   15654894.66044  12206396.62742  20777783.6264   20777779.9934
        57.0004         50.0004
  20737564.8104   -1831982.99443  -1418039.85542  20737565.9634   20737563.0864
        56.0004         50.0004
  20795854.5184   16432079.22844  12802888.02142  20795855.8624   20795854.0034
        57.0004         50.0004
  23539224.8884   -1597469.49543  -1239903.74042  23539226.9124   23539222.6844
        46.0004         40.0004
  23246649.4674   -2201908.23443  -1703456.27142  23246650.9094   23246650.5124
        48.0004         41.0004
  22837005.5094   16273018.07543  12679561.93942  22837006.9724   22837004.9164
        49.0004         43.0004
  21808751.3354   15973564.92843  12448268.03442  21808753.1804   21808751.2934
        53.0004         46.0004
 04  6 18 15 53  0.0000000  0  8G22G21G18G 6G16G15G29G26
  22648273.9584   14936141.20843  11643655.80242  22648274.2654   22648272.0214
        51.0004         44.0004
  20775072.6864   15640653.13244  12195299.33542  20775073.5404   20775070.1694
        57.0004         50.0004
  20732863.4534   -1856688.93743  -1437291.22842  20732864.5184   20732861.7664
        56.0004         50.0004
  20802545.5034   16467240.24244  12830286.18542  20802546.8174   20802544.6664
        57.0004         50.0004
  23537560.0574   -1606216.51143  -1246719.61542  23537560.9584   23537560.6904
        47.0004         40.0004
  23237537.9444   -2249791.87543  -1740768.15942  23237538.1044   23237538.9534
        48.0004         41.0004
  22841893.8084   16298710.87243  12699582.28742  22841895.5354   22841895.1374
        49.0004         43.0004
  21810144.1564   15980884.68043  12453971.73342  21810145.8164   21810143.7434
        53.0004         46.0004
 04  6 18 15 53 20.0000000  0  8G22G21G18G 6G16G15G29G26
  22637845.9974   14881342.30543  11600955.39442  22637846.3664   22637843.1694
        52.0004         44.0004
  20772377.3744   15626490.03043  12184263.15142  20772378.4454   20772374.5954
        56.0004         50.0004
  20728198.6464   -1881202.59243  -1456392.76542  20728200.1024   20728196.6504
        56.0004         50.0004
  20809275.4384   16502605.79344  12857843.73242  20809276.7054   20809274.6314
        57.0004         50.0004
  23535939.9704   -1614728.45443  -1253352.31742  23535942.2204   23535939.3924
        46.0004         40.0004
  23228429.5734   -2297653.66943  -1778063.02142  23228430.7554   23228430.2344
        48.0004         41.0004
  22846828.3834   16324637.52943  12719784.86042  22846828.8104   22846828.4594
        48.0004         43.0004
  21811593.4124   15988500.45543  12459906.09342  21811594.8864   21811592.9294
        52.0004         46.0004
 04  6 18 15 53 40.0000000  0  8G22G21G18G 6G16G15G29G26
  22627443.7914   14826678.31743  11558360.10642  22627443.9294   22627441.4434
        52.0004         44.0004
  20769697.7104   15612407.79643  12173289.98342  20769698.3684   20769694.9564
        56.0004         50.0004
  20723570.7854   -1905521.81243  -1475342.79242  20723571.9934   20723568.8504
        56.0004         50.0004
  20816044.6064   16538177.76344  12885562.12842  20816046.0314   20816044.1204
        57.0004         50.0004
  23534365.6014   -1623003.19343  -1259800.18542  23534367.2374   23534366.5544
        46.0004         40.0004
  23219326.3954   -2345491.45643  -1815339.17942  23219327.5104   23219326.7844
        48.0004         41.0004
  22851806.8624   16350799.74243  12740170.99542  22851808.0364   22851806.8234
        49.0004         43.0004
  21813099.3434   15996414.51043  12466072.88442  21813101.5764   21813099.2414
        52.0004         46.0004
 04  6 18 15 54  0.0000000  0  8G22G21G18G 6G16G15G29G26
  22617065.9194   14772144.39143  11515866.17942  22617066.9574   22617063.7094
        52.0004         44.0004
  20767032.3664   15598401.40144  12162375.90942  20767033.2534   20767030.0944
        57.0004         50.0004
  20718979.1214   -1929651.84443  -1494145.40242  20718980.2814   20718977.0354
        56.0004         50.0004
  20822851.9654   16573950.71944  12913437.13942  20822853.4124   20822851.2724
        57.0004         50.0004
  23532835.6274   -1631045.85343  -1266067.20942  23532834.8724   23532834.8004
        47.0004         40.0004
  23210227.4594   -2393310.23643  -1852600.52242  23210228.4164   23210228.5984
        48.0004         41.0004
  22856829.1824   16377192.12943  12760736.48042  22856831.0744   22856829.1304
        49.0004         43.0004
  21814661.4114   16004621.61443  12472468.02642  21814662.8824   21814661.5004
        53.0004         46.0004
 04  6 18 15 54 20.0000000  0  8G22G21G18G 6G16G15G29G26
  22606714.4274   14717744.85643  11473476.96242  22606713.6114   22606711.6904
        52.0004         44.0004
  20764382.2944   15584475.04543  12151524.20242  20764383.4824   20764379.5374
        56.0004         50.0004
  20714424.1684   -1953588.60043  -1512797.40942  20714425.4094   20714422.2334
        56.0004         50.0004
  20829698.3244   16609928.32444  12941471.60942  20829699.8534   20829697.5824
        57.0004         50.0004
  23531349.8294   -1638852.61943  -1272150.42042  23531351.1094   23531348.7544
        47.0004         40.0004
  23201131.5574   -2441106.24243  -1889844.11842  23201133.2994   23201131.6974
        48.0004         41.0004
  22861895.7404   16403818.23243  12781484.07542  22861897.4444   22861897.0054
        48.0004         43.0004
  21816279.6124   16013125.58643  12479094.49142  21816281.7464   21816279.6354
        53.0004         46.0004
 04  6 18 15 54 40.0000000  0  8G22G21G18G 6G16G15G29G26
  22596387.8764   14663479.82343  11431192.54542  22596388.5084   22596385.3814
        52.0004         44.0004
  20761747.4074   15570628.75043  12140734.88442  20761748.4504   20761745.0854
        56.0004         50.0004
  20709905.7984   -1977332.32343  -1531298.99442  20709906.9674   20709903.7114
        56.0004         50.0004
  20836583.4634   16646110.28044  12969665.31742  20836584.8464   20836582.7234
        57.0004         50.0004
  23529909.5064   -1646423.60443  -1278049.92042  23529910.2254   23529909.5764
        47.0004         40.0004
  23192040.8694   -2488879.56243  -1927070.04542  23192041.3714   23192041.0834
        48.0004         41.0004
  22867006.9864   16430677.62443  12802413.46042  22867008.6014   22867008.4344
        49.0004         43.0004
  21817954.1854   16021926.42643  12485952.28142  21817956.0054   21817953.9624
        53.0004         46.0004
 04  6 18 15 55  0.0000000  0  8G22G21G18G 6G16G15G29G26
  22586086.5284   14609345.20143  11389009.76842  22586086.4284   22586083.8444
        52.0004         44.0004
  20759127.0724   15556858.20243  12130004.59042  20759127.8854   20759124.2414
        56.0004         50.0004
  20705423.4844   -2000887.35543  -1549653.54742  20705424.7514   20705421.2764
        56.0004         50.0004
  20843506.5414   16682491.84144  12998014.56042  20843508.3254   20843505.8814
        57.0004         50.0004
  23528512.9694   -1653763.17843  -1283769.09542  23528512.8634   23528512.2664
        47.0004         40.0004
  23182953.6874   -2536634.37643  -1964281.55942  23182954.4174   23182952.7994
        48.0004         41.0004
  22872161.6444   16457765.50943  12823520.88642  22872163.9914   22872161.6094
        48.0004         43.0004
  21819684.7264   16031019.53743  12493037.81442  21819686.2504   21819684.6934
        53.0004         46.0004
 04  6 18 15 55 20.0000000  0  8G22G21G18G 6G16G15G29G26
  22575811.3674   14555347.80343  11346933.90542  22575811.4574   22575808.8414
        52.0004         44.0004
  20756522.1664   15543169.55443  12119338.10842  20756523.2374   20756519.2324
        56.0004         50.0004
  20700978.0874   -2024247.32243  -1567856.10742  20700979.2854   20700975.9424
        56.0004         50.0004
  20850469.0694   16719079.28044  13026524.22142  20850470.4024   20850468.1324
        57.0004         50.0004
  23527160.4464   -1660865.04143  -1289303.03542  23527162.1664   23527160.4284
        46.0004         40.0004
  23173870.4734   -2584364.20643  -2001473.59242  23173872.2144   23173870.9374
        48.0004         41.0004
  22877360.6334   16485087.89143  12844811.04342  22877362.1444   22877360.9744
        48.0004         43.0004
  21821471.4184   16040411.56243  12500356.25942  21821473.5084   21821471.5744
        52.0004         46.0004
 04  6 18 15 55 40.0000000  0  8G22G21G18G 6G16G15G29G26
  22565561.6384   14501486.29243  11304963.92842  22565561.5584   22565558.5854
        52.0004         44.0004
  20753932.7534   15529562.05643  12108734.86442  20753933.7594   20753929.9834
        56.0004         49.0004
  20696569.6324   -2047413.83343  -1585907.91942  20696570.8424   20696567.6764
        56.0004         50.0004
  20857470.3054   16755870.64044  13055192.78542  20857471.6774   20857469.6904
        57.0004         50.0004
  23525854.7274   -1667730.97043  -1294653.14542  23525855.3974   23525854.2904
        46.0004         40.0004
  23164792.5304   -2632070.75643  -2038647.50242  23164792.4094   23164791.5954
        48.0004         41.0004
  22882604.3064   16512642.92943  12866282.48342  22882606.1944   22882605.0684
        48.0004         43.0004
  21823315.8954   16050100.67543  12507906.20542  21823317.4824   21823315.9144
        53.0004         46.0004
 04  6 18 15 56  0.0000000  0  8G22G21G18G 6G16G15G29G26
  22555337.2394   14447756.47343  11263096.57742  22555337.9284   22555334.6794
        53.0004         45.0004
  20751357.7944   15516030.74844  12098190.99142  20751358.7604   20751355.3324
        57.0004         50.0004
  20692197.2934   -2070391.38243  -1603812.48842  20692198.5134   20692195.1674
        56.0004         50.0004
  20864509.0504   16792861.11844  13084016.51042  20864510.7824   20864508.7094
        57.0004         50.0004
  23524592.5054   -1674365.68743  -1299823.07542  23524592.9294   23524593.2844
        47.0004         40.0004
  23155717.6594   -2679758.39943  -2075806.66742  23155717.8434   23155718.5524
        48.0004         41.0004
  22887891.2934   16540425.70343  12887931.39342  22887893.1924   22887891.4884
        48.0004         43.0004
  21825215.1164   16060082.24743  12515684.04842  21825217.1174   21825214.6194
        53.0004         46.0004
 04  6 18 15 56 20.0000000  0  8G22G21G18G 6G16G15G29G26
  22545138.8894   14394163.38343  11221335.75542  22545138.8284   22545135.8014
        53.0004         45.0004
  20748798.1964   15502580.30043  12087710.12342  20748799.2854   20748795.5924
        56.0004         50.0004
  20687861.4774   -2093175.40243  -1621566.25742  20687862.5134   20687859.6054
        56.0004         50.0004
  20871587.1804   16830055.01544  13112998.74442  20871588.3234   20871586.4974
        57.0004         50.0004
  23523373.4964   -1680764.43843  -1304809.14842  23523375.8674   23523374.2294
        47.0004         40.0004
  23146648.2334   -2727422.46643  -2112947.47942  23146648.9444   23146647.8194
        48.0004         41.0004
  22893222.4574   16568440.43643  12909761.04142  22893222.5084   22893223.5554
        48.0004         43.0004
  21827171.0774   16070360.80443  12523693.30142  21827172.1484   21827172.4814
        53.0004         46.0004
 04  6 18 15 56 40.0000000  0  8G22G21G18G 6G16G15G29G26
  22534966.4134   14340706.93943  11179681.41942  22534966.6024   22534963.5354
        53.0004         45.0004
  20746254.2254   15489210.94143  12077292.44742  20746255.1864   20746251.7904
        56.0004         50.0004
  20683562.6374   -2115766.33443  -1639169.56242  20683563.9004   20683560.6284
        56.0004         50.0004
  20878703.4014   16867451.83543  13142139.09142  20878704.7204   20878702.8554
        56.0004         50.0004
  23522201.6704   -1686927.69143  -1309611.70942  23522202.6954   23522201.6894
        47.0004         40.0004
  23137581.4604   -2775063.30943  -2150070.17442  23137581.2884   23137582.3204
        48.0004         41.0004
  22898597.5534   16596686.55743  12931770.99442  22898599.7544   22898597.7534
        48.0004         43.0004
  21829183.3884   16080936.13043  12531933.80342  21829184.8014   21829183.8504
        53.0004         46.0004
 04  6 18 15 57  0.0000000  0  8G22G21G18G 6G16G15G29G26
  22524819.9054   14287384.54943  11138131.54242  22524819.3054   22524816.7964
        52.0004         45.0004
  20743724.7064   15475919.81443  12066935.72842  20743726.1904   20743722.4594
        56.0004         50.0004
  20679299.8534   -2138167.06143  -1656624.65942  20679301.4114   20679297.8264
        56.0004         50.0004
  20885858.0584   16905048.31044  13171435.01942  20885859.2964   20885857.2934
        57.0004         50.0004
  23521073.3844   -1692858.38743  -1314233.04842  23521075.3454   23521073.0284
        47.0004         40.0004
  23128519.8404   -2822683.72143  -2187176.97142  23128519.8514   23128521.0344
        48.0004         41.0004
  22904015.9904   16625160.60043  12953958.55442  22904017.9654   22904015.6324
        48.0004         43.0004
  21831251.8724   16091805.20143  12540403.19842  21831253.6294   21831251.6544
        53.0004         46.0004
 04  6 18 15 57 20.0000000  0  8G22G21G18G 6G16G15G29G26
  22514698.7414   14234200.00443  11096689.08042  22514698.9304   22514697.0144
        53.0004         45.0004
  20741211.5064   15462710.45643  12056642.72242  20741212.2294   20741208.9334
        56.0004         50.0004
  20675073.9384   -2160374.00743  -1673928.76142  20675075.3634   20675071.9534
        56.0004         50.0004
  20893051.0294   16942847.77944  13200889.12942  20893052.2374   20893050.3514
        57.0004         50.0004
  23519989.4094   -1698553.10043  -1318670.50842  23519991.5084   23519989.3624
        47.0004         41.0004
  23119462.2004   -2870280.10743  -2224265.02342  23119463.2834   23119462.8624
        47.0004         41.0004
  22909478.3564   16653865.69043  12976326.14842  22909480.6884   22909478.8224
        48.0004         43.0004
  21833376.6354   16102971.31943  12549104.06042  21833378.2634   21833376.7084
        53.0004         46.0004
 04  6 18 15 57 40.0000000  0  8G22G21G18G 6G16G15G29G26
  22504603.9814   14181152.31743  11055353.26042  22504604.7784   22504601.2684
        52.0004         45.0004
  20738713.0534   15449581.70943  12046412.53342  20738713.8154   20738710.3684
        56.0004         50.0004
  20670884.6774   -2182388.66343  -1691083.02142  20670886.0714   20670882.5854
        56.0004         50.0004
  20900282.2324   16980848.46943  13230500.02942  20900283.8004   20900281.6624
        56.0004         50.0004
  23518950.1334   -1704013.35443  -1322925.26842  23518952.4594   23518949.4094
        47.0004         41.0004
  23110409.4204   -2917853.82843  -2261335.42742  23110411.1674   23110410.3574
        48.0004         41.0004
  22914984.6334   16682800.09943  12998872.43442  22914986.5384   22914984.6934
        48.0004         43.0004
  21835557.6924   16114433.08843  12558035.30442  21835559.1904   21835557.3994
        53.0004         46.0004
 04  6 18 15 58  0.0000000  0  8G22G21G18G 6G16G15G29G26
  22494535.0894   14128238.99243  11014122.14342  22494535.7214   22494532.3644
        53.0004         45.0004
  20736229.6024   15436530.74744  12036242.95242  20736230.7404   20736226.6234
        57.0004         50.0004
  20666731.4874   -2204213.70843  -1708089.53642  20666732.7364   20666729.4504
        56.0004         50.0004
  20907551.1464   17019047.39943  13260265.40442  20907552.6414   20907551.0454
        56.0004         50.0004
  23517955.8644   -1709242.02843  -1326999.58342  23517957.5284   23517956.3464
        48.0004         41.0004
  23101360.7914   -2965407.66143  -2298390.33842  23101360.0564   23101360.7894
        48.0004         41.0004
  22920533.5794   16711960.76043  13021595.01742  22920535.7394   22920534.2344
        48.0004         43.0004
  21837794.4454   16126187.79543  12567194.80242  21837795.8414   21837794.3974
        53.0004         46.0004
 04  6 18 15 58 20.0000000  0  8G22G21G18G 6G16G15G29G26
  22484492.5554   14075465.96743  10973000.35942  22484491.9004   22484489.9774
        53.0004         45.0004
  20733761.9544   15423563.37744  12026138.51242  20733763.0174   20733759.3584
        57.0004         50.0004
  20662615.5254   -2225843.76543  -1724944.11042  20662616.7354   20662613.7564
        56.0004         50.0004
  20914858.9814   17057449.85643  13290189.37242  20914860.4674   20914858.2594
        56.0004         50.0004
  23517006.3964   -1714233.67243  -1330889.20542  23517006.8454   23517005.1494
        47.0004         41.0004
  23092315.7154   -3012935.93643  -2335425.32042  23092316.3314   23092317.4674
        48.0004         41.0004
  22926126.7594   16741352.90843  13044497.98042  22926128.8954   22926126.7644
        49.0004         43.0004
  21840088.3304   16138240.70743  12576586.67442  21840090.7064   21840088.2084
        53.0004         46.0004
 04  6 18 15 58 40.0000000  0  8G22G21G18G 6G16G15G29G26
  22474476.0694   14022829.49943  10931984.97742  22474476.3574   22474472.8424
        53.0004         45.0004
  20731309.3774   15410676.05944  12016096.44642  20731310.5764   20731307.0224
        57.0004         50.0004
  20658535.9184   -2247282.77743  -1741649.82142  20658537.0364   20658533.7164
        56.0004         50.0004
  20922204.6764   17096051.53643  13320268.57542  20922206.2144   20922204.1874
        56.0004         50.0004
  23516100.3884   -1718992.28443  -1334597.23142  23516102.3334   23516100.0284
        48.0004         41.0004
  23083275.6844   -3060442.69543  -2372443.54142  23083273.9574   23083276.3224
        48.0004         41.0004
  22931763.0314   16770972.13143  13067577.89242  22931764.4334   22931763.6044
        48.0004         43.0004
  21842437.9004   16150587.97943  12586207.91142  21842439.1624   21842437.8794
        53.0004         46.0004
 04  6 18 15 59  0.0000000  0  8G22G21G18G 6G16G15G29G26
  22464485.5974   13970330.42843  10891076.65742  22464486.0534   22464484.0154
        53.0004         45.0004
  20728872.5204   15397869.36544  12006117.20542  20728873.5234   20728869.9324
        57.0004         50.0004
  20654492.6254   -2268530.26043  -1758206.28542  20654493.7664   20654490.6044
        56.0004         50.0004
  20929588.2044   17134852.66443  13350503.19342  20929589.7904   20929587.8504
        56.0004         50.0004
  23515239.3994   -1723517.40743  -1338123.32242  23515239.2794   23515237.6224
        48.0004         41.0004
  23074240.1204   -3107927.10143  -2409444.35242  23074242.0054   23074238.6544
        48.0004         41.0004
  22937442.6794   16800818.47243  13090834.76542  22937443.8684   22937442.9784
        48.0004         43.0004
  21844843.7604   16163229.81143  12596058.68242  21844844.9664   21844843.8284
        53.0004         46.0004
 04  6 18 15 59 20.0000000  0  8G22G21G18G 6G16G15G29G26
  22454521.8534   13917969.80643  10850276.22542  22454521.9384   22454519.0504
        53.0004         45.0004
  20726450.9354   15385143.99243  11996201.33342  20726452.0944   20726448.3394
        56.0004         50.0004
  20650486.0744   -2289585.44843  -1774612.91342  20650487.1644   20650483.8694
        56.0004         50.0004
  20937009.9504   17173853.65743  13380893.55042  20937011.5344   20937009.7144
        56.0004         50.0004
  23514422.5964   -1727808.47443  -1341467.04442  23514425.6174   23514422.1824
        48.0004         41.0004
  23065208.2634   -3155388.49043  -2446427.21942  23065207.4634   23065208.5294
        48.0004         41.0004
  22943165.5204   16830892.37443  13114268.96842  22943166.5514   22943166.2114
        48.0004         43.0004
  21847305.5504   16176166.98943  12606139.58442  21847307.9484   21847305.3904
        53.0004         46.0004
 04  6 18 15 59 40.0000000  0  8G22G21G18G 6G16G15G29G26
  22444584.3054   13865747.02843  10809583.19542  22444584.8534   22444581.7984
        53.0004         46.0004
  20724044.7484   15372499.22844  11986348.27742  20724045.4794   20724042.2714
        57.0004         50.0004
  20646515.8114   -2310449.52143  -1790870.61642  20646516.8174   20646513.7064
        56.0004         50.0004
  20944469.2804   17213053.31543  13411438.70942  20944470.9324   20944469.1984
        56.0004         50.0004
  23513650.1664   -1731866.67443  -1344629.29042  23513651.9614   23513649.9584
        47.0004         41.0004
  23056180.7194   -3202827.81643  -2483392.89342  23056181.7024   23056180.6764
        48.0004         41.0004
  22948931.6584   16861192.48943  13137879.44342  22948933.3644   22948931.4154
        49.0004         43.0004
  21849823.4434   16189398.40843  12616449.76942  21849825.1364   21849823.0064
        53.0004         46.0004
 04  6 18 16  0  0.0000000  0  8G22G21G18G 6G16G15G29G26
  22434673.2044   13813663.24243  10768998.46542  22434673.3174   22434670.6444
        53.0004         46.0004
  20721654.0794   15359936.21943  11976558.92542  20721654.8084   20721651.6234
        56.0004         50.0004
  20642581.9364   -2331121.49443  -1806978.63742  20642583.0824   20642579.5214
        56.0004         50.0004
  20951966.8324   17252452.10143  13442139.03442  20951968.2954   20951966.3964
        56.0004         50.0004
  23512922.5084   -1735691.11043  -1347609.39442  23512923.1214   23512922.2134
        47.0004         41.0004
  23047157.6404   -3250243.98843  -2520340.54142  23047156.6924   23047158.4624
        48.0004         41.0004
  22954740.7084   16891719.22543  13161666.50142  22954741.6624   22954740.8534
        49.0004         43.0004
  21852397.5894   16202924.76643  12626989.78242  21852399.6054   21852397.3584
        53.0004         46.0004
 04  6 18 16  0 20.0000000  0  8G22G21G18G 6G16G15G29G26
  22424788.3894   13761718.47543  10728522.06642  22424788.4094   22424785.8984
        53.0004         46.0004
  20719278.7694   15347454.59344  11966832.98942  20719279.9594   20719276.1214
        57.0004         50.0004
  20638684.5604   -2351601.86843  -1822937.35642  20638685.5804   20638682.5804
        56.0004         50.0004
  20959501.9064   17292049.59443  13472994.19542  20959503.0694   20959501.6644
        56.0004         50.0004
  23512238.9464   -1739282.16043  -1350407.63542  23512241.3284   23512238.7404
        47.0004         41.0004
  23038139.0924   -3297637.22743  -2557270.29742  23038139.0114   23038139.1724
        48.0004         41.0004
  22960592.5994   16922471.92443  13185629.64542  22960595.2594   22960592.4104
        49.0004         43.0004
  21855027.3984   16216745.66043  12637759.30342  21855029.4884   21855027.3634
        53.0004         46.0004
 04  6 18 16  0 40.0000000  0  8G22G21G18G 6G16G15G29G26
  22414929.4364   13709911.27243  10688152.86342  22414930.0884   22414926.5294
        53.0004         46.0004
  20716919.0494   15335052.99343  11957169.40642  20716919.9034   20716916.0824
        56.0004         50.0004
  20634823.3274   -2371892.36443  -1838748.11842  20634824.6104   20634821.5474
        56.0004         50.0004
  20967074.5154   17331843.67743  13504002.54842  20967076.1084   20967074.1494
        56.0004         50.0004
  23511599.9994   -1742641.73043  -1353025.51342  23511602.2114   23511599.8674
        47.0004         41.0004
  23029124.5504   -3345009.19343  -2594183.49542  23029124.2474   23029124.0834
        48.0004         42.0004
  22966487.4324   16953448.49343  13209767.21942  22966488.6154   22966489.0644
        49.0004         43.0004
  21857713.1714   16230859.30643  12648756.93842  21857714.8714   21857713.4584
        53.0004         46.0004
 04  6 18 16  1  0.0000000  0  8G22G21G18G 6G16G15G29G26
  22405098.0034   13658245.30043  10647893.71042  22405098.2244   22405095.0624
        53.0004         46.0004
  20714574.7404   15322734.88443  11947570.88342  20714575.6904   20714572.5834
        56.0004         50.0004
  20630998.9044   -2391989.34543  -1854408.08842  20631000.2454   20630996.7994
        56.0004         50.0004
  20974685.1164   17371837.41243  13535166.47242  20974686.3664   20974684.7294
        56.0004         50.0004
  23511005.8974   -1745766.57243  -1355460.48442  23511007.1014   23511004.2004
        48.0004         41.0004
  23020114.2334   -3392356.44743  -2631077.43142  23020114.9604   23020115.4254
        48.0004         41.0004
  22972425.1974   16984651.94243  13234081.58542  22972426.7974   22972425.8134
        49.0004         43.0004
  21860455.2834   16245268.98543  12659985.24642  21860456.7664   21860455.3334
        53.0004         46.0004
 04  6 18 16  1 20.0000000  0  8G22G21G18G 6G16G15G29G26
  22395292.3574   13606716.80043  10607741.67342  22395292.1984   22395289.3564
        53.0004         46.0004
  20712246.0214   15310496.46944  11938034.45742  20712246.8134   20712243.4194
        57.0004         50.0004
  20627210.6594   -2411897.28143  -1869920.75042  20627211.9304   20627208.6434
        56.0004         50.0004
  20982332.7754   17412026.54943  13566482.65542  20982334.2394   20982332.6554
        56.0004         50.0004
  23510454.7224   -1748660.94243  -1357715.87342  23510457.5244   23510454.7964
        47.0004         41.0004
  23011108.5964   -3439682.95143  -2667955.21042  23011109.5684   23011108.3824
        48.0004         42.0004
  22978405.1334   17016077.64743  13258569.13342  22978406.6114   22978405.0174
        49.0004         43.0004
  21863252.7544   16259970.48543  12671440.95342  21863254.8854   21863252.6094
        53.0004         46.0004
 04  6 18 16  1 40.0000000  0  8G22G21G18G 6G16G15G29G26
  22385514.0084   13555331.78843  10567701.44742  22385514.5054   22385510.8924
        53.0004         46.0004
  20709933.2154   15298343.48744  11928564.60542  20709934.3474   20709930.8594
        57.0004         50.0004
  20623459.3674   -2431610.38843  -1885281.59842  20623460.5784   20623457.5634
        56.0004         50.0004
  20990018.8384   17452416.22643  13597955.10142  20990020.3094   20990018.7384
        56.0004         49.0004
  23509949.2044   -1751319.41743  -1359787.43642  23509949.0414   23509948.5624
        48.0004         41.0004
  23002107.4524   -3486982.97643  -2704812.33042  23002108.5334   23002107.7304
        48.0004         42.0004
  22984428.0764   17047730.84443  13283233.96342  22984429.0764   22984428.3954
        48.0004         43.0004
  21866106.9534   16274969.18343  12683128.24242  21866108.6964   21866106.9394
        53.0004         46.0004
 04  6 18 16  2  0.0000000  0  8G22G21G18G 6G16G15G29G26
  22375762.3434   13504086.29943  10527769.94142  22375762.8984   22375759.2054
        53.0004         46.0004
  20707636.2134   15286271.84743  11919158.13542  20707637.2014   20707633.6054
        56.0004         50.0004
  20619744.3714   -2451132.91743  -1900493.94542  20619745.5294   20619742.3644
        56.0004         50.0004
  20997741.9794   17493002.03843  13629580.37942  20997743.5094   20997741.9274
        56.0004         49.0004
  23509487.2454   -1753746.11443  -1361678.40642  23509488.3544   23509486.5804
        48.0004         41.0004
  22993110.6174   -3534260.66643  -2741652.06042  22993112.0944   22993110.7324
        48.0004         42.0004
  22990494.2494   17079607.10543  13308072.59542  22990496.1504   22990494.5224
        49.0004         43.0004
  21869016.8454   16290260.76643  12695043.75342  21869018.8284   21869016.7364
        53.0004         46.0004
 04  6 18 16  2 20.0000000  0  8G22G21G18G 6G16G15G29G26
  22366036.9994   13452980.11443  10487946.97542  22366037.1234   22366034.1914
        53.0004         46.0004
  20705354.4814   15274281.39244  11909814.92542  20705355.3354   20705351.9104
        57.0004         50.0004
  20616065.4464   -2470465.59843  -1915558.35942  20616066.5774   20616063.3864
        56.0004         50.0004
  21005502.4534   17533783.09343  13661357.79642  21005503.8294   21005501.8644
        56.0004         49.0004
  23509069.4874   -1755941.93543  -1363389.46542  23509070.5684   23509068.3524
        48.0004         41.0004
  22984118.3374   -3581516.46843  -2778474.71142  22984120.3344   22984116.9104
        49.0004         42.0004
  22996602.7314   17111705.41143  13333084.26142  22996603.7704   22996602.7594
        49.0004         43.0004
  21871982.4944   16305844.57243  12707186.97342  21871984.3264   21871982.6564
        53.0004         46.0004
 04  6 18 16  2 40.0000000  0  8G22G21G18G 6G16G15G29G26
  22356338.9864   13402016.62243  10448235.21042  22356339.4464   22356336.3614
        53.0004         46.0004
  20703088.8164   15262375.21044  11900537.38642  20703089.7224   20703086.0304
        57.0004         50.0004
  20612423.2714   -2489605.23143  -1930472.34642  20612424.5414   20612421.1254
        56.0004         50.0004
  21013300.4214   17574762.15843  13693289.51242  21013301.8964   21013300.4474
        56.0004         49.0004
  23508695.5614   -1757903.71743  -1364918.15942  23508695.9204   23508696.4064
        48.0004         41.0004
  22975130.2464   -3628747.31143  -2815277.93842  22975129.9884   22975130.7104
        49.0004         42.0004
  23002753.3994   17144028.35043  13358270.96042  23002756.0254   23002753.1664
        49.0004         43.0004
  21875004.1464   16321723.49943  12719560.15342  21875005.7684   21875003.9404
        53.0004         46.0004
 04  6 18 16  3  0.0000000  0  8G22G21G18G 6G16G15G29G26
  22346667.5654   13351192.64543  10408632.15342  22346668.2334   22346665.0014
        53.0004         46.0004
  20700838.6894   15250549.84144  11891322.81742  20700839.5894   20700836.2284
        57.0004         50.0004
  20608817.1514   -2508555.55643  -1945238.81942  20608818.4484   20608815.4824
        56.0004         51.0004
  21021135.5904   17615935.37343  13725372.50842  21021136.9824   21021135.1604
        56.0004         49.0004
  23508366.5624   -1759635.20843  -1366267.40642  23508367.5554   23508365.5344
        48.0004         41.0004
  22966147.1884   -3675956.59343  -2852064.36342  22966148.3914   22966146.8534
        49.0004         42.0004
  23008946.2724   17176571.80243  13383629.48642  23008947.7744   23008946.0594
        49.0004         43.0004
  21878081.1224   16337893.89143  12732160.45542  21878082.9904   21878081.3434
        53.0004         46.0004
 04  6 18 16  3 20.0000000  0  8G22G21G18G 6G16G15G29G26
  22337023.1844   13300511.28443  10369140.22442  22337022.8184   22337020.0544
        53.0004         46.0004
  20698604.2324   15238808.45144  11882173.68542  20698605.1624   20698601.6764
        57.0004         50.0004
  20605247.6324   -2527313.69443  -1959855.53842  20605248.8514   20605245.5444
        56.0004         51.0004
  21029008.0654   17657305.32543  13757608.80642  21029009.4754   21029007.8184
        56.0004         49.0004
  23508081.4074   -1761133.71343  -1367435.08042  23508082.1614   23508081.1784
        48.0004         41.0004
  22957167.7604   -3723141.29143  -2888831.63042  22957169.3364   22957167.3784
        49.0004         42.0004
  23015181.9424   17209338.47643  13409161.94842  23015183.0014   23015181.2384
        49.0004         43.0004
  21881214.4034   16354358.53943  12744990.04042  21881216.2174   21881214.3014
        53.0004         46.0004
 04  6 18 16  3 40.0000000  0  8G22G21G18G 6G16G15G29G26
  22327405.8374   13249972.91043  10329759.71242  22327406.7714   22327403.6134
        53.0004         46.0004
  20696385.8954   15227151.38744  11873090.26142  20696386.9404   20696383.5904
        57.0004         50.0004
  20601714.6374   -2545879.69143  -1974322.53642  20601715.7664   20601712.7474
        56.0004         51.0004
  21036917.9934   17698871.84143  13789998.27242  21036919.4874   21036917.5964
        56.0004         49.0004
  23507840.0814   -1762399.27843  -1368421.27642  23507841.3304   23507840.9264
        48.0004         41.0004
  22948194.0714   -3770301.24343  -2925579.61342  22948194.6394   22948194.2094
        49.0004         42.0004
  23021459.4074   17242328.02743  13434868.08542  23021460.7864   23021459.5194
        49.0004         43.0004
  21884403.6164   16371117.35743  12758048.85542  21884405.3264   21884403.3454
        53.0004         46.0004
 04  6 18 16  4  0.0000000  0  8G22G21G18G 6G16G15G29G26
  22317815.1854   13199573.96843  10290487.83942  22317815.4754   22317812.8464
        53.0004         46.0004
  20694183.1074   15215575.33644  11864069.96642  20694184.0264   20694180.3554
        57.0004         50.0004
  20598217.2774   -2564257.41343  -1988642.82742  20598218.7584   20598215.2794
        56.0004         51.0004
  21044864.3784   17740630.66043  13822537.57542  21044865.8764   21044863.8914
        56.0004         49.0004
  23507643.2434   -1763435.91043  -1369229.04842  23507643.2904   23507643.4094
        48.0004         41.0004
  22939223.3854   -3817440.22043  -2962311.24642  22939224.6994   22939225.0064
        48.0004         42.0004
  23027778.5614   17275536.01443  13460744.42342  23027780.4094   23027777.6514
        49.0004         43.0004
  21887647.7404   16388166.08243  12771333.57542  21887649.7074   21887648.2624
        53.0004         46.0004
 04  6 18 16  4 20.0000000  0  8G22G21G18G 6G16G15G29G26
  22308251.7354   13149318.49943  10251327.77342  22308252.3204   22308248.8624
        53.0004         46.0004
  20691996.2664   15204083.97944  11855115.66942  20691997.4144   20691993.3894
        57.0004         50.0004
  20594756.7444   -2582443.22343  -2002813.57842  20594758.0074   20594754.7504
        56.0004         51.0004
  21052848.1234   17782585.10143  13855229.31542  21052849.5334   21052847.6694
        56.0004         49.0004
  23507490.6164   -1764240.24343  -1369855.84442  23507490.6364   23507488.2114
        48.0004         41.0004
  22930258.2424   -3864554.42643  -2999023.58842  22930258.7224   22930258.7614
        49.0004         42.0004
  23034140.0824   17308965.87043  13486793.64142  23034142.1634   23034140.0444
        49.0004         43.0004
  21890948.0394   16405508.34043  12784847.02042  21890949.5344   21890948.0454
        53.0004         46.0004
 04  6 18 16  4 40.0000000  0  8G22G21G18G 6G16G15G29G26
  22298715.7104   13099206.37243  10212279.40542  22298715.8124   22298712.9824
        53.0004         46.0004
  20689825.7644   15192676.72444  11846226.90542  20689826.8164   20689823.1674
        57.0004         50.0004
  20591332.5924   -2600437.42143  -2016835.02142  20591333.5954   20591330.5164
        56.0004         51.0004
  21060868.8744   17824734.61843  13888073.06142  21060870.3194   21060868.9524
        56.0004         49.0004
  23507381.4444   -1764812.56943  -1370301.84642  23507381.8484   23507379.9244
        48.0004         41.0004
  22921296.9934   -3911644.10543  -3035716.81442  22921297.5934   22921297.1744
        49.0004         42.0004
  23040543.9954   17342616.79143  13513015.12342  23040544.4794   23040543.5594
        49.0004         43.0004
  21894303.6594   16423143.70743  12798588.86242  21894305.0624   21894304.3904
        53.0004         46.0004
 04  6 18 16  5  0.0000000  0  8G22G21G18G 6G16G15G29G26
  22289206.6574   13049234.53143  10173340.34442  22289206.6414   22289203.4584
        53.0004         46.0004
  20687670.2714   15181350.52144  11837401.29842  20687671.3704   20687667.6294
        57.0004         50.0004
  20587944.0844   -2618243.69843  -2030710.03142  20587945.4954   20587942.3384
        56.0004         51.0004
  21068926.1104   17867075.28443  13921065.75142  21068927.5634   21068925.3964
        56.0004         49.0004
  23507316.0294   -1765156.57343  -1370569.93742  23507314.7074   23507317.5544
        48.0004         41.0004
  22912340.1194   -3958712.54643  -3072393.49242  22912340.0184   22912341.6934
        48.0004         42.0004
  23046988.4414   17376484.83743  13539405.79542  23046990.6854   23046989.0294
        49.0004         43.0004
  21897714.8434   16441068.46443  12812556.19942  21897716.4264   21897714.7934
        53.0004         46.0004
 04  6 18 16  5 20.0000000  0  8G22G21G18G 6G16G15G29G26
  22279725.2154   12999409.03943  10134515.32842  22279725.6684   22279722.4254
        53.0004         46.0004
  20685531.4654   15170111.23644  11828643.41942  20685532.6784   20685529.1434
        57.0004         50.0004
  20584592.7504   -2635856.35243  -2044434.16342  20584593.6394   20584590.8204
        56.0004         51.0004
  21077020.7604   17909612.74543  13954211.78742  21077022.0474   21077020.3874
        56.0004         49.0004
  23507294.4934   -1765266.57643  -1370655.68442  23507296.1484   23507294.5514
        48.0004         41.0004
  22903388.4104   -4005753.84243  -3109049.01142  22903390.5944   22903387.9534
        49.0004         42.0004
  23053475.7544   17410575.39443  13565969.85042  23053477.6944   23053476.7744
        49.0004         43.0004
  21901181.9234   16459288.24343  12826753.42642  21901183.7204   21901182.2444
        53.0004         46.0004
 04  6 18 16  5 40.0000000  0  8G22G21G18G 6G16G15G29G26
  22270270.5624   12949725.63443  10095801.02142  22270270.5994   22270267.4234
        53.0004         46.0004
  20683408.4444   15158954.85444  11819950.13542  20683409.6514   20683406.1004
        57.0004         50.0004
  20581276.9634   -2653279.74743  -2058010.82442  20581278.0954   20581274.9414
        56.0004         51.0004
  21085151.9284   17952342.07943  13987507.33342  21085153.2184   21085151.3524
        56.0004         49.0004
  23507318.1274   -1765147.45643  -1370562.90142  23507317.7334   23507317.1654
        48.0004         41.0004
  22894441.2124   -4052772.36143  -3145686.79342  22894442.4774   22894440.3804
        49.0004         42.0004
  23060004.5074   17444883.63643  13592703.53242  23060006.5784   23060004.0624
        49.0004         43.0004
  21904703.9684   16477798.34243  12841176.87742  21904705.9374   21904704.0054
        53.0004         46.0004
 04  6 18 16  6  0.0000000  0  8G22G21G18G 6G16G15G29G26
  22260842.8644   12900183.20743  10057196.56142  22260843.3594   22260839.8044
        53.0004         46.0004
  20681301.0714   15147880.16544  11811320.51042  20681302.3504   20681298.0784
        57.0004         50.0004
  20577997.1024   -2670515.43343  -2071441.21742  20577998.3584   20577995.2024
        56.0004         51.0004
  21093319.3754   17995261.61943  14020951.09442  21093320.8944   21093319.0334
        56.0004         49.0004
  23507383.6004   -1764800.52843  -1370292.60542  23507386.1364   23507383.2344
        48.0004         41.0004
  22885497.9124   -4099769.33943  -3182307.77242  22885497.8454   22885498.3504
        49.0004         42.0004
  23066574.1464   17479407.56943  13619605.28842  23066576.2374   23066573.6064
        49.0004         43.0004
  21908281.5274   16496597.22043  12855825.35842  21908283.6774   21908281.5884
        53.0004         46.0004
 04  6 18 16  6 20.0000000  0  8G22G21G18G 6G16G15G29G26
  22251443.0504   12850786.23043  10018705.43942  22251443.3204   22251440.4764
        53.0004         46.0004
  20679209.9694   15136891.32844  11802757.78242  20679210.9544   20679207.3914
        57.0004         50.0004
  20574753.7154   -2687559.37643  -2084722.20242  20574755.0564   20574751.9194
        56.0004         51.0004
  21101523.5494   18038375.06843  14054545.95142  21101525.0654   21101523.1874
        56.0004         49.0004
  23507493.6274   -1764222.04143  -1369841.86442  23507494.8144   23507492.8554
        48.0004         41.0004
  22876559.3904   -4146740.59343  -3218908.71942  22876559.8674   22876560.8654
        49.0004         42.0004
  23073185.7684   17514150.88443  13646677.99442  23073187.9434   23073186.8584
        49.0004         42.0004
  21911914.5084   16515688.59843  12870701.75942  21911916.5004   21911914.8374
        53.0004         46.0004
 04  6 18 16  6 40.0000000  0  8G22G21G18G 6G16G15G29G26
  22242070.8084   12801535.75043   9980328.47842  22242071.3964   22242067.8654
        53.0004         46.0004
  20677135.3734   15125989.47843  11794262.84042  20677136.4124   20677132.8694
        56.0004         50.0004
  20571547.0604   -2704410.77543  -2097853.14742  20571548.3584   20571545.2254
        56.0004         51.0004
  21109764.8004   18081682.87643  14088292.26142  21109766.2204   21109764.4124
        56.0004         49.0004
  23507648.3364   -1763411.27943  -1369210.14742  23507649.5374   23507647.4444
        48.0004         41.0004
  22867626.4754   -4193685.27943  -3255488.96942  22867625.7414   22867626.4154
        49.0004         42.0004
  23079838.9914   17549113.96843  13673921.94242  23079840.4584   23079840.1204
        49.0004         43.0004
  21915603.0634   16535073.16143  12885806.61842  21915604.9014   21915602.8914
        53.0004         46.0004
 04  6 18 16  7  0.0000000  0  8G22G21G18G 6G16G15G29G26
  22232725.2284   12752425.14043   9942060.49642  22232725.3254   22232722.6254
        53.0004         46.0004
  20675076.1974   15115168.32844  11785830.77942  20675077.1984   20675073.6184
        57.0004         50.0004
  20568375.5374   -2721076.46543  -2110839.38742  20568376.9284   20568373.7854
        56.0004         51.0004
  21118041.5794   18125177.96243  14122184.50042  21118042.9454   21118041.0224
        56.0004         49.0004
  23507845.1084   -1762375.21943  -1368402.86342  23507846.8454   23507844.7454
        48.0004         41.0004
  22858697.0424   -4240610.07643  -3292053.71742  22858697.3644   22858696.6504
        49.0004         42.0004
  23086532.2844   17584289.58743  13701331.51642  23086533.3584   23086531.9514
        49.0004         43.0004
  21919346.3564   16554743.95643  12901134.51642  21919348.2154   21919346.6214
        53.0004         46.0004
 04  6 18 16  7 20.0000000  0  8G22G21G18G 6G16G15G29G26
  22223408.1084   12703462.34343   9903907.70442  22223408.7944   22223406.1664
        53.0004         46.0004
  20673033.7154   15104434.92644  11777467.09542  20673034.8214   20673031.0634
        57.0004         50.0004
  20565241.0934   -2737549.14843  -2123675.23242  20565242.0454   20565238.9024
        56.0004         51.0004
  21126355.4464   18168867.47843  14156228.24542  21126357.1784   21126355.3934
        56.0004         49.0004
  23508086.7344   -1761106.51743  -1367414.30242  23508088.6934   23508086.6574
        47.0004         41.0004
  22849772.9334   -4287507.43143  -3328597.08042  22849772.9014   22849773.4894
        49.0004         42.0004
  23093268.1394   17619684.84243  13728912.21342  23093270.1264   23093269.1324
        49.0004         43.0004
  21923145.1884   16574708.30243  12916691.15342  21923147.0404   21923146.3484
        52.0004         46.0004
 04  6 18 16  7 40.0000000  0  8G22G21G18G 6G16G15G29G26
  22214118.0444   12654643.83843   9865867.34342  22214118.3104   22214115.2594
        53.0004         46.0004
  20671007.3984   15093786.02444  11769169.25042  20671008.5534   20671004.7354
        57.0004         50.0004
  20562142.3194   -2753832.59343  -2136363.61542  20562143.5064   20562140.2434
        56.0004         51.0004
  21134705.7364   18212747.31843  14190420.29242  21134707.1734   21134705.1554
        56.0004         49.0004
  23508371.7314   -1759609.30743  -1366247.66942  23508373.3054   23508369.3184
        47.0004         41.0004
  22840852.7724   -4334381.02043  -3365121.93142  22840853.6854   22840853.4464
        49.0004         42.0004
  23100044.2764   17655295.41143  13756660.68442  23100045.5484   23100045.7194
        49.0004         43.0004
  21926999.3394   16594962.15743  12932473.37742  21927001.1224   21926999.9234
        52.0004         46.0004
 04  6 18 16  8  0.0000000  0  8G22G21G18G 6G16G15G29G26
  22204856.0844   12605970.50943   9827940.10242  22204856.6934   22204853.3634
        53.0004         46.0004
  20668997.2574   15083222.76244  11760938.14342  20668998.1494   20668994.6844
        57.0004         50.0004
  20559079.9054   -2769926.44443  -2148904.26742  20559081.0324   20559078.0644
        56.0004         51.0004
  21143092.0374   18256817.68743  14224760.80942  21143093.3714   21143091.6954
        56.0004         49.0004
  23508700.0314   -1757883.17343  -1364902.66442  23508701.8624   23508698.7664
        48.0004         41.0004
  22831937.7824   -4381229.93143  -3401627.54542  22831938.5964   22831938.1224
        49.0004         43.0004
  23106862.2314   17691121.44543  13784577.06042  23106862.3294   23106861.8954
        49.0004         43.0004
  21930908.9674   16615505.72843  12948481.35542  21930910.6474   21930909.4304
        52.0004         46.0004
 04  6 18 16  8 20.0000000  0  8G22G21G18G 6G16G15G29G26
  22195621.1614   12557442.23343   9790125.89842  22195621.7904   22195618.3454
        53.0004         46.0004
  20667003.2444   15072744.28044  11752773.09442  20667004.2094   20667000.5424
        57.0004         50.0004
  20556053.3404   -2785830.86343  -2161297.30742  20556054.4814   20556051.2774
        56.0004         51.0004
  21151514.3894   18301077.78543  14259249.16342  21151515.8014   21151514.3014
        56.0004         49.0004
  23509072.3294   -1755928.60343  -1363379.66942  23509071.6554   23509071.5654
        48.0004         41.0004
  22823027.2504   -4428054.59543  -3438114.26642  22823027.5894   22823026.5814
        49.0004         42.0004
  23113720.4414   17727162.07443  13812660.65442  23113722.9484   23113721.0234
        49.0004         43.0004
  21934873.5694   16636338.52843  12964714.70542  21934874.5604   21934873.9734
        52.0004         46.0004
 04  6 18 16  8 40.0000000  0  8G22G21G18G 6G16G15G29G26
  22186414.3044   12509058.84043   9752424.58442  22186414.7904   22186411.6314
        53.0004         46.0004
  20665025.3794   15062350.70544  11744674.21342  20665026.4834   20665022.8124
        57.0004         50.0004
  20553062.6304   -2801546.58843  -2173543.31342  20553064.0664   20553060.6534
        56.0004         51.0004
  21159972.7494   18345526.95043  14293884.84242  21159974.1194   21159972.7274
        56.0004         49.0004
  23509487.7664   -1753746.20043  -1361679.12842  23509487.8844   23509487.4714
        48.0004         41.0004
  22814121.5704   -4474855.11243  -3474582.18442  22814123.0364   22814121.1434
        49.0004         43.0004
  23120619.2574   17763416.53843  13840910.86842  23120619.3094   23120620.5664
        49.0004         43.0004
  21938892.2994   16657459.77143  12981172.82342  21938894.0334   21938892.5014
        52.0004         46.0004
 04  6 18 16  9  0.0000000  0  8G22G21G18G 6G16G15G29G26
  22177235.8674   12460826.53343   9714841.00042  22177236.1414   22177233.1694
        53.0004         46.0004
  20663065.0784   15052048.36844  11736646.41842  20663065.7704   20663062.4934
        57.0004         50.0004
  20550109.1204   -2817067.86743  -2185637.80642  20550110.4234   20550107.1014
        56.0004         51.0004
  21168468.2384   18390170.71343  14328672.15642  21168469.7504   21168468.0304
        56.0004         49.0004
  23509947.6074   -1751330.23343  -1359796.59942  23509947.4494   23509946.9874
        48.0004         41.0004
  22805220.9404   -4521625.41443  -3511026.54842  22805222.1814   22805220.2684
        49.0004         42.0004
  23127560.2824   17799890.08143  13869331.79442  23127561.0544   23127560.1454
        49.0004         42.0004
  21942967.5064   16678875.38343  12997860.31942  21942969.9984   21942967.6664
        52.0004         46.0004
 04  6 18 16  9 20.0000000  0  8G22G21G18G 6G16G15G29G26
  22168083.7244   12412731.35643   9677364.27542  22168083.7584   22168080.3804
        53.0004         46.0004
  20661119.0234   15041823.14544  11728678.71942  20661120.0714   20661116.6194
        57.0004         50.0004
  20547189.7984   -2832408.99143  -2197591.91242  20547191.0834   20547187.7904
        56.0004         51.0004
  21176998.0094   18434994.45943  14363599.72342  21176999.2024   21176997.9584
        56.0004         49.0004
  23510449.2034   -1748695.30743  -1357743.43942  23510449.8884   23510448.2534
        48.0004         41.0004
  22796324.2314   -4568379.81843  -3547458.53842  22796324.6244   22796324.1354
        49.0004         42.0004
  23134539.7364   17836568.16943  13897912.11742  23134541.7854   23134539.2364
        49.0004         43.0004
  21947095.9814   16700570.52843  13014765.63042  21947098.1284   21947096.7124
        52.0004         46.0004
 04  6 18 16  9 40.0000000  0  8G22G21G18G 6G16G15G29G26
  22158959.9314   12364785.83143   9640004.15942  22158960.5304   22158956.7674
        53.0004         46.0004
  20659190.3454   15031687.61744  11720780.91042  20659191.4254   20659187.5604
        57.0004         50.0004
  20544307.1754   -2847557.69143  -2209396.07942  20544308.3364   20544305.1344
        56.0004         51.0004
  21185564.1854   18480010.06143  14398676.78442  21185565.7004   21185563.6514
        56.0004         49.0004
  23510994.2524   -1745829.28943  -1355510.22142  23510994.2354   23510992.3874
        48.0004         41.0004
  22787432.5754   -4615105.85143  -3583868.39442  22787433.2614   22787431.9234
        49.0004         42.0004
  23141560.6114   17873462.59143  13926661.01542  23141562.7404   23141560.2744
        49.0004         43.0004
  21951280.0914   16722557.45443  13031898.30042  21951281.7374   21951280.0854
        52.0004         46.0004
 04  6 18 16 10  0.0000000  0  8G22G21G18G 6G16G15G29G26
  22149864.2754   12316987.33843   9602758.61642  22149864.8084   22149861.3854
        53.0004         47.0004
  20657278.1874   15021639.07844  11712950.88542  20657279.1864   20657275.5454
        57.0004         50.0004
  20541460.6054   -2862516.82743  -2221052.53542  20541461.7034   20541458.2694
        56.0004         51.0004
  21194166.2684   18525214.30943  14433900.84942  21194167.5734   21194166.0974
        56.0004         49.0004
  23511583.0744   -1742735.30843  -1353099.36442  23511582.6774   23511583.3174
        48.0004         41.0004
  22778545.8974   -4661806.15743  -3620258.22842  22778546.8264   22778545.1244
        49.0004         42.0004
  23148621.7504   17910569.97943  13955575.84642  23148623.2994   23148621.8924
        49.0004         43.0004
  21955519.3034   16744832.92343  13049255.81742  21955521.3844   21955518.9194
        52.0004         46.0004
 04  6 18 16 10 20.0000000  0  8G22G21G18G 6G16G15G29G26
  22140796.1694   12269334.88143   9565626.86542  22140796.3434   22140793.7944
        53.0004         47.0004
  20655382.4404   15011676.21544  11705187.61842  20655383.3344   20655379.8634
        57.0004         50.0004
  20538649.4844   -2877288.10143  -2232562.60742  20538650.8174   20538647.3934
        56.0004         51.0004
  21202804.1404   18570605.62143  14469270.67142  21202805.2944   21202803.3044
        56.0004         49.0004
  23512215.2314   -1739414.87743  -1350512.05842  23512217.3914   23512214.4774
        48.0004         41.0004
  22769664.0594   -4708481.85143  -3656628.89842  22769664.4344   22769663.2694
        49.0004         42.0004
  23155723.4774   17947888.53843  13984655.23442  23155723.9734   23155724.6794
        49.0004         43.0004
  21959812.6984   16767395.45043  13066837.00642  21959814.6394   21959812.8364
        52.0004         46.0004
 04  6 18 16 10 40.0000000  0  8G22G21G18G 6G16G15G29G26
  22131755.9714   12221828.13643   9528608.65942  22131756.4664   22131753.2634
        53.0004         46.0004
  20653502.7884   15001799.00244  11697491.09542  20653503.7074   20653500.0054
        57.0004         50.0004
  20535874.1474   -2891871.88343  -2243926.57842  20535875.5914   20535872.1544
        56.0004         51.0004
  21211477.0874   18616183.05043  14504785.52842  21211478.6184   21211476.8874
        56.0004         49.0004
  23512889.7804   -1735868.80443  -1347748.93042  23512890.2574   23512888.7044
        47.0004         41.0004
  22760786.2234   -4755133.43743  -3692980.75042  22760787.4514   22760786.2674
        49.0004         42.0004
  23162865.0274   17985417.37543  14013898.46642  23162865.1594   23162864.9824
        49.0004         43.0004
  21964160.7474   16790244.14943  13084641.19142  21964162.6604   21964161.2214
        52.0004         46.0004
 04  6 18 16 11  0.0000000  0  8G22G21G18G 6G16G15G29G26
  22122743.9284   12174470.20243   9491706.40942  22122744.7944   22122741.0744
        53.0004         46.0004
  20651640.0984   14992010.13344  11689863.40842  20651641.0894   20651637.4024
        57.0004         50.0004
  20533135.2264   -2906265.50143  -2255142.36942  20533136.7214   20533133.3164
        56.0004         51.0004
  21220186.1124   18661948.92043  14540447.21342  21220187.3724   21220185.7664
        56.0004         49.0004
  23513607.5114   -1732094.42143  -1344807.88542  23513608.9864   23513609.0404
        48.0004         41.0004
  22751913.4324   -4801758.00543  -3729311.56842  22751914.1434   22751914.2414
        49.0004         42.0004
  23170046.8654   18023158.55643  14043307.16942  23170049.1024   23170048.0014
        49.0004         43.0004
  21968563.1914   16813381.44943  13102670.25042  21968564.6724   21968563.8114
        51.0004         46.0004
 04  6 18 16 11 20.0000000  0  8G22G21G18G 6G16G15G29G26
  22113760.1754   12127260.28443   9454919.50142  22113759.9774   22113757.6204
        53.0004         47.0004
  20649793.9674   14982308.83244  11682303.95442  20649794.8374   20649791.1514
        57.0004         50.0004
  20530432.1434   -2920470.42643  -2266211.13042  20530433.5184   20530430.1824
        56.0004         51.0004
  21228930.5204   18707901.80943  14576254.63642  21228932.0114   21228930.1844
        56.0004         49.0004
  23514369.6594   -1728093.10443  -1341690.02542  23514369.9524   23514368.4554
        48.0004         41.0004
  22743046.3194   -4848356.51743  -3765622.06142  22743046.6444   22743047.1614
        49.0004         42.0004
  23177268.4924   18061110.56143  14072880.14442  23177270.2334   23177269.7864
        49.0004         43.0004
  21973020.9564   16836805.97643  13120923.13042  21973022.4514   21973021.0234
        52.0004         46.0004
 04  6 18 16 11 40.0000000  0  8G22G21G18G 6G16G15G29G26
  22104804.2864   12080195.62743   9418245.77942  22104804.4394   22104801.3204
        54.0004         46.0004
  20647964.1044   14972692.54244  11674810.74342  20647965.0604   20647961.3924
        57.0004         50.0004
  20527764.4214   -2934489.36843  -2277134.96742  20527765.7904   20527762.3664
        56.0004         51.0004
  21237710.0824   18754038.36543  14612205.17042  21237711.7044   21237710.3894
        55.0004         49.0004
  23515173.6564   -1723868.13543  -1338397.88342  23515174.2414   23515174.5914
        48.0004         41.0004
  22734183.1204   -4894931.73043  -3801914.42042  22734184.9874   22734183.8124
        49.0004         42.0004
  23184530.1284   18099270.12143  14102614.83942  23184531.1824   23184531.8164
        49.0004         42.0004
  21977532.2874   16860514.58243  13139397.36842  21977534.6604   21977532.7424
        52.0004         46.0004
 04  6 18 16 12  0.0000000  0  8G22G21G18G 6G16G15G29G26
  22095876.7914   12033281.52143   9381689.36942  22095877.1024   22095873.6764
        54.0004         47.0004
  20646151.3174   14963166.51444  11667387.86942  20646152.3564   20646148.7194
        57.0004         50.0004
  20525132.9984   -2948317.45943  -2287910.09042  20525134.2344   20525131.0634
        56.0004         51.0004
  21246525.4184   18800363.22643  14648302.43842  21246526.6854   21246525.1014
        55.0004         49.0004
  23516021.2164   -1719414.74543  -1334927.74742  23516022.0064   23516020.3174
        48.0004         41.0004
  22725325.6374   -4941478.43243  -3838184.55942  22725326.2284   22725325.2764
        49.0004         42.0004
  23191832.3924   18137641.57343  14132514.65442  23191833.6594   23191830.8114
        49.0004         42.0004
  21982099.0444   16884511.98743  13158096.64542  21982100.7834   21982098.6654
        51.0004         45.0004
 04  6 18 16 12 20.0000000  0  8G22G21G18G 6G16G15G29G26
  22086976.7444   11986512.43743   9345245.95842  22086976.7774   22086973.3244
        54.0004         46.0004
  20644354.6274   14953725.34144  11660031.11442  20644355.5594   20644352.0034
        57.0004         50.0004
  20522536.9254   -2961960.80943  -2298541.25742  20522538.0094   20522534.7354
        56.0004         51.0004
  21255375.3234   18846870.42343  14684541.78342  21255376.8634   21255375.4774
        55.0004         49.0004
  23516910.6334   -1714738.81143  -1331284.20542  23516912.3934   23516909.8964
        48.0004         41.0004
  22716472.2264   -4988002.27043  -3874436.87542  22716472.6814   22716471.9094
        49.0004         42.0004
  23199173.1824   18176218.76343  14162574.79242  23199175.2954   23199174.9294
        49.0004         43.0004
  21986719.7314   16908792.02543  13177016.15942  21986720.9344   21986720.0734
        52.0004         45.0004
 04  6 18 16 12 40.0000000  0  8G22G21G18G 6G16G15G29G26
  22078105.1734   11939892.35843   9308918.66242  22078105.8344   22078102.2224
        54.0004         47.0004
  20642574.8384   14944372.48144  11652743.16942  20642575.9644   20642572.2394
        57.0004         50.0004
  20519976.3424   -2975415.69743  -2309025.57342  20519977.7694   20519974.2604
        56.0004         51.0004
  21264260.8404   18893563.04543  14720925.61242  21264262.2424   21264260.6694
        55.0004         48.0004
  23517843.8984   -1709837.04143  -1327464.67542  23517844.4494   23517843.6844
        48.0004         41.0004
  22707624.2964   -5034499.52943  -3910668.47742  22707624.4164   22707624.7974
        49.0004         43.0004
  23206554.0294   18215004.88043  14192797.73242  23206556.3644   23206553.8244
        49.0004         42.0004
  21991394.5194   16933358.21443  13196158.63742  21991396.1874   21991394.1854
        52.0004         45.0004
 04  6 18 16 13  0.0000000  0  8G22G21G18G 6G16G15G29G26
  22069262.6254   11893424.41443   9272709.91742  22069262.9324   22069259.8114
        54.0004         46.0004
  20640812.5954   14935111.48144  11645526.80942  20640813.5734   20640810.0964
        57.0004         50.0004
  20517452.6414   -2988679.37643  -2319360.89242  20517453.7804   20517450.0964
        56.0004         51.0004
  21273181.8904   18940443.60443  14757455.89242  21273183.2704   21273181.4014
        55.0004         48.0004
  23518820.2194   -1704706.73743  -1323467.06942  23518819.9684   23518819.0764
        48.0004         41.0004
  22698782.2924   -5080967.16143  -3946877.00442  22698783.9364   22698781.8924
        49.0004         42.0004
  23213974.9224   18254002.25243  14223185.28442  23213977.1854   23213976.5414
        49.0004         42.0004
  21996123.9764   16958212.95643  13215525.96442  21996126.4534   21996124.0114
        52.0004         45.0004
 04  6 18 16 13 20.0000000  0  8G22G21G18G 6G16G15G29G26
  22060447.0574   11847098.43543   9236611.79842  22060447.3484   22060444.5724
        54.0004         47.0004
  20639065.6364   14925932.14544  11638374.08642  20639066.8874   20639063.2704
        57.0004         50.0004
  20514962.8774   -3001762.16543  -2329555.25942  20514963.9504   20514960.9724
        56.0004         51.0004
  21282136.6674   18987501.41943  14794124.29542  21282138.0214   21282136.2384
        55.0004         48.0004
  23519837.8064   -1699358.44843  -1319299.59442  23519838.1834   23519836.1454
        48.0004         41.0004
  22689942.8524   -5127415.29743  -3983070.32442  22689943.5234   22689942.5764
        49.0004         42.0004
  23221434.0284   18293200.13043  14253729.08042  23221435.5494   23221434.8554
        48.0004         42.0004
  22000906.8134   16983345.77643  13235109.98342  22000908.4064   22000905.9114
        52.0004         45.0004
 04  6 18 16 13 40.0000000  0  8G22G21G18G 6G16G15G29G26
  22051660.9104   11800925.77043   9200633.13642  22051660.4154   22051658.3154
        54.0004         47.0004
  20637336.6934   14916845.63944  11631293.69342  20637337.3424   20637333.9354
        57.0004         50.0004
  20512509.6974   -3014653.19143  -2339600.20042  20512511.1254   20512507.7064
        56.0004         51.0004
  21291127.2884   19034747.22843  14830939.18742  21291128.4364   21291127.0984
        55.0004         48.0004
  23520898.7864   -1693781.44843  -1314953.92542  23520898.8324   23520900.1204
        48.0004         41.0004
  22681110.1734   -5173832.60443  -4019239.62942  22681111.9934   22681109.7524
        49.0004         43.0004
  23228933.3314   18332609.08443  14284437.34442  23228934.7044   23228934.4254
        49.0004         42.0004
  22005744.2144   17008767.33743  13254918.99142  22005745.6124   22005744.3684
        52.0004         45.0004
 04  6 18 16 14  0.0000000  0  8G22G21G18G 6G16G15G29G26
  22042902.3134   11754900.82243   9164769.58442  22042903.0194   22042899.4694
        54.0004         47.0004
  20635624.2184   14907846.51344  11624281.38742  20635625.2314   20635621.5914
        57.0004         50.0004
  20510092.1334   -3027358.42243  -2349500.36642  20510093.0814   20510089.7874
        56.0004         51.0004
  21300152.4234   19082174.79343  14867895.70442  21300154.0274   21300152.3574
        55.0004         48.0004
  23522002.8984   -1687981.79743  -1310434.75942  23522003.2784   23522001.5834
        48.0004         41.0004
  22672281.7944   -5220224.81543  -4055389.38842  22672282.1854   22672281.4474
        49.0004         42.0004
  23236471.4294   18372222.69043  14315305.06242  23236472.0344   23236472.9864
        49.0004         42.0004
  22010635.1664   17034471.42043  13274948.14142  22010637.3804   22010635.0944
        52.0004         45.0004
 04  6 18 16 14 20.0000000  0  8G22G21G18G 6G16G15G29G26
  22034172.2834   11709023.58543   9129021.12942  22034172.9814   22034169.2554
        54.0004         47.0004
  20633928.3844   14898934.56544  11617337.01442  20633929.4104   20633925.8574
        57.0004         50.0004
  20507709.3324   -3039878.47743  -2359256.23742  20507710.8874   20507707.3134
        56.0004         51.0004
  21309211.9914   19129783.27343  14904993.19242  21309213.4934   21309211.8104
        55.0004         48.0004
  23523148.7874   -1681960.19443  -1305742.63242  23523150.4314   23523148.5924
        48.0004         41.0004
  22663458.5364   -5266592.16343  -4091519.76142  22663459.0524   22663457.8854
        49.0004         42.0004
  23244048.9434   18412039.94943  14346331.47242  23244050.4024   23244048.1524
        49.0004         42.0004
  22015580.5254   17060457.31643  13295196.88942  22015581.2914   22015580.0264
        52.0004         45.0004
 04  6 18 16 14 40.0000000  0  8G22G21G18G 6G16G15G29G26
  22025470.7204   11663296.95543   9093390.03042  22025470.6734   22025467.7084
        54.0004         47.0004
  20632249.7524   14890112.97144  11610463.05042  20632250.8474   20632247.1254
        57.0004         50.0004
  20505362.9284   -3052210.78843  -2368865.81642  20505363.9594   20505360.6694
        56.0004         51.0004
  21318306.4824   19177575.00443  14942233.47342  21318308.0654   21318306.2044
        55.0004         48.0004
  23524336.9174   -1675714.12543  -1300875.60542  23524337.6384   23524336.6674
        48.0004         41.0004
  22654640.5214   -5312931.66543  -4127628.44942  22654640.3334   22654640.5474
        49.0004         42.0004
  23251665.1714   18452063.42443  14377518.59042  23251666.2654   23251666.5614
        49.0004         42.0004
  22020579.3784   17086727.47743  13315667.13642  22020581.4104   22020579.4484
        51.0004         45.0004
 04  6 18 16 15  0.0000000  0  8G22G21G18G 6G16G15G29G26
  22016797.7484   11617720.64143   9057876.06242  22016798.3194   22016794.6674
        54.0004         47.0004
  20630587.9674   14881381.19144  11603659.07142  20630588.8944   20630585.3684
        57.0004         50.0004
  20503051.6524   -3064355.78743  -2378329.44042  20503052.8664   20503049.3384
        56.0004         51.0004
  21327435.7394   19225549.12443  14979615.88042  21327437.3904   21327435.4474
        55.0004         48.0004
  23525569.0374   -1669244.38743  -1295834.28242  23525570.6764   23525569.0484
        48.0004         41.0004
  22645827.5354   -5359243.80943  -4163715.81142  22645828.4204   22645826.6784
        49.0004         42.0004
  23259320.4734   18492291.94343  14408865.47342  23259323.1224   23259318.9674
        49.0004         42.0004
  22025632.4064   17113281.07143  13336358.25042  22025633.8514   22025632.4934
        52.0004         45.0004
 04  6 18 16 15 20.0000000  0  8G22G21G18G 6G16G15G29G26
  22008152.9234   11572291.93643   9022477.10842  22008153.2944   22008149.5574
        54.0004         47.0004
  20628942.9334   14872735.99944  11596922.55742  20628944.0214   20628940.2994
        57.0004         50.0004
  20500775.5154   -3076316.76343  -2387649.66642  20500776.5954   20500773.3074
        56.0004         51.0004
  21336598.7994   19273702.22743  15017137.75242  21336600.4554   21336598.6034
        55.0004         48.0004
  23526841.4104   -1662554.40543  -1290621.35142  23526842.7794   23526841.2184
        48.0004         41.0004
  22637019.6674   -5405531.46243  -4199784.10142  22637020.1654   22637017.5544
        49.0004         42.0004
  23267013.8474   18532721.83743  14440369.26842  23267014.6504   23267013.3894
        49.0004         42.0004
  22030738.5854   17140114.66743  13357267.54342  22030740.7534   22030738.6304
        52.0004         45.0004
 04  6 18 16 15 40.0000000  0  8G22G21G18G 6G16G15G29G26
  21999536.9794   11527014.55943   8987196.07642  21999537.3634   21999533.5864
        54.0004         47.0004
  20627315.3024   14864182.21244  11590257.27342  20627316.0684   20627312.5384
        57.0004         50.0004
  20498535.2894   -3088090.26443  -2396823.81142  20498536.5024   20498532.9114
        56.0004         51.0004
  21345796.7014   19322037.40843  15054801.50242  21345798.3884   21345796.7374
        55.0004         48.0004
  23528157.3034   -1655640.98043  -1285234.29842  23528158.7724   23528156.5274
        47.0004         41.0004
  22628216.0404   -5451790.90043  -4235830.39542  22628218.1534   22628215.6474
        49.0004         42.0004
  23274746.2054   18573356.23543  14472032.42042  23274748.1764   23274745.6014
        49.0004         42.0004
  22035898.7964   17167231.53843  13378397.56042  22035900.5344   22035899.5494
        51.0004         45.0004
 04  6 18 16 16  0.0000000  0  8G22G21G18G 6G16G15G29G26
  21990949.8044   11481888.78943   8952033.17742  21990950.3704   21990946.8574
        54.0004         47.0004
  20625704.8414   14855719.77644  11583663.16842  20625705.9554   20625702.2044
        57.0004         50.0004
  20496330.3554   -3099676.34343  -2405851.91142  20496331.7304   20496328.1124
        56.0004         51.0004
  21355029.3494   19370554.31943  15092606.85742  21355030.6934   21355029.1974
        55.0004         48.0004
  23529514.2944   -1648504.13343  -1279673.15842  23529516.3514   23529515.6224
        48.0004         41.0004
  22619419.0214   -5498021.80443  -4271854.47042  22619420.7934   22619418.9754
        50.0004         43.0004
  23282517.2114   18614194.66543  14503854.55942  23282520.8604   23282518.9654
        48.0004         42.0004
  22041112.9384   17194631.27943  13399748.00542  22041114.8054   22041113.6904
        52.0004         45.0004
 04  6 18 16 16 20.0000000  0  8G22G21G18G 6G16G15G29G26
  21982389.9944   11436908.24643   8916983.44342  21982390.6484   21982387.2294
        54.0004         47.0004
  20624110.4954   14847342.13143  11577135.13542  20624111.4384   20624108.0274
        56.0004         50.0004
  20494159.9754   -3111081.69443  -2414739.18742  20494161.1654   20494157.6884
        56.0004         51.0004
  21364295.1364   19419245.85243  15130548.28442  21364296.4114   21364295.2674
        55.0004         48.0004
  23530914.6594   -1641150.90343  -1273943.40642  23530916.0894   23530915.2674
        48.0004         41.0004
  22610625.5714   -5544230.77043  -4307861.43442  22610625.0084   22610625.2364
        49.0004         42.0004
  23290326.4144   18655229.97343  14535830.11342  23290328.0314   23290327.1154
        48.0004         42.0004
  22046379.3164   17222306.79143  13421313.34142  22046381.4864   22046379.6604
        52.0004         45.0004
 04  6 18 16 16 40.0000000  0  8G22G21G18G 6G16G15G29G26
  21973860.4124   11392083.76543   8882055.31642  21973860.6524   21973857.2264
        54.0004         47.0004
  20622534.7724   14839060.38144  11570681.82242  20622535.5084   20622532.0124
        57.0004         50.0004
  20492026.0454   -3122295.73043  -2423477.38542  20492027.2274   20492023.7034
        56.0004         51.0004
  21373595.7734   19468122.21243  15168633.72842  21373597.4204   21373596.0554
        55.0004         48.0004
  23532356.8174   -1633570.95143  -1268036.98742  23532358.3434   23532357.2824
        48.0004         41.0004
  22601838.1024   -5590407.04443  -4343842.91042  22601839.2834   22601838.8184
        49.0004         43.0004
  23298173.8794   18696472.21243  14567966.89842  23298173.8694   23298173.4994
        48.0004         42.0004
  22051700.3994   17250268.47743  13443101.66642  22051702.2934   22051700.0874
        51.0004         45.0004
 04  6 18 16 17  0.0000000  0  8G22G21G18G 6G16G15G29G26
  21965358.7314   11347407.07743   8847242.34842  21965358.9834   21965354.7544
        54.0004         47.0004
  20620975.2964   14830866.07444  11564296.65042  20620976.1534   20620972.6594
        57.0004         50.0004
  20489926.8184   -3133327.21643  -2432073.33842  20489927.9924   20489924.5234
        56.0004         51.0004
  21382930.2424   19517174.75943  15206856.46542  21382931.5454   21382929.9164
        55.0004         48.0004
  23533840.8914   -1625773.10143  -1261960.77342  23533842.7114   23533842.2134
        48.0004         41.0004
  22593056.5034   -5636558.73643  -4379805.26742  22593056.4604   22593056.8984
        49.0004         43.0004
  23306059.9574   18737912.63243  14600258.11642  23306063.0524   23306061.3904
        48.0004         42.0004
  22057073.9804   17278507.48943  13465106.08642  22057075.2994   22057074.3624
        52.0004         45.0004
 04  6 18 16 17 20.0000000  0  8G22G21G18G 6G16G15G29G26
  21956885.2714   11302879.70543   8812545.73142  21956885.6664   21956882.2344
        54.0004         47.0004
  20619432.9764   14822760.80743  11557980.85742  20619433.8204   20619430.3934
        56.0004         50.0004
  20487862.5174   -3144175.06443  -2440526.19942  20487863.7064   20487859.9784
        56.0004         51.0004
  21392298.4404   19566404.03343  15245216.90842  21392299.8044   21392298.3274
        55.0004         48.0004
  23535366.4154   -1617756.34443  -1255714.00342  23535366.4734   23535365.8904
        48.0004         41.0004
  22584278.2294   -5682684.50943  -4415747.39742  22584279.7184   22584278.7364
        49.0004         43.0004
  23313983.8284   18779551.71543  14632704.12442  23313985.0814   23313984.1954
        48.0004         42.0004
  22062500.5584   17307024.74343  13487327.31642  22062501.7894   22062500.8444
        51.0004         45.0004
 04  6 18 16 17 40.0000000  0  8G22G21G18G 6G16G15G29G26
  21948441.2554   11258505.88443   8777968.76542  21948441.6234   21948438.2024
        54.0004         47.0004
  20617908.2544   14814748.66744  11551737.63242  20617909.3234   20617905.3934
        57.0004         50.0004
  20485833.8954   -3154835.57043  -2448833.07942  20485835.1984   20485831.3914
        56.0004         51.0004
  21401700.7644   19615813.62643  15283717.85942  21401701.7664   21401700.7494
        55.0004         48.0004
  23536934.2514   -1609516.99443  -1249293.76842  23536935.0354   23536934.6514
        48.0004         41.0004
  22575506.9764   -5728780.22043  -4451666.10942  22575508.2544   22575507.5124
        50.0004         43.0004
  23321946.0374   18821392.69443  14665307.46142  23321947.8164   23321945.9994
        48.0004         42.0004
  22067980.6014   17335823.69043  13509768.04442  22067982.2724   22067980.9704
        51.0004         45.0004
 04  6 18 16 18  0.0000000  0  8G22G21G18G 6G16G15G29G26
  21940025.7854   11214282.48843   8743509.01542  21940025.8584   21940022.6054
        54.0004         47.0004
  20616400.6934   14806826.31944  11545564.37542  20616401.4584   20616398.2894
        57.0004         50.0004
  20483840.2724   -3165312.14543  -2456996.63542  20483841.4644   20483838.0844
        56.0004         51.0004
  21411136.6754   19665400.04743  15322356.59442  21411138.5024   21411136.4254
        55.0004         48.0004
  23538544.1704   -1601058.65843  -1242702.89842  23538544.6324   23538544.3764
        49.0004         41.0004
  22566740.0594   -5774848.84443  -4487563.71442  22566741.6424   22566740.5814
        50.0004         43.0004
  23329945.9904   18863432.11243  14698065.43442  23329947.4374   23329945.1924
        48.0004         42.0004
  22073514.2614   17364900.69843  13532425.44642  22073515.5834   22073514.2324
        52.0004         45.0004
 04  6 18 16 18 20.0000000  0  8G22G21G18G 6G16G15G29G26
  21931638.9564   11170209.94343   8709166.81042  21931639.3094   21931636.0684
        55.0004         47.0004
  20614910.3844   14798994.61644  11539461.74842  20614911.5054   20614907.6544
        57.0004         50.0004
  20481881.6864   -3175604.59343  -2465016.71742  20481882.7024   20481879.3504
        56.0004         51.0004
  21420606.2424   19715162.73043  15361132.67642  21420607.9374   21420606.1864
        55.0004         48.0004
  23540194.8304   -1592381.56543  -1235941.54842  23540197.1574   23540195.1124
        48.0004         41.0004
  22557978.6164   -5820890.14143  -4523440.04542  22557978.8124   22557979.6374
        49.0004         43.0004
  23337983.4024   18905669.64543  14730977.77842  23337984.7984   23337984.2674
        49.0004         42.0004
  22079100.2224   17394255.53343  13555299.34142  22079102.1434   22079099.8564
        52.0004         45.0004
 04  6 18 16 18 40.0000000  0  8G22G21G18G 6G16G15G29G26
  21923280.7234   11126287.11543   8674941.26542  21923280.7904   21923278.0344
        54.0004         47.0004
  20613437.2374   14791252.84144  11533429.19842  20613438.2754   20613434.7044
        57.0004         50.0004
  20479957.8424   -3185714.33743  -2472894.43042  20479958.9374   20479955.5904
        56.0004         51.0004
  21430109.3614   19765100.30743  15400045.04142  21430110.7784   21430108.9424
        55.0004         48.0004
  23541888.0384   -1583487.24643  -1229010.95342  23541889.3934   23541886.7494
        47.0004         41.0004
  22549222.3334   -5866905.20643  -4559295.91642  22549222.4144   22549223.0634
        49.0004         43.0004
  23346058.1834   18948103.26243  14764042.90442  23346059.5034   23346057.9614
        48.0004         42.0004
  22084738.7304   17423886.66143  13578388.52742  22084740.6684   22084738.4764
        51.0004         45.0004
 04  6 18 16 19  0.0000000  0  8G22G21G18G 6G16G15G29G26
  21914951.8684   11082518.62743   8640835.98442  21914952.2274   21914948.3874
        54.0004         47.0004
  20611981.8214   14783604.82144  11527469.70342  20611982.6504   20611979.1564
        57.0004         50.0004
  20478069.6444   -3195637.21943  -2480626.53942  20478070.7974   20478067.4494
        56.0004         51.0004
  21439646.1564   19815216.43343  15439096.53242  21439647.8424   21439646.2124
        55.0004         48.0004
  23543622.5944   -1574371.89043  -1221908.12042  23543623.6764   23543624.2194
        49.0004         41.0004
  22540471.3744   -5912889.69543  -4595127.96942  22540472.3034   22540472.0164
        49.0004         43.0004
  23354171.1654   18990736.63643  14797263.69542  23354171.6154   23354171.6254
        48.0004         41.0004
  22090430.3074   17453797.77643  13601695.87642  22090433.4234   22090431.1154
        51.0004         45.0004
 04  6 18 16 19 20.0000000  0  8G22G21G18G 6G16G15G29G26
  21906651.8884   11038902.44843   8606849.38542  21906652.2714   21906648.5484
        54.0004         47.0004
  20610544.1414   14776049.50744  11521582.44642  20610545.0814   20610541.4624
        57.0004         50.0004
  20476216.3074   -3205375.55643  -2488214.85042  20476217.6394   20476214.0744
        56.0004         51.0004
  21449216.5524   19865508.57243  15478285.18242  21449217.9374   21449216.5264
        54.0004         48.0004
  23545398.2344   -1565037.74343  -1214634.81142  23545401.4204   23545398.9214
        48.0004         41.0004
  22531726.9314   -5958845.53743  -4630937.69942  22531726.6384   22531726.9264
        50.0004         43.0004
  23362320.9684   19033567.24143  14830638.16642  23362324.3364   23362321.5074
        48.0004         41.0004
  22096175.2364   17483986.36743  13625219.44342  22096176.5584   22096175.7864
        51.0004         45.0004
 04  6 18 16 19 40.0000000  0  8G22G21G18G 6G16G15G29G26
  21898380.5114   10995435.64343   8572979.18442  21898380.7634   21898377.1414
        54.0004         47.0004
  20609123.5674   14768583.83444  11515765.03842  20609124.1574   20609120.6604
        57.0004         50.0004
  20474397.8704   -3214932.83643  -2495662.07442  20474398.8884   20474395.5074
        56.0004         51.0004
  21458819.1554   19915972.99443  15517608.07642  21458820.7334   21458819.5304
        55.0004         48.0004
  23547216.3494   -1555488.45143  -1207193.85142  23547217.6494   23547216.7894
        48.0004         41.0004
  22522986.3274   -6004775.73243  -4666727.43842  22522988.4014   22522987.6874
        49.0004         43.0004
  23370508.5884   19076591.32343  14864163.39042  23370509.4384   23370509.5824
        48.0004         41.0004
  22101972.0224   17514448.81243  13648956.40342  22101973.9734   22101972.2184
        52.0004         45.0004
 04  6 18 16 20  0.0000000  0  8G22G21G18G 6G16G15G29G26
  21890137.9004   10952120.49643   8539227.16042  21890138.4384   21890134.5294
        55.0004         47.0004
  20607720.1304   14761209.36644  11510018.70342  20607721.2264   20607717.7604
        57.0004         50.0004
  20472613.8944   -3224307.07443  -2502966.67042  20472615.0634   20472611.7464
        56.0004         51.0004
  21468455.5844   19966611.40443  15557066.54142  21468457.3674   21468455.4534
        55.0004         48.0004
  23549074.3574   -1545722.38843  -1199583.98342  23549075.3224   23549074.2794
        47.0004         41.0004
  22514251.5724   -6050677.93343  -4702495.36742  22514252.1644   22514252.0454
        50.0004         43.0004
  23378733.2884   19119810.35343  14897840.53742  23378733.7224   23378732.5214
        48.0004         41.0004
  22107821.5494   17545186.85843  13672908.13042  22107823.7504   22107822.0434
        51.0004         45.0004
 04  6 18 16 20 20.0000000  0  9G22G21G18G 6G16G15G29G26G 3
  21881923.5894   10908953.81543   8505590.81942  21881923.3614   21881920.5164
        55.0004         47.0004
  20606333.6574   14753923.25344  11504341.21442  20606334.8154   20606331.0944
        57.0004         50.0004
  20470864.2604   -3233501.87943  -2510131.45242  20470865.4964   20470861.8694
        56.0004         51.0004
  21478124.2994   20017420.15843  15596657.75142  21478125.6484   21478123.7804
        55.0004         48.0004
  23550974.0364   -1535743.08243  -1191807.93942  23550974.5534   23550972.7154
        48.0004         41.0004
  22505521.6034   -6096555.36743  -4738244.00242  22505522.5314   22505521.2974
        50.0004         43.0004
  23386994.2754   19163220.39643  14931666.52242  23386995.4494   23386994.5734
        48.0004         41.0004
  22113722.4344   17576196.62943  13697071.57242  22113724.3074   22113722.6744
        51.0004         45.0004
  24590132.7794   -2797430.93353  -2098497.67652  24590133.1194   24590135.4554
        42.0004         35.0004
 04  6 18 16 20 40.0000000  0  9G22G21G18G 6G16G15G29G26G 3
  21873739.2044   10865944.76743   8472077.31742  21873739.6834   21873735.8254
        55.0004         47.0004
  20604965.7174   14746735.26844  11498740.18442  20604966.7474   20604963.2814
        57.0004         50.0004
  20469150.2824   -3242508.12843  -2517149.30342  20469151.5844   20469148.0784
        56.0004         51.0004
  21487826.9494   20068407.47843  15636388.09342  21487828.3754   21487826.6314
        55.0004         48.0004
  23552914.3744   -1525542.07143  -1183859.15642  23552915.2964   23552914.3614
        47.0004         41.0004
  22496798.1994   -6142398.99743  -4773966.29542  22496798.2704   22496797.3604
        50.0004         43.0004
  23395292.5894   19206829.90543  14965647.91742  23395294.3794   23395293.2084
        48.0004         41.0004
  22119676.4944   17607486.57543  13721453.32742  22119678.0824   22119676.5464
        51.0004         45.0004
  24577527.8434   -2863682.44143  -2150122.22342  24577529.0054   24577529.6204
        42.0004         36.0004
 04  6 18 16 21  0.0000000  0  9G22G21G18G 6G16G15G29G26G 3
  21865584.1584   10823090.17143   8438684.16142  21865584.4854   21865580.7244
        55.0004         47.0004
  20603615.9694   14739642.16844  11493213.09542  20603617.1414   20603613.1944
        57.0004         50.0004
  20467471.3254   -3251329.80343  -2524023.33042  20467472.9944   20467469.2644
        56.0004         51.0004
  21497563.1324   20119569.70543  15676254.72242  21497564.3374   21497563.2014
        55.0004         48.0004
  23554897.0724   -1515122.94743  -1175740.40642  23554898.2514   23554896.7764
        48.0004         41.0004
  22488079.9054   -6188211.81243  -4809664.56642  22488081.5974   22488080.5584
        50.0004         43.0004
  23403628.3574   19250634.90843  14999781.66442  23403628.5474   23403627.5534
        48.0004         42.0004
  22125683.4424   17639053.08443  13746050.58742  22125685.1214   22125683.8114
        51.0004         45.0004
  24564932.5854   -2929865.81243  -2201693.68842  24564934.3784   24564934.7234
        42.0004         36.0004
 04  6 18 16 21 20.0000000  0  9G22G21G18G 6G16G15G29G26G 3
  21857457.6424   10780385.51243   8405407.84142  21857457.7154   21857454.5914
        55.0004         47.0004
  20602283.4584   14732639.43344  11487756.42042  20602284.4914   20602280.7444
        57.0004         50.0004
  20465827.1864   -3259971.72843  -2530757.29342  20465828.2344   20465824.7944
        56.0004         51.0004
  21507330.9194   20170901.64543  15716253.60542  21507332.8364   21507330.8794
        55.0004         48.0004
  23556920.1894   -1504490.88543  -1167455.72442  23556922.1304   23556919.7834
        48.0004         41.0004
  22479366.9074   -6233998.47243  -4845342.46642  22479367.5624   22479366.9274
        50.0004         43.0004
  23412000.2494   19294630.27643  15034063.74342  23412002.4914   23412000.6014
        48.0004         41.0004
  22131742.4184   17670890.78443  13770859.17042  22131745.0124   22131742.6254
        51.0004         45.0004
  24552350.7654   -2995984.91343  -2253215.06342  24552349.7514   24552349.4214
        42.0004         36.0004
 04  6 18 16 21 40.0000000  0  9G22G21G18G 6G16G15G29G26G 3
  21849360.1074   10737832.83843   8372249.94742  21849360.8074   21849357.2424
        55.0004         47.0004
  20600968.4234   14725728.86344  11482371.56142  20600969.4894   20600965.9304
        57.0004         50.0004
  20464217.2404   -3268432.13243  -2537349.81242  20464218.2434   20464214.9244
        56.0004         51.0004
  21517131.7244   20222404.70343  15756385.82342  21517133.0564   21517131.7724
        55.0004         48.0004
  23558984.0924   -1493644.53343  -1159004.07542  23558986.2524   23558984.8984
        48.0004         41.0004
  22470659.3684   -6279756.78243  -4880998.27242  22470660.3394   22470658.5724
        50.0004         43.0004
  23420408.5814   19338817.03043  15068494.94442  23420410.7414   23420409.8284
        48.0004         42.0004
  22137852.5464   17703001.16243  13795880.23642  22137854.0474   22137852.7244
        51.0004         45.0004
  24539780.2714   -3062037.30143  -2304684.45342  24539783.2804   24539781.9514
        42.0004         36.0004
 04  6 18 16 22  0.0000000  0  9G22G21G18G 6G16G15G29G26G 3
  21841292.1464   10695435.63943   8339213.19442  21841292.9354   21841289.0714
        55.0004         47.0004
  20599671.6004   14718913.94244  11477061.23642  20599672.4244   20599668.8224
        57.0004         50.0004
  20462642.3044   -3276707.88343  -2543798.44742  20462643.6054   20462640.1414
        56.0004         51.0004
  21526965.4684   20274081.53443  15796653.43942  21526966.8914   21526965.0004
        55.0004         48.0004
  23561090.2524   -1482580.82843  -1150383.05442  23561090.8074   23561089.9004
        48.0004         41.0004
  22461957.7354   -6325483.36443  -4916629.34642  22461957.7654   22461958.5444
        50.0004         43.0004
  23428854.0964   19383198.01143  15103077.49742  23428855.3984   23428854.3634
        48.0004         41.0004
  22144015.4734   17735387.01143  13821115.93842  22144016.8234   22144014.4614
        51.0004         45.0004
  24527225.2994   -3128018.92943  -2356098.70242  24527227.4624   24527225.7904
        43.0004         35.0004
 04  6 18 16 22 20.0000000  0  9G22G21G18G 6G16G15G29G26G 3
  21833253.2554   10653191.30043   8306295.56042  21833254.2084   21833250.3524
        55.0004         47.0004
  20598392.6484   14712192.60944  11471823.83642  20598393.6514   20598389.7834
        57.0004         50.0004
  20461102.1674   -3284801.78943  -2550105.38242  20461103.4414   20461099.9744
        56.0004         51.0004
  21536831.8644   20325929.19243  15837054.18142  21536833.1434   21536831.7694
        55.0004         48.0004
  23563236.0844   -1471303.00943  -1141595.20442  23563236.1054   23563236.7664
        48.0004         41.0004
  22453261.6674   -6371180.77743  -4952237.70142  22453263.2524   22453261.5964
        50.0004         43.0004
  23437335.4894   19427769.82643  15137808.74942  23437336.7134   23437337.2424
        47.0004         41.0004
  22150229.9884   17768045.14343  13846563.82142  22150231.2404   22150231.0034
        51.0004         45.0004
  24514683.3374   -3193931.63643  -2407459.26342  24514685.0344   24514683.7584
        42.0004         36.0004
 04  6 18 16 22 40.0000000  0  9G22G21G18G 6G16G15G29G26G 3
  21825243.3204   10611098.17143   8273495.75042  21825244.3074   21825239.6024
        55.0004         47.0004
  20597131.0424   14705563.05144  11466657.94642  20597131.9824   20597128.4284
        57.0004         50.0004
  20459596.0184   -3292716.10243  -2556272.37442  20459597.1244   20459593.7634
        56.0004         51.0004
  21546730.2554   20377945.15643  15877586.06042  21546731.5254   21546730.2444
        55.0004         48.0004
  23565422.0204   -1459813.23743  -1132642.18042  23565423.8334   23565423.5934
        48.0004         41.0004
  22444571.2394   -6416850.69543  -4987824.62342  22444571.0244   22444571.1614
        51.0004         43.0004
  23445853.2904   19472530.20643  15172686.93642  23445854.7174   23445853.5284
        47.0004         41.0004
  22156495.9634   17800973.29443  13872222.09842  22156496.5404   22156495.6904
        51.0004         44.0004
  24502152.7594   -3259776.70743  -2458767.11742  24502153.7154   24502154.1304
        42.0004         36.0004
 04  6 18 16 23  0.0000000  0  9G22G21G18G 6G16G15G29G26G 3
  21817262.5844   10569159.56443   8240816.34842  21817262.7834   21817259.5024
        55.0004         47.0004
  20595887.5104   14699028.47744  11461566.07142  20595888.7124   20595884.7194
        57.0004         50.0004
  20458124.7274   -3300447.98943  -2562297.21442  20458125.8774   20458122.2864
        56.0004         51.0004
  21556661.2554   20430132.21243  15918251.26142  21556662.6354   21556661.3044
        55.0004         48.0004
  23567650.3644   -1448108.67243  -1123521.77742  23567651.0084   23567649.0714
        48.0004         41.0004
  22435886.2214   -6462489.83143  -5023387.56642  22435886.1494   22435886.4274
        50.0004         43.0004
  23454407.8574   19517481.60143  15207713.96642  23454409.0374   23454408.5044
        48.0004         41.0004
  22162813.3994   17834174.01543  13898092.77342  22162815.8104   22162814.1084
        51.0004         44.0004
  24489636.9704   -3325550.20743  -2510019.17342  24489637.9674   24489637.9454
        43.0004         36.0004
 04  6 18 16 23 20.0000000  0  9G22G21G18G 6G16G15G29G26G 3
  21809311.0964   10527374.18543   8208256.34142  21809311.6784   21809307.7384
        55.0004         47.0004
  20594661.8104   14692587.92743  11456547.46042  20594662.9204   20594659.1964
        56.0004         50.0004
  20456687.8954   -3307998.70643  -2568180.88742  20456689.1664   20456685.6784
        56.0004         51.0004
  21566624.4104   20482488.46843  15959048.30142  21566625.2954   21566624.0794
        55.0004         48.0004
  23569917.9644   -1436191.09343  -1114235.39242  23569918.3824   23569918.0324
        48.0004         41.0004
  22427207.1744   -6508099.28443  -5058927.37442  22427207.6584   22427207.5814
        50.0004         43.0004
  23462997.7524   19562621.96243  15242888.24542  23463000.5654   23462998.2484
        47.0004         41.0004
  22169183.7944   17867645.45843  13924174.38342  22169185.0624   22169183.6974
        51.0004         45.0004
  24477133.7204   -3391252.66443  -2561215.90242  24477133.4824   24477135.2104
        43.0004         36.0004
 04  6 18 16 23 40.0000000  0  9G22G21G18G 6G16G15G29G26G 3
  21801388.4144   10485740.40743   8175814.46442  21801389.0464   21801385.3514
        55.0004         47.0004
  20593453.7914   14686239.89444  11451600.94142  20593454.7974   20593451.4194
        57.0004         50.0004
  20455284.9874   -3315370.41643  -2573925.07342  20455286.2014   20455282.9364
        56.0004         51.0004
  21576619.1414   20535011.40143  15999975.22242  21576620.7054   21576618.6194
        55.0004         48.0004
  23572225.0374   -1424062.92543  -1104784.92142  23572226.5644   23572225.9224
        47.0004         42.0004
  22418533.3734   -6553680.88643  -5094445.48142  22418533.5294   22418532.2064
        50.0004         44.0004
  23471622.7764   19607948.88843  15278207.89342  23471624.6144   23471622.5704
        47.0004         41.0004
  22175604.2824   17901385.21843  13950465.09042  22175605.3034   22175603.8394
        51.0004         44.0004
  24464643.9704   -3456885.38043  -2612358.27842  24464644.3894   24464647.2374
        42.0004         36.0004
 04  6 18 16 24  0.0000000  0  9G22G21G18G 6G16G15G29G26G 3
  21793495.7904   10444263.80443   8143495.06542  21793496.4204   21793492.1144
        55.0004         48.0004
  20592264.6204   14679990.14844  11446731.00442  20592265.6164   20592262.1774
        57.0004         50.0004
  20453917.3314   -3322557.93443  -2579525.73142  20453918.6304   20453915.3274
        56.0004         51.0004
  21586646.5184   20587706.15843  16041036.03342  21586648.3064   21586646.1984
        55.0004         47.0004
  23574574.3454   -1411718.98443  -1095166.29642  23574575.8904   23574576.2544
        48.0004         41.0004
  22409865.9554   -6599228.88243  -5129937.40942  22409866.0234   22409865.1004
        50.0004         43.0004
  23480284.9474   19653467.26743  15313676.73442  23480285.9614   23480284.3014
        47.0004         41.0004
  22182076.3904   17935398.32743  13976968.79442  22182078.6224   22182075.6654
        51.0004         44.0004
  24452168.8204   -3522441.99643  -2663441.34742  24452170.6534   24452171.8364
        42.0004         36.0004
 04  6 18 16 24 20.0000000  0  9G22G21G18G 6G16G15G29G26G 3
  21785631.7044   10402938.30443   8111293.40642  21785631.8294   21785628.2074
        55.0004         48.0004
  20591092.9724   14673832.52944  11441932.85542  20591093.7984   20591090.3124
        57.0004         50.0004
  20452583.2734   -3329567.76243  -2584987.93242  20452584.7274   20452581.3234
        56.0004         51.0004
  21596705.3364   20640565.95643  16082225.43942  21596706.8134   21596705.3994
        55.0004         47.0004
  23576963.5264   -1399166.16643  -1085384.92742  23576964.5804   23576965.0654
        48.0004         41.0004
  22401202.9784   -6644749.55043  -5165408.02742  22401203.5754   22401203.7164
        51.0004         44.0004
  23488981.7654   19699170.14643  15349289.33242  23488984.4274   23488983.2324
        47.0004         41.0004
  22188599.9054   17969677.94043  14003680.16942  22188601.4484   22188599.6134
        51.0004         44.0004
  24439707.6114   -3587928.11343  -2714469.48742  24439708.4394   24439707.0504
        42.0004         36.0004
 04  6 18 16 24 40.0000000  0  9G22G21G18G 6G16G15G29G26G 3
  21777796.9334   10361766.59943   8079211.59542  21777797.0954   21777793.9184
        55.0004         48.0004
  20589939.2174   14667769.76444  11437208.62242  20589940.1234   20589936.4454
        57.0004         50.0004
  20451283.7584   -3336397.61643  -2590309.89142  20451285.0604   20451281.5894
        56.0004         51.0004
  21606796.1944   20693592.72443  16123544.96242  21606797.5804   21606795.9734
        54.0004         47.0004
  23579392.1374   -1386402.25143  -1075439.05342  23579393.3234   23579392.9814
        48.0004         41.0004
  22392546.7524   -6690240.13143  -5200855.21142  22392547.6034   22392547.2934
        50.0004         43.0004
  23497714.3504   19745059.45143  15385047.18942  23497715.7044   23497715.6094
        47.0004         41.0004
  22195173.7464   18004225.99743  14030600.70942  22195175.8114   22195173.4064
        51.0004         44.0004
  24427260.5554   -3653340.60743  -2765440.24142  24427261.4084   24427262.6984
        43.0004         36.0004
 04  6 18 16 25  0.0000000  0  9G22G21G18G 6G16G15G29G26G 3
  21769992.0284   10320751.85843   8047252.08842  21769992.5594   21769988.6684
        55.0004         48.0004
  20588804.1974   14661805.27743  11432560.96942  20588805.1424   20588801.7834
        56.0004         50.0004
  20450018.7924   -3343044.48043  -2595489.26042  20450020.0804   20450016.6974
        56.0004         51.0004
  21616919.1334   20746789.13543  16164996.66842  21616920.7054   21616919.0764
        54.0004         47.0004
  23581862.1364   -1373424.65643  -1065326.68642  23581864.0044   23581861.3494
        49.0004         41.0004
  22383896.8404   -6735697.22543  -5236276.30042  22383897.1864   22383896.7394
        50.0004         44.0004
  23506482.5094   19791137.72743  15420952.30642  23506485.4584   23506483.9044
        47.0004         41.0004
  22201799.9524   18039045.31143  14057732.61742  22201801.4444   22201800.2114
        51.0004         44.0004
  24414827.7934   -3718675.41043  -2816350.45842  24414829.2354   24414828.4414
        43.0004         37.0004
 04  6 18 16 25 20.0000000  0  9G22G21G18G 6G16G15G29G26G 3
  21762216.2524   10279889.74343   8015411.50742  21762216.2894   21762213.2234
        55.0004         48.0004
  20587686.9714   14655934.70843  11427986.49942  20587688.0844   20587684.3244
        56.0004         50.0004
  20448788.0164   -3349513.00943  -2600529.66742  20448789.0874   20448786.0244
        56.0004         51.0004
  21627073.3864   20800150.20843  16206576.68742  21627074.5344   21627072.8674
        54.0004         47.0004
  23584371.1334   -1360238.27643  -1055051.61842  23584373.3634   23584370.6094
        48.0004         42.0004
  22375251.9394   -6781125.15443  -5271674.65942  22375252.9164   22375252.6794
        50.0004         44.0004
  23515285.9124   19837399.92543  15457000.73042  23515287.6504   23515285.7124
        47.0004         41.0004
  22208476.4044   18074130.62843  14085071.79942  22208478.9104   22208477.2324
        51.0004         44.0004
  24402407.9184   -3783936.42943  -2867203.18442  24402411.2984   24402410.4374
        43.0004         37.0004
 04  6 18 16 25 40.0000000  0  9G22G21G18G 6G16G15G29G26G 3
  21754469.5614   10239180.63743   7983690.16242  21754469.8084   21754466.4114
        55.0004         48.0004
  20586587.7764   14650158.46144  11423485.52542  20586589.0044   20586585.2404
        57.0004         50.0004
  20447590.9754   -3355803.52443  -2605431.36142  20447592.1644   20447588.3844
        56.0004         51.0004
  21637258.8724   20853675.59743  16248284.73342  21637260.5324   21637258.8014
        54.0004         47.0004
  23586920.0464   -1346843.26343  -1044613.98342  23586922.3054   23586921.4214
        48.0004         42.0004
  22366612.4714   -6826523.68643  -5307050.10942  22366614.4064   22366613.3734
        50.0004         44.0004
  23524124.8234   19883845.45443  15493192.01142  23524127.2214   23524124.9424
        47.0004         41.0004
  22215203.5524   18109481.68343  14112618.04542  22215205.2844   22215203.5984
        51.0004         44.0004
  24390003.5444   -3849122.64643  -2917997.63442  24390004.0544   24390006.6914
        43.0004         37.0004
 04  6 18 16 26  0.0000000  0  9G22G21G18G 6G16G15G29G26G 3
  21746752.6454   10198628.59643   7952091.19942  21746753.0074   21746749.1924
        55.0004         48.0004
  20585507.4774   14644480.94243  11419061.48442  20585508.4254   20585504.7284
        56.0004         50.0004
  20446428.5104   -3361912.16943  -2610191.34142  20446429.7814   20446426.3604
        56.0004         51.0004
  21647476.3804   20907368.64543  16290123.43142  21647477.6904   21647476.0804
        54.0004         47.0004
  23589509.0024   -1333236.13743  -1034011.07642  23589509.9404   23589509.3294
        48.0004         41.0004
  22357980.0624   -6871888.58543  -5342399.35642  22357981.5284   22357980.0824
        50.0004         44.0004
  23532998.5154   19930477.65543  15529528.75742  23533000.7264   23532998.4334
        47.0004         41.0004
  22221981.8344   18145101.84643  14140373.98742  22221983.6964   22221981.2604
        51.0004         45.0004
  24377613.9674   -3914229.47743  -2968730.21342  24377615.9654   24377614.3864
        43.0004         37.0004
 04  6 18 16 26 20.0000000  0  9G22G21G18G 6G16G15G29G26G 3
  21739064.8174   10158228.66243   7920610.76642  21739065.1954   21739061.6644
        55.0004         48.0004
  20584445.0404   14638897.34144  11414710.62342  20584446.0314   20584442.3374
        57.0004         50.0004
  20445299.5724   -3367844.26043  -2614813.74342  20445300.9094   20445297.5364
        56.0004         51.0004
  21657724.6474   20961223.84343  16332088.47442  21657725.9904   21657724.6754
        54.0004         47.0004
  23592138.1794   -1319422.47343  -1023247.23042  23592139.6074   23592138.5134
        48.0004         41.0004
  22349353.0874   -6917224.69543  -5377726.17242  22349353.6424   22349354.1014
        51.0004         44.0004
  23541906.4714   19977290.85543  15566006.52342  23541907.3654   23541905.4664
        47.0004         41.0004
  22228810.5544   18180985.57843  14168335.30942  22228812.5494   22228810.6304
        51.0004         45.0004
  24365238.9374   -3979261.17943  -3019404.26142  24365239.4134   24365238.8214
        43.0004         36.0004
 04  6 18 16 26 40.0000000  0  9G22G21G18G 6G16G15G29G26G 3
  21731407.0674   10117986.22843   7889253.05642  21731407.1984   21731403.5514
        55.0004         48.0004
  20583401.1924   14633413.01544  11410437.12142  20583402.3684   20583398.6934
        57.0004         50.0004
  20444205.4164   -3373594.70143  -2619294.60442  20444206.7164   20444202.8514
        56.0004         51.0004
  21668004.9934   21015246.04443  16374183.65342  21668006.1614   21668004.2124
        54.0004         47.0004
  23594806.9154   -1305397.35243  -1012318.61342  23594808.6434   23594806.8684
        49.0004         41.0004
  22340732.3644   -6962526.59443  -5413026.33442  22340732.9474   22340731.7104
        50.0004         44.0004
  23550850.3874   20024289.89143  15602629.11942  23550851.6384   23550850.1204
        47.0004         40.0004
  22235689.6774   18217137.39343  14196505.52942  22235691.9074   22235690.3734
        51.0004         44.0004
  24352879.2084   -4044211.80943  -3070015.12642  24352880.6154   24352881.2884
        43.0004         37.0004
 04  6 18 16 27  0.0000000  0  9G22G21G18G 6G16G15G29G26G 3
  21723777.7474   10077894.03343   7858012.41142  21723778.2984   21723774.4764
        56.0004         48.0004
  20582375.2124   14628020.79143  11406235.38242  20582376.1994   20582372.6494
        56.0004         50.0004
  20443144.1634   -3379171.21843  -2623639.93842  20443145.5804   20443141.8744
        56.0004         51.0004
  21678315.2294   21069427.09843  16416402.61442  21678316.8264   21678315.1714
        54.0004         47.0004
  23597515.1124   -1291168.76843  -1001231.44842  23597517.5864   23597515.2904
        48.0004         41.0004
  22332116.7504   -7007801.51943  -5448305.47142  22332116.2544   22332116.2484
        50.0004         44.0004
  23559827.9074   20071466.46543  15639390.05342  23559830.5454   23559827.7204
        47.0004         40.0004
  22242618.7184   18253549.58043  14224878.63242  22242621.4614   22242618.4294
        51.0004         44.0004
  24340534.6034   -4109087.89843  -3120567.90342  24340536.4194   24340536.2864
        43.0004         37.0004
 04  6 18 16 27 20.0000000  0  9G22G21G18G 6G16G15G29G26G 3
  21716178.3214   10037959.57743   7826894.68742  21716178.6494   21716175.1654
        55.0004         48.0004
  20581368.0744   14622728.39243  11402111.43242  20581368.9454   20581365.2424
        56.0004         50.0004
  20442117.4814   -3384566.77243  -2627844.26242  20442118.7044   20442115.2824
        56.0004         51.0004
  21688657.1584   21123774.02743  16458750.82642  21688658.6894   21688656.9924
        54.0004         47.0004
  23600262.7724   -1276729.83543   -989980.36842  23600263.8074   23600262.8694
        48.0004         41.0004
  22323507.6924   -7053041.90943  -5483557.70042  22323507.5894   22323507.9634
        50.0004         44.0004
  23568840.1804   20118827.52243  15676294.73142  23568842.2774   23568841.7164
        47.0004         40.0004
  22249598.3814   18290228.89343  14253459.88942  22249600.7184   22249598.3494
        51.0004         44.0004
  24328204.5394   -4173881.45343  -3171056.35742  24328207.5474   24328207.1684
        44.0004         37.0004
 04  6 18 16 27 40.0000000  0  9G22G21G18G 6G16G15G29G26G 3
  21708608.8294    9998181.32343   7795898.67342  21708609.2554   21708605.6354
        56.0004         48.0004
  20580379.6254   14617534.43544  11398064.18542  20580380.6824   20580377.1374
        57.0004         50.0004
  20441124.8094   -3389783.15943  -2631908.97642  20441125.8744   20441122.4694
        56.0004         51.0004
  21699030.0434   21178284.50843  16501226.48542  21699031.9254   21699029.8574
        53.0004         47.0004
  23603049.5484   -1262082.48643   -978566.88042  23603050.5724   23603049.6134
        48.0004         41.0004
  22314905.0734   -7098249.23543  -5518784.16142  22314905.3214   22314905.4374
        50.0004         44.0004
  23577887.0224   20166370.56343  15713341.22142  23577889.9844   23577885.9414
        47.0004         40.0004
  22256629.1004   18327172.96243  14282247.45542  22256631.0364   22256628.4564
        51.0004         44.0004
  24315888.9724   -4238593.25643  -3221481.11742  24315890.6874   24315891.4044
        43.0004         37.0004
 04  6 18 16 28  0.0000000  0  9G22G21G18G 6G16G15G29G26G 3
  21701068.2124    9958555.42943   7765021.38842  21701068.2614   21701065.1734
        55.0004         48.0004
  20579409.4834   14612435.28043  11394090.81742  20579410.3094   20579406.8114
        56.0004         50.0004
  20440165.5334   -3394824.50243  -2635837.29042  20440166.6884   20440163.2464
        56.0004         51.0004
  21709433.4134   21232954.22743  16543826.21542  21709434.7914   21709433.1824
        54.0004         47.0004
  23605875.8714   -1247231.27043   -966994.54142  23605876.4794   23605876.7754
        48.0004         42.0004
  22306308.1634   -7143427.24743  -5553987.79042  22306308.1584   22306307.0244
        50.0004         44.0004
  23586968.5074   20214091.15943  15750526.04842  23586969.5894   23586968.4134
        47.0004         40.0004
  22263709.0874   18364377.47843  14311237.96142  22263710.2374   22263708.6244
        51.0004         44.0004
  24303590.3004   -4303226.65343  -3271844.77442  24303591.8284   24303591.5804
        43.0004         37.0004
 04  6 18 16 28 20.0000000  0  9G22G21G18G 6G16G15G29G26G 3
  21693556.8594    9919082.94443   7734263.63842  21693556.9074   21693553.5294
        55.0004         48.0004
  20578457.3344   14607431.98544  11390192.14242  20578458.1974   20578454.4884
        57.0004         50.0004
  20439239.5554   -3399690.11543  -2639628.67242  20439240.9134   20439237.3984
        56.0004         51.0004
  21719866.9514   21287783.48743  16586550.26942  21719868.4434   21719866.8274
        53.0004         47.0004
  23608740.9664   -1232175.65343   -955262.93442  23608740.4804   23608741.4654
        49.0004         41.0004
  22297716.3184   -7188574.80343  -5589167.67442  22297718.0884   22297716.5864
        51.0004         44.0004
  23596083.0154   20261989.49543  15787849.39942  23596084.8144   23596083.4394
        47.0004         40.0004
  22270838.6064   18401842.72443  14340431.62442  22270840.1394   22270837.8524
        51.0004         44.0004
  24291305.6754   -4367779.98343  -3322146.04742  24291305.6634   24291306.3934
        43.0004         37.0004
 04  6 18 16 28 40.0000000  0  9G22G21G18G 6G16G15G29G26G 3
  21686075.8704    9879770.82843   7703630.86142  21686076.1574   21686072.8754
        56.0004         48.0004
  20577524.6914   14602531.77643  11386373.79942  20577525.6114   20577522.2754
        56.0004         50.0004
  20438348.3784   -3404373.41143  -2643277.98942  20438349.5134   20438346.2474
        56.0004         51.0004
  21730332.5194   21342778.47343  16629403.45942  21730333.6804   21730332.3484
        53.0004         47.0004
  23611646.2924   -1216909.34543   -943367.15442  23611647.6084   23611645.2424
        48.0004         41.0004
  22289132.5744   -7233684.95043  -5624318.41042  22289132.3864   22289133.6534
        51.0004         44.0004
  23605232.6754   20310071.79743  15825316.08442  23605233.3154   23605233.6454
        47.0004         40.0004
  22278018.5214   18439574.91143  14369833.29742  22278020.0134   22278018.1754
        51.0004         44.0004
  24279038.7244   -4432245.59943  -3372378.96142  24279039.3224   24279040.1954
        42.0004         37.0004
 04  6 18 16 29  0.0000000  0  9G22G21G18G 6G16G15G29G26G 3
  21678623.7904    9840610.41343   7673116.28142  21678624.2734   21678620.6684
        55.0004         48.0004
  20576610.3674   14597725.84544  11382628.91342  20576611.2444   20576607.6354
        57.0004         50.0004
  20437490.1304   -3408883.45943  -2646792.30842  20437491.2864   20437487.9934
        56.0004         51.0004
  21740827.2784   21397930.16243  16672378.76142  21740828.5964   21740827.4334
        54.0004         46.0004
  23614590.0234   -1201441.58643   -931314.40342  23614589.8044   23614589.9544
        48.0004         41.0004
  22280553.6564   -7278766.22743  -5659446.66642  22280554.6854   22280554.0584
        50.0004         44.0004
  23614415.8894   20358328.73043  15862918.85542  23614417.9304   23614416.9954
        46.0004         40.0004
  22285247.4974   18477564.78543  14399435.76142  22285249.7894   22285248.0784
        51.0004         44.0004
  24266787.3894   -4496631.55143  -3422549.79842  24266788.1124   24266788.3474
        43.0004         37.0004
 04  6 18 16 29 20.0000000  0  9G22G21G18G 6G16G15G29G26G 3
  21671201.7844    9801606.91843   7642723.98342  21671202.3224   21671198.5904
        55.0004         48.0004
  20575714.7144   14593019.70944  11378961.79042  20575715.7394   20575712.0154
        57.0004         50.0004
  20436665.8824   -3413215.19943  -2650167.69042  20436667.0954   20436663.5164
        56.0004         51.0004
  21751353.1394   21453242.89743  16715479.54442  21751354.1744   21751353.3814
        53.0004         46.0004
  23617572.9154   -1185767.77843   -919101.09442  23617573.4154   23617572.9294
        49.0004         41.0004
  22271981.6244   -7323813.33143  -5694548.27742  22271982.2304   22271981.9274
        51.0004         44.0004
  23623632.6514   20406764.74243  15900661.15042  23623633.2184   23623633.1274
        46.0004         40.0004
  22292526.3554   18515816.77843  14429242.48342  22292528.1504   22292527.1704
        51.0004         44.0004
  24254551.5274   -4560931.93243  -3472653.96542  24254552.5414   24254552.6394
        42.0004         37.0004
 04  6 18 16 29 40.0000000  0  9G22G21G18G 6G16G15G29G26G 3
  21663809.2254    9762758.96443   7612452.88242  21663809.6234   21663805.8814
        55.0004         48.0004
  20574837.9134   14588412.10944  11375371.45242  20574839.0814   20574835.2354
        57.0004         50.0004
  20435875.1114   -3417370.79743  -2653405.82042  20435876.3854   20435872.9944
        56.0004         51.0004
  21761908.9284   21508714.59843  16758704.19842  21761910.1794   21761909.0524
        53.0004         46.0004
  23620593.5134   -1169890.04443   -906728.88942  23620596.6224   23620594.3864
        48.0004         41.0004
  22263415.5724   -7368827.76643  -5729624.43842  22263416.9604   22263415.3594
        51.0004         44.0004
  23632883.8024   20455377.31543  15938541.03542  23632886.8064   23632884.8584
        46.0004         40.0004
  22299855.3744   18554328.68743  14459251.74342  22299857.0834   22299855.5184
        51.0004         44.0004
  24242332.2714   -4625147.69743  -3522692.18742  24242334.0534   24242333.1774
        45.0004         37.0004
 04  6 18 16 30  0.0000000  0  9G22G21G18G 6G16G15G29G26G 3
  21656446.2614    9724065.86143   7582302.44642  21656446.3984   21656442.6784
        56.0004         48.0004
  20573979.7544   14583902.41044  11371857.39842  20573980.5984   20573977.0324
        57.0004         50.0004
  20435117.5484   -3421351.35743  -2656507.55042  20435118.7584   20435115.3594
        56.0004         51.0004
  21772494.8624   21564343.93043  16802051.68642  21772496.2014   21772495.4764
        53.0004         46.0004
  23623653.6214   -1153809.48843   -894198.62842  23623655.1744   23623654.4354
        48.0004         41.0004
  22254855.5904   -7413810.08843  -5764675.56242  22254856.6134   22254855.1344
        51.0004         44.0004
  23642167.4754   20504165.34943  15976557.63742  23642170.1534   23642168.2764
        47.0004         40.0004
  22307233.2924   18593099.05843  14489462.38942  22307234.6814   22307232.9764
        51.0004         44.0004
  24230127.8624   -4689278.83043  -3572664.48142  24230129.3264   24230129.1814
        45.0004         37.0004
 04  6 18 16 30 20.0000000  0  9G22G21G18G 6G16G15G29G26G 3
  21649112.7234    9685528.33343   7552273.23642  21649113.2604   21649109.4434
        55.0004         48.0004
  20573140.4694   14579491.83444  11368420.58342  20573141.6294   20573137.7664
        57.0004         50.0004
  20434393.4934   -3425156.16243  -2659472.33042  20434394.7144   20434391.4234
        56.0004         51.0004
  21783111.0824   21620131.21143  16845522.24242  21783112.0204   21783111.0124
        53.0004         46.0004
  23626752.4584   -1137525.95343   -881510.20742  23626754.2964   23626752.0304
        48.0004         41.0004
  22246302.4374   -7458759.23643  -5799700.85042  22246303.2314   22246302.3374
        51.0004         44.0004
  23651485.1444   20553128.91243  16014711.02842  23651486.2124   23651485.8024
        47.0004         40.0004
  22314660.6294   18632128.23243  14519874.71242  22314661.2184   22314660.6044
        51.0004         44.0004
  24217939.1414   -4753323.79443  -3622569.61742  24217940.8114   24217941.4544
        43.0004         37.0004
 04  6 18 16 30 40.0000000  0  9G22G21G18G 6G16G15G29G26G 3
  21641808.5454    9647145.21243   7522364.33842  21641809.1964   21641805.2664
        56.0004         48.0004
  20572319.7704   14575179.11044  11365060.01542  20572320.9824   20572317.1404
        57.0004         50.0004
  20433702.7244   -3428786.61843  -2662301.25142  20433703.9084   20433700.4144
        56.0004         51.0004
  21793756.7174   21676074.43843  16889114.31742  21793758.8584   21793757.1264
        53.0004         46.0004
  23629889.5014   -1121041.12943   -868664.93642  23629890.5914   23629888.7704
        47.0004         41.0004
  22237754.6614   -7503676.38643  -5834701.20842  22237755.3254   22237754.3664
        51.0004         44.0004
  23660836.1564   20602265.96643  16052999.59842  23660837.6214   23660837.1434
        46.0004         40.0004
  22322136.0964   18671414.26543  14550487.17642  22322137.9874   22322136.5214
        52.0004         44.0004
  24205768.2404   -4817283.21543  -3672408.11142  24205770.2164   24205768.4044
        43.0004         37.0004
 04  6 18 16 31  0.0000000  0  9G22G21G18G 6G16G15G29G26G 3
  21634534.6454    9608920.51343   7492578.89342  21634535.3974   21634531.0224
        55.0004         48.0004
  20571518.4864   14570968.26344  11361778.83242  20571519.6434   20571515.7894
        57.0004         50.0004
  20433045.7464   -3432239.36343  -2664991.69342  20433046.9294   20433043.4674
        56.0004         51.0004
  21804432.4734   21732176.95043  16932830.51042  21804434.2284   21804432.9854
        53.0004         46.0004
  23633065.4594   -1104351.86043   -855660.35442  23633067.1334   23633066.0804
        48.0004         41.0004
  22229214.3274   -7548557.38843  -5869673.39842  22229215.3924   22229214.0434
        51.0004         44.0004
  23670220.3064   20651579.73143  16091425.87042  23670221.9674   23670220.7434
        47.0004         40.0004
  22329661.7144   18710960.27443  14581302.22442  22329662.5954   22329661.3554
        52.0004         44.0004
  24193614.9214   -4881152.56343  -3722176.41342  24193616.9834   24193616.6024
        43.0004         37.0004
 04  6 18 16 31 20.0000000  0  9G22G21G18G 6G16G15G29G26G 3
  21627290.0554    9570849.59643   7462913.27642  21627290.1774   21627286.7294
        55.0004         48.0004
  20570735.7984   14566854.97444  11358573.66742  20570736.8934   20570733.0974
        57.0004         50.0004
  20432421.4934   -3435519.27443  -2667547.46242  20432422.6904   20432419.2774
        56.0004         51.0004
  21815137.7874   21788433.57043  16976666.79142  21815139.4424   21815137.9264
        53.0004         46.0004
  23636279.7184   -1087463.20343   -842500.41142  23636279.9464   23636279.0604
        48.0004         41.0004
  22220679.6654   -7593406.73343  -5904620.91942  22220680.5474   22220679.1094
        51.0004         44.0004
  23679636.2904   20701064.80543  16129985.63642  23679638.8474   23679637.7404
        47.0004         40.0004
  22337235.2724   18750761.04943  14612315.77242  22337236.6294   22337236.4224
        51.0004         44.0004
  24181477.4474   -4944935.67743  -3771877.50642  24181479.1704   24181479.1054
        44.0004         37.0004
 04  6 18 16 31 40.0000000  0  9G22G21G18G 6G16G15G29G26G 3
  21620075.3794    9532937.42343   7433371.35442  21620075.6734   21620072.1754
        55.0004         48.0004
  20569972.5904   14562844.30044  11355448.46342  20569973.6724   20569969.8024
        57.0004         50.0004
  20431831.0244   -3438621.97043  -2669965.14342  20431832.4164   20431828.8134
        56.0004         51.0004
  21825873.3004   21844848.61943  17020626.51942  21825874.0114   21825873.5474
        53.0004         46.0004
  23639531.8314   -1070370.97043   -829181.82842  23639533.5454   23639533.4674
        48.0004         41.0004
  22212152.1144   -7638219.35043  -5939539.81442  22212152.1634   22212151.6104
        51.0004         44.0004
  23689086.9194   20750725.48043  16168682.22042  23689089.8414   23689087.0464
        46.0004         40.0004
  22344858.3884   18790820.73243  14643531.08042  22344859.9004   22344858.9914
        52.0004         44.0004
  24169357.1894   -5008626.92443  -3821507.01642  24169358.1574   24169358.5554
        44.0004         37.0004
 04  6 18 16 32  0.0000000  0  9G22G21G18G 6G16G15G29G26G 3
  21612890.2894    9495178.39543   7403948.76742  21612890.5054   21612886.6984
        55.0004         48.0004
  20569227.8654   14558930.92344  11352399.07142  20569229.1934   20569225.2044
        57.0004         50.0004
  20431273.3304   -3441553.09943  -2672249.13442  20431274.5544   20431270.8864
        56.0004         51.0004
  21836637.8594   21901415.83143  17064704.81342  21836639.3444   21836638.5654
        53.0004         46.0004
  23642822.0404   -1053081.23443   -815709.35842  23642824.1254   23642821.0274
        48.0004         41.0004
  22203630.0204   -7683000.75243  -5974434.38742  22203630.5604   22203630.3064
        51.0004         44.0004
  23698569.4264   20800555.39743  16207510.68542  23698571.8344   23698568.8824
        46.0004         40.0004
  22352529.8894   18831133.27443  14674943.41942  22352531.6894   22352529.2844
        51.0004         44.0004
  24157254.0094   -5072231.26943  -3871068.81842  24157255.1424   24157255.0564
        44.0004         37.0004
 04  6 18 16 32 20.0000000  0  9G22G21G18G 6G16G15G29G26G 3
  21605734.4004    9457575.03143   7374647.48042  21605735.1494   21605731.1984
        55.0004         48.0004
  20568502.4234   14555117.68344  11349427.71342  20568503.3484   20568499.4944
        57.0004         50.0004
  20430748.6104   -3444310.52543  -2674397.77142  20430749.8544   20430746.4634
        56.0004         51.0004
  21847431.5694   21958137.06443  17108903.12842  21847432.2824   21847431.9014
        53.0004         46.0004
  23646150.1934   -1035592.08843   -802081.50542  23646151.3824   23646150.1214
        48.0004         41.0004
  22195115.0454   -7727748.26343  -6009302.55242  22195116.1404   22195115.9314
        51.0004         44.0004
  23708083.7564   20850556.43443  16246472.48342  23708086.8084   23708086.0454
        46.0004         40.0004
  22360249.8854   18871700.25443  14706554.02442  22360251.1284   22360250.6434
        52.0004         44.0004
  24145166.9774   -5135745.43343  -3920560.34242  24145168.9304   24145168.8014
        44.0004         37.0004
 04  6 18 16 32 40.0000000  0  9G22G21G18G 6G16G15G29G26G 3
  21598608.5954    9420128.73143   7345468.57742  21598609.0324   21598605.2594
        55.0004         48.0004
  20567795.8934   14551405.93544  11346535.43642  20567797.0634   20567793.3774
        57.0004         50.0004
  20430257.0554   -3446893.41843  -2676410.41442  20430258.2914   20430254.9804
        56.0004         51.0004
  21858254.6664   22015012.91343  17153221.91842  21858256.0364   21858254.7814
        53.0004         46.0004
  23649516.3704   -1017902.74943   -788297.65242  23649518.3264   23649516.5594
        47.0004         41.0004
  22186606.6184   -7772460.53143  -6044143.26542  22186607.7334   22186606.4994
        51.0004         44.0004
  23717631.8974   20900728.92543  16285567.88242  23717633.5474   23717633.6794
        47.0004         40.0004
  22368017.7444   18912522.23143  14738363.33542  22368019.4934   22368016.3774
        52.0004         44.0004
  24133098.8594   -5199167.37643  -3969980.01842  24133100.1084   24133097.9154
        44.0004         37.0004
 04  6 18 16 33  0.0000000  0  9G22G21G18G 6G16G15G29G26G 3
  21591512.6334    9382838.29443   7316411.12242  21591512.8704   21591509.3234
        55.0004         48.0004
  20567108.6964   14547794.70544  11343721.48442  20567109.8694   20567106.0574
        57.0004         50.0004
  20429798.4454   -3449303.26943  -2678288.21442  20429799.7984   20429796.1074
        56.0004         51.0004
  21869106.9474   22072041.80243  17197659.96342  21869108.7424   21869107.4584
        53.0004         46.0004
  23652919.9964   -1000014.96843   -774359.17642  23652922.4694   23652921.2644
        48.0004         41.0004
  22178105.1284   -7817138.41943  -6078957.17942  22178105.9554   22178104.0604
        51.0004         44.0004
  23727211.3494   20951071.13943  16324795.53742  23727213.1364   23727212.6464
        47.0004         40.0004
  22375833.8904   18953597.51243  14770370.02442  22375835.5594   22375834.7214
        52.0004         44.0004
  24121047.6534   -5262497.53943  -4019328.17542  24121049.5354   24121047.7434
        45.0004         38.0004
 04  6 18 16 33 20.0000000  0  9G22G21G18G 6G16G15G29G26G 3
  21584446.2924    9345705.46343   7287476.47642  21584446.9064   21584442.7244
        55.0004         48.0004
  20566440.9764   14544285.94344  11340987.37742  20566442.1984   20566438.1634
        57.0004         50.0004
  20429373.1194   -3451538.70943  -2680030.11242  20429374.2874   20429370.7314
        56.0004         51.0004
  21879988.4854   22129224.61343  17242217.94942  21879989.5314   21879987.7784
        53.0004         46.0004
  23656362.0744    -981927.72543   -760265.27242  23656363.2104   23656362.7534
        47.0004         41.0004
  22169609.7554   -7861780.21243  -6113742.97042  22169610.2854   22169609.3574
        51.0004         44.0004
  23736823.7054   21001584.09243  16364156.24042  23736825.9224   23736824.1504
        47.0004         40.0004
  22383698.9524   18994927.06443  14802574.84242  22383700.2204   22383699.4674
        52.0004         44.0004
  24109014.2184   -5325733.74843  -4068603.12842  24109016.4134   24109015.6644
        45.0004         38.0004
 04  6 18 16 33 40.0000000  0  9G22G21G18G 6G16G15G29G26G 3
  21577409.8214    9308728.60543   7258663.37242  21577410.1074   21577406.1534
        55.0004         48.0004
  20565792.5764   14540878.10044  11338331.91042  20565793.4854   20565789.9744
        57.0004         50.0004
  20428980.6174   -3453601.57243  -2681637.53342  20428981.6094   20428978.1384
        56.0004         51.0004
  21890899.0104   22186559.16743  17286894.17742  21890900.6694   21890899.2544
        53.0004         46.0004
  23659841.1824    -963643.20943   -746017.65542  23659842.1764   23659842.6674
        47.0004         41.0004
  22161121.1384   -7906387.39043  -6148501.78442  22161122.2904   22161121.0504
        51.0004         44.0004
  23746468.2984   21052265.25943  16403648.03042  23746471.3794   23746469.1534
        47.0004         40.0004
  22391611.4984   19036508.60043  14834976.00442  22391613.0654   22391611.1004
        52.0004         44.0004
  24096998.2514   -5388876.87143  -4117805.53642  24096998.4204   24096998.0084
        45.0004         38.0004
 04  6 18 16 34  0.0000000  0  9G22G21G18G 6G16G15G29G26G 3
  21570403.3094    9271908.89543   7229972.71842  21570403.8194   21570399.6844
        55.0004         48.0004
  20565163.6304   14537572.63444  11335756.21642  20565164.4934   20565160.8794
        57.0004         50.0004
  20428620.9284   -3455490.87043  -2683109.70742  20428622.3004   20428618.8164
        56.0004         51.0004
  21901838.5074   22244045.98043  17331689.04042  21901839.1224   21901838.3734
        53.0004         46.0004
  23663358.4514    -945160.81743   -731615.83642  23663360.9534   23663360.1804
        47.0004         41.0004
  22152639.3924   -7950958.51043  -6183232.50242  22152640.4004   22152640.0274
        52.0004         44.0004
  23756144.8544   21103115.31543  16443271.41842  23756145.9124   23756144.7394
        47.0004         40.0004
  22399572.2024   19078342.47443  14867573.79642  22399573.7274   22399572.6434
        52.0004         44.0004
  24085000.8324   -5451924.98743  -4166933.91342  24085002.2254   24085000.8384
        45.0004         37.0004
 04  6 18 16 34 20.0000000  0  9G22G21G18G 6G16G15G29G26G 3
  21563425.6184    9235241.42843   7201400.69942  21563426.1524   21563421.9684
        55.0004         48.0004
  20564553.1114   14534364.77644  11333256.58042  20564554.3184   20564550.6294
        57.0004         50.0004
  20428293.5344   -3457212.12243  -2684450.93542  20428294.7364   20428290.9954
        56.0004         51.0004
  21912805.8754   22301679.63043  17376598.32742  21912807.6404   21912806.4064
        53.0004         46.0004
  23666913.0054    -926486.02743   -717064.09742  23666913.5064   23666914.3684
        48.0004         41.0004
  22144163.9084   -7995498.44043  -6217938.92242  22144165.5074   22144163.6014
        51.0004         44.0004
  23765852.3074   21154128.55843  16483021.97242  23765853.6904   23765853.9154
        47.0004         40.0004
  22407580.1654   19120423.13143  14900363.89542  22407582.0914   22407580.3524
        52.0004         44.0004
  24073019.8814   -5514882.43743  -4215991.66842  24073020.3284   24073020.9534
        45.0004         38.0004
 04  6 18 16 34 40.0000000  0  9G22G21G18G 6G16G15G29G26G 3
  21556478.5124    9198733.74543   7172953.18542  21556478.8714   21556475.1794
        55.0004         48.0004
  20563962.7574   14531262.33444  11330839.08742  20563964.0054   20563960.1414
        57.0004         50.0004
  20427999.1274   -3458758.48543  -2685655.89242  20428000.4964   20427996.9424
        56.0004         51.0004
  21923802.4604   22359466.72543  17421627.18042  21923803.6034   21923802.7294
        53.0004         46.0004
  23670504.1954    -907612.06143   -702357.16542  23670504.9004   23670503.6144
        48.0004         41.0004
  22135695.5364   -8039999.50843  -6252615.05742  22135696.7084   22135695.8914
        52.0004         44.0004
  23775592.4164   21205311.42243  16522904.67742  23775593.7064   23775592.7884
        47.0004         40.0004
  22415636.2094   19162757.30143  14933351.53042  22415638.4854   22415636.7344
        52.0004         44.0004
  24061058.0374   -5577740.98143  -4264972.33242  24061059.6754   24061059.2504
        45.0004         38.0004
 04  6 18 16 35  0.0000000  0  9G22G21G18G 6G16G15G29G26G 3
  21549560.4954    9162380.33843   7144625.88442  21549561.1654   21549557.4744
        55.0004         48.0004
  20563391.4164   14528259.94044  11328499.55642  20563392.3234   20563388.8404
        57.0004         50.0004
  20427737.1834   -3460135.55243  -2686728.92842  20427738.2454   20427734.8034
        56.0004         51.0004
  21934827.0114   22417401.24643  17466770.90142  21934828.1324   21934826.8004
        53.0004         46.0004
  23674132.0884    -888545.05743   -687499.79742  23674133.1994   23674133.5604
        47.0004         41.0004
  22127233.5614   -8084467.13143  -6287265.13142  22127235.0384   22127234.3524
        51.0004         44.0004
  23785363.0294   21256657.84343  16562914.84842  23785364.5234   23785364.1264
        47.0004         40.0004
  22423738.8044   19205338.61143  14966531.74642  22423741.1994   22423738.8664
        52.0004         44.0004
  24049114.0854   -5640505.50543  -4313879.72742  24049116.3024   24049115.1574
        45.0004         38.0004
 04  6 18 16 35 20.0000000  0  9G22G21G18G 6G16G15G29G26G 3
  21542672.9154    9126185.02543   7116421.77742  21542672.8844   21542669.1784
        55.0004         48.0004
  20562839.8864   14525361.65144  11326241.14042  20562841.0114   20562837.2584
        57.0004         50.0004
  20427507.9444   -3461339.59743  -2687667.13842  20427509.2564   20427505.7904
        56.0004         51.0004
  21945880.5634   22475486.38843  17512031.99742  21945881.6484   21945880.6234
        53.0004         46.0004
  23677798.3924    -869281.69743   -672489.42442  23677800.0404   23677798.4964
        47.0004         41.0004
  22118779.1954   -8128897.31343  -6321886.03242  22118779.5114   22118778.4194
        52.0004         45.0004
  23795165.5264   21308171.03443  16603054.95442  23795166.4844   23795167.3794
        47.0004         40.0004
  22431889.5174   19248170.39043  14999907.13442  22431890.7174   22431888.5934
        52.0004         44.0004
  24037189.7894   -5703171.49543  -4362710.34542  24037192.3324   24037189.9064
        45.0004         38.0004
 04  6 18 16 35 40.0000000  0  9G22G21G18G 6G16G15G29G26G 3
  21535815.3814    9090147.53843   7088340.64642  21535815.8304   21535811.3194
        55.0004         48.0004
  20562308.1794   14522567.37344  11324063.77442  20562309.2514   20562305.5924
        57.0004         50.0004
  20427311.7524   -3462371.41243  -2688471.14842  20427312.7994   20427309.6784
        56.0004         51.0004
  21956962.0214   22533721.23643  17557409.75042  21956964.0154   21956962.8364
        53.0004         46.0004
  23681501.2604    -849822.81743   -657326.71042  23681501.9444   23681502.1594
        48.0004         41.0004
  22110331.3684   -8173290.01443  -6356477.72042  22110331.3354   22110331.8694
        51.0004         45.0004
  23805000.2744   21359849.94243  16643324.20042  23805001.3084   23805000.2414
        47.0004         40.0004
  22440087.4034   19291251.64043  15033476.90642  22440088.7534   22440087.6084
        51.0004         44.0004
  24025284.1794   -5765738.32043  -4411463.70942  24025284.5564   24025282.8304
        44.0004         38.0004
 04  6 18 16 36  0.0000000  0  9G22G21G18G 6G16G15G29G26G 3
  21528986.8874    9054264.26143   7060379.68042  21528987.2814   21528983.1744
        55.0004         48.0004
  20561795.5864   14519873.67844  11321964.78742  20561796.7464   20561792.8914
        57.0004         50.0004
  20427147.2144   -3463235.10143  -2689144.14742  20427148.6254   20427144.9514
        56.0004         51.0004
  21968071.5944   22592101.66443  17602900.93442  21968072.5074   21968072.4184
        53.0004         46.0004
  23685240.3894    -830172.65943   -642014.94542  23685241.5224   23685240.0564
        47.0004         41.0004
  22101890.4654   -8217648.71543  -6391042.92142  22101891.2174   22101889.5974
        52.0004         45.0004
  23814864.9154   21411690.12743  16683719.10342  23814866.4614   23814864.5684
        47.0004         40.0004
  22448332.6754   19334577.97943  15067237.66742  22448335.0264   22448332.3164
        51.0004         44.0004
  24013395.1634   -5828208.95443  -4460142.10642  24013395.7554   24013396.5874
        44.0004         38.0004
 04  6 18 16 36 20.0000000  0  9G22G21G18G 6G16G15G29G26G 3
  21522188.0404    9018536.94443   7032540.23842  21522188.6754   21522183.8314
        56.0004         48.0004
  20561302.5384   14517282.53844  11319945.70942  20561303.6264   20561299.8734
        57.0004         50.0004
  20427015.1694   -3463929.06543  -2689684.89942  20427016.4414   20427012.7434
        56.0004         51.0004
  21979209.0104   22650628.63143  17648506.30442  21979210.1754   21979209.3834
        53.0004         46.0004
  23689016.9174    -810330.24143   -626553.36242  23689018.1614   23689016.6034
        47.0004         41.0004
  22093455.7154   -8261971.61343  -6425580.23042  22093456.0194   22093455.1664
        52.0004         45.0004
  23824760.4734   21463692.72143  16724240.56842  23824761.3834   23824760.5044
        46.0004         40.0004
  22456624.2174   19378150.40143  15101190.17142  22456625.5894   22456624.7294
        52.0004         44.0004
  24001526.4624   -5890581.13543  -4508743.77942  24001527.8964   24001527.6234
        45.0004         38.0004
 04  6 18 16 36 40.0000000  0  9G22G21G18G 6G16G15G29G26G 3
  21515419.6434    8982969.55343   7004825.41442  21515420.0254   21515416.2324
        55.0004         48.0004
  20560829.9134   14514798.38644  11318010.00342  20560830.9304   20560827.1604
        57.0004         50.0004
  20426916.2804   -3464449.87143  -2690090.71942  20426917.5474   20426913.7974
        56.0004         51.0004
  21990374.7494   22709305.48843  17694228.46842  21990376.5494   21990375.0324
        53.0004         46.0004
  23692829.6634    -790292.00943   -610939.20342  23692832.2444   23692830.0534
        47.0004         41.0004
  22085028.8624   -8306254.42143  -6460086.28742  22085029.9254   22085029.2694
        52.0004         44.0004
  23834687.9044   21515860.79543  16764890.98542  23834690.0444   23834688.5234
        47.0004         40.0004
  22464963.2354   19421972.04143  15135336.87942  22464964.3074   22464962.3474
        51.0004         44.0004
  23989677.5624   -5952850.03543  -4557264.97342  23989679.4304   23989680.0874
        45.0004         38.0004
 04  6 18 16 37  0.0000000  0  9G22G21G18G 6G16G15G29G26G 3
  21508680.6124    8947555.14743   6977229.80242  21508680.6574   21508677.1124
        55.0004         48.0004
  20560376.1214   14512414.14444  11316152.14642  20560377.0734   20560373.5894
        57.0004         50.0004
  20426848.5994   -3464804.63643  -2690367.16042  20426849.7424   20426846.3144
        56.0004         51.0004
  22001567.7604   22768124.58343  17740061.47342  22001568.7734   22001568.3894
        53.0004         46.0004
  23696678.3664    -770065.64943   -595178.46442  23696680.1164   23696679.3724
        47.0004         41.0004
  22076608.8074   -8350503.96543  -6494566.43042  22076609.1264   22076608.4464
        52.0004         44.0004
  23844645.2684   21568186.82143  16805664.46742  23844648.2714   23844645.3074
        46.0004         40.0004
  22473348.0954   19466035.39043  15169671.93942  22473349.9504   22473348.6324
        51.0004         44.0004
  23977846.3194   -6015022.01743  -4605710.64842  23977848.0894   23977846.2504
        45.0004         38.0004
 04  6 18 16 37 20.0000000  0  9G22G21G18G 6G16G15G29G26G 3
  21501971.8134    8912300.60043   6949758.75442  21501972.1624   21501968.4364
        55.0004         48.0004
  20559942.7564   14510136.80444  11314377.59042  20559943.9074   20559940.2304
        57.0004         50.0004
  20426813.9064   -3464986.92643  -2690509.20242  20426815.0494   20426811.5644
        56.0004         51.0004
  22012789.0944   22827092.19243  17786010.20442  22012790.3194   22012790.1344
        53.0004         46.0004
  23700564.5054    -749645.11743   -579266.41442  23700566.1244   23700564.5224
        47.0004         41.0004
  22068195.8954   -8394713.20743  -6529015.16842  22068196.7534   22068195.3414
        52.0004         45.0004
  23854633.9134   21620676.87343  16846565.78242  23854636.8124   23854633.4224
        47.0004         40.0004
  22481780.0764   19510346.40543  15204199.97742  22481781.8564   22481781.0354
        51.0004         44.0004
  23966035.9044   -6077089.63643  -4654074.99342  23966036.8924   23966035.7484
        45.0004         38.0004
 04  6 18 16 37 40.0000000  0  9G22G21G18G 6G16G15G29G26G 3
  21495292.5494    8877200.55443   6922408.09442  21495292.9184   21495289.0554
        55.0004         48.0004
  20559528.8724   14507961.58444  11312682.60942  20559529.9334   20559526.3244
        57.0004         50.0004
  20426810.9464   -3465002.27143  -2690521.15542  20426812.0384   20426808.7374
        56.0004         51.0004
  22024037.2994   22886202.37543  17832070.03542  22024038.8094   22024037.8424
        53.0004         46.0004
  23704486.1104    -729036.12343   -563207.51642  23704488.5614   23704487.1804
        47.0004         41.0004
  22059790.0274   -8438887.24943  -6563436.48542  22059790.2624   22059789.5074
        51.0004         44.0004
  23864652.3364   21673324.86343  16887590.15842  23864654.1444   23864653.0324
        46.0004         40.0004
  22490258.0694   19554899.12943  15238916.35542  22490259.3624   22490257.4294
        51.0004         44.0004
  23954243.5464   -6139057.32143  -4702361.47742  23954243.4854   23954244.6694
        46.0004         38.0004
 04  6 18 16 38  0.0000000  0  9G22G21G18G 6G16G15G29G26G 3
  21488643.3874    8842259.46043   6895181.29542  21488643.7644   21488639.9044
        55.0004         48.0004
  20559135.1154   14505892.90744  11311070.64842  20559135.9374   20559132.8454
        57.0004         50.0004
  20426840.5084   -3464846.87343  -2690400.06442  20426841.7464   20426838.3584
        56.0004         51.0004
  22035313.4664   22945458.83243  17878243.84142  22035314.5844   22035313.9714
        53.0004         46.0004
  23708445.5934    -708234.95943   -546998.87842  23708446.7404   23708444.4284
        47.0004         40.0004
  22051390.9254   -8483021.66543  -6597826.91842  22051391.9014   22051391.1214
        51.0004         45.0004
  23874702.0124   21726134.26943  16928740.31642  23874702.8994   23874700.5014
        46.0004         40.0004
  22498783.1224   19599696.98643  15273823.75542  22498785.2944   22498782.8394
        51.0004         44.0004
  23942471.5974   -6200920.12243  -4750566.22542  23942473.7824   23942471.8114
        45.0004         38.0004
 04  6 18 16 38 20.0000000  0  9G22G21G18G 6G16G15G29G26G 3
  21482024.1554    8807475.23943   6868076.73042  21482024.4494   21482020.9334
        56.0004         48.0004
  20558761.5334   14503929.04344  11309540.35942  20558762.3814   20558759.0014
        57.0004         50.0004
  20426902.2904   -3464523.00543  -2690147.70142  20426903.4524   20426900.0214
        56.0004         51.0004
  22046616.9704   23004858.90943  17924529.55842  22046618.7074   22046616.8924
        53.0004         46.0004
  23712439.3444    -687244.16843   -530642.47242  23712440.5694   23712439.9264
        47.0004         40.0004
  22042999.8534   -8527118.15343  -6632187.79442  22043000.8024   22043000.1044
        52.0004         45.0004
  23884781.0964   21779102.58343  16970014.28142  23884781.9164   23884781.8094
        46.0004         40.0004
  22507354.1714   19644737.51343  15308920.23942  22507355.7734   22507354.3334
        51.0004         44.0004
  23930719.3264   -6262679.16543  -4798690.12842  23930721.5784   23930719.4004
        46.0004         38.0004
 04  6 18 16 38 40.0000000  0  9G22G21G18G 6G16G15G29G26G 3
  21475434.2754    8772844.90343   6841092.07842  21475434.4994   21475430.6494
        56.0004         48.0004
  20558407.3094   14502067.14244  11308089.52242  20558408.1324   20558404.7774
        57.0004         50.0004
  20426995.2104   -3464034.12443  -2689766.75542  20426996.4224   20426992.9514
        56.0004         51.0004
  22057946.9674   23064398.98443  17970924.36842  22057948.1844   22057947.5094
        52.0004         46.0004
  23716468.6254    -666067.55143   -514141.26042  23716469.8264   23716470.2324
        46.0004         40.0004
  22034615.4434   -8571179.59443  -6666521.36842  22034616.2034   22034615.3064
        51.0004         45.0004
  23894890.1814   21832225.97243  17011409.08842  23894892.0374   23894891.5904
        46.0004         40.0004
  22515970.3124   19690016.73843  15344202.72542  22515972.6024   22515971.2164
        51.0004         44.0004
  23918986.1654   -6324336.83543  -4846735.03242  23918988.2554   23918988.2484
        45.0004         38.0004
 04  6 18 16 39  0.0000000  0  9G22G21G18G 6G16G15G29G26G 3
  21468874.7664    8738374.64043   6814232.15342  21468875.1584   21468870.8334
        56.0004         48.0004
  20558073.5334   14500313.70444  11306723.20242  20558074.3534   20558070.7614
        57.0004         50.0004
  20427120.8804   -3463374.39543  -2689252.67842  20427121.8504   20427118.5774
        56.0004         51.0004
  22069304.7874   23124084.47443  18017432.48142  22069306.5494   22069305.8284
        52.0004         46.0004
  23720535.7354    -644699.56243   -497490.93342  23720536.6044   23720534.4104
        47.0004         40.0004
  22026238.3594   -8615199.59043  -6700822.63942  22026239.1894   22026238.4894
        52.0004         45.0004
  23905029.9834   21885509.80843  17052928.93542  23905031.1734   23905030.9064
        46.0004         40.0004
  22524633.7164   19735540.25843  15379675.56942  22524634.5904   22524633.6734
        51.0004         44.0004
  23907273.4554   -6385886.17443  -4894695.53042  23907275.9074   23907275.1084
        45.0004         38.0004
 04  6 18 16 39 20.0000000  0  9G22G21G18G 6G16G15G29G26G 3
  21462344.8094    8704059.29443   6787492.94442  21462345.2994   21462340.9924
        56.0004         48.0004
  20557759.4744   14498663.70644  11305437.48642  20557760.5734   20557757.0404
        57.0004         50.0004
  20427277.8404   -3462549.05943  -2688609.55742  20427279.0874   20427275.6414
        56.0004         51.0004
  22080689.3914   23183909.75443  18064049.52842  22080690.5174   22080690.9934
        52.0004         46.0004
  23724636.5364    -623145.90743   -480695.93942  23724638.0514   23724638.0374
        47.0004         40.0004
  22017868.6854   -8659183.20943  -6735095.56642  22017870.2164   22017868.1794
        52.0004         45.0004
  23915198.6654   21938948.31843  17094569.29342  23915200.9374   23915199.8754
        46.0004         40.0004
  22533340.9564   19781302.07743  15415334.10342  22533342.4794   22533340.6644
        51.0004         44.0004
  23895580.6594   -6447331.76643  -4942575.18642  23895581.1884   23895582.0554
        44.0004         39.0004
 04  6 18 16 39 40.0000000  0  9G22G21G18G 6G16G15G29G26G 3
  21455844.8244    8669901.85943   6760876.77942  21455845.0164   21455841.2944
        56.0004         48.0004
  20557465.9914   14497120.29344  11304234.82442  20557466.9544   20557463.2934
        57.0004         50.0004
  20427466.8734   -3461555.52643  -2687835.37542  20427467.9074   20427464.6704
        56.0004         51.0004
  22092100.7424   23243877.06543  18110777.25342  22092102.0034   22092101.4204
        52.0004         46.0004
  23728774.4794    -601404.22643   -463754.41542  23728774.9834   23728775.2674
        47.0004         40.0004
  22009506.2154   -8703127.08843  -6769337.53742  22009507.5734   22009506.4704
        52.0004         45.0004
  23925397.2624   21992543.70043  17136331.89242  23925398.2214   23925398.5654
        45.0004         40.0004
  22542095.2164   19827304.45143  15451180.08342  22542096.7514   22542096.3514
        50.0004         43.0004
  23883908.3134   -6508669.73243  -4990370.97842  23883909.5794   23883907.8864
        44.0004         38.0004
 04  6 18 16 40  0.0000000  0  9G22G21G18G 6G16G15G29G26G 3
  21449374.6954    8635901.42943   6734382.96442  21449375.1704   21449371.1234
        56.0004         48.0004
  20557192.3334   14495682.81444  11303114.70842  20557193.5264   20557189.8654
        57.0004         50.0004
  20427687.7614   -3460395.00043  -2686931.06942  20427688.8744   20427685.5614
        56.0004         51.0004
  22103538.9194   23303985.00143  18157614.54942  22103540.8124   22103540.0804
        52.0004         46.0004
  23732947.6104    -579475.99643   -446667.54242  23732948.4994   23732946.2914
        47.0004         40.0004
  22001151.4824   -8747031.91443  -6803549.06242  22001152.1674   22001151.9664
        52.0004         45.0004
  23935625.8384   22046294.32243  17178215.45542  23935627.3204   23935628.1444
        45.0004         40.0004
  22550895.0674   19873545.79443  15487212.27042  22550896.6584   22550894.6824
        51.0004         43.0004
  23872256.4444   -6569900.23643  -5038083.03042  23872257.8254   23872257.4374
        44.0004         39.0004
 04  6 18 16 40 20.0000000  0  9G22G21G18G 6G16G15G29G26G 3
  21442934.0304    8602055.17943   6708009.28642  21442934.3474   21442930.3494
        56.0004         48.0004
  20556938.4564   14494348.86744  11302075.26442  20556939.4244   20556935.9624
        57.0004         50.0004
  20427939.6204   -3459070.97343  -2685899.35842  20427941.0774   20427937.5084
        56.0004         51.0004
  22115003.3264   23364229.97043  18204558.62042  22115004.7664   22115003.8104
        52.0004         46.0004
  23737154.4974    -557364.73143   -429438.03842  23737155.3274   23737155.7684
        46.0004         40.0004
  21992803.5784   -8790900.33843  -6837732.23342  21992804.1724   21992804.1684
        52.0004         45.0004
  23945883.1154   22100196.75943  17220217.30642  23945885.1954   23945885.5674
        45.0004         39.0004
  22559739.2444   19920022.56043  15523427.90542  22559740.2754   22559738.8084
        51.0004         44.0004
  23860624.3294   -6631025.51143  -5085713.09542  23860625.2594   23860627.2684
        45.0004         39.0004
 04  6 18 16 40 40.0000000  0  9G22G21G18G 6G16G15G29G26G 3
  21436523.6074    8568368.27143   6681759.77242  21436523.6774   21436520.2204
        56.0004         48.0004
  20556705.3864   14493123.89844  11301120.73942  20556706.5384   20556702.7624
        57.0004         50.0004
  20428223.6284   -3457578.72643  -2684736.56942  20428224.8734   20428221.5174
        56.0004         51.0004
  22126494.3024   23424616.41343  18251612.93642  22126496.3864   22126494.5424
        52.0004         46.0004
  23741397.7034    -535065.85043   -412062.33442  23741400.1644   23741398.6324
        46.0004         40.0004
  21984463.5754   -8834727.11043  -6871882.93942  21984464.6954   21984463.6464
        52.0004         45.0004
  23956170.2524   22154255.24743  17262340.77042  23956171.6944   23956170.0564
        45.0004         39.0004
  22568628.9644   19966738.92043  15559830.24542  22568630.7874   22568630.5064
        51.0004         44.0004
  23849014.0114   -6692039.64143  -5133256.55142  23849015.7244   23849014.2294
        45.0004         39.0004
 04  6 18 16 41  0.0000000  0  9G22G21G18G 6G16G15G29G26G 3
  21430143.0284    8534838.33943   6655632.57742  21430143.2864   21430139.5494
        56.0004         48.0004
  20556492.7414   14492005.88944  11300249.55942  20556493.7414   20556490.0284
        57.0004         50.0004
  20428539.0784   -3455920.48143  -2683444.42842  20428540.4844   20428536.9914
        56.0004         51.0004
  22138012.1194   23485141.65343  18298775.39742  22138013.8654   22138013.0424
        52.0004         46.0004
  23745676.3434    -512582.27643   -394542.71842  23745676.6684   23745676.9614
        46.0004         40.0004
  21976131.6544   -8878514.13943  -6906002.68742  21976131.7864   21976131.2404
        52.0004         45.0004
  23966486.7744   22208466.92543  17304583.60142  23966489.2864   23966488.4724
        45.0004         40.0004
  22577564.0404   20013692.12443  15596417.13442  22577564.7094   22577564.7834
        51.0004         44.0004
  23837424.1254   -6752944.17043  -5180714.59842  23837425.5124   23837423.5304
        45.0004         39.0004
 04  6 18 16 41 20.0000000  0  9G22G21G18G 6G16G15G29G26G 3
  21423792.3744    8501465.24543   6629627.59742  21423792.6874   21423788.7624
        56.0004         49.0004
  20556300.2464   14490994.81844  11299461.71042  20556301.2314   20556297.6264
        57.0004         50.0004
  20428886.3414   -3454096.91943  -2682023.47042  20428887.2614   20428883.9614
        56.0004         51.0004
  22149555.9574   23545804.58743  18346045.15242  22149556.9484   22149556.4464
        52.0004         46.0004
  23749989.9664    -489914.96443   -376879.93742  23749990.8494   23749990.2004
        46.0004         40.0004
  21967806.8824   -8922261.50643  -6940091.53142  21967806.5074   21967806.3654
        51.0004         45.0004
  23976831.0324   22262830.70343  17346944.95542  23976834.2334   23976832.2354
        45.0004         39.0004
  22586543.5044   20060880.85343  15633187.54542  22586545.6504   22586544.6394
        51.0004         43.0004
  23825854.9864   -6813738.58843  -5228086.84842  23825856.8304   23825856.1044
        45.0004         39.0004
 04  6 18 16 41 40.0000000  0  9G22G21G18G 6G16G15G29G26G 3
  21417470.7614    8468246.19743   6603742.64842  21417471.3184   21417467.3524
        56.0004         49.0004
  20556127.6064   14490087.96144  11298755.06842  20556128.6914   20556125.1194
        57.0004         50.0004
  20429264.2094   -3452111.19543  -2680476.15642  20429265.1354   20429261.7944
        56.0004         51.0004
  22161125.4624   23606601.97943  18393419.69042  22161126.4784   22161126.9734
        52.0004         46.0004
  23754338.5004    -467067.26043   -359076.58842  23754338.4634   23754338.2294
        46.0004         40.0004
  21959488.8014   -8965971.81643  -6974151.48242  21959489.2924   21959488.2764
        51.0004         45.0004
  23987205.5144   22317343.10943  17389422.11042  23987207.0574   23987205.5864
        45.0004         39.0004
  22595567.3064   20108301.80343  15670138.90642  22595568.7164   22595568.9694
        50.0004         43.0004
  23814306.7554   -6874424.87043  -5275374.83342  23814307.6744   23814307.9084
        45.0004         39.0004
 04  6 18 16 42  0.0000000  0  9G22G21G18G 6G16G15G29G26G 3
  21411180.1194    8435188.30843   6577983.27742  21411180.7004   21411176.3644
        56.0004         49.0004
  20555976.2504   14489292.43444  11298135.17642  20555977.3454   20555973.4514
        57.0004         50.0004
  20429674.2114   -3449956.45243  -2678797.13942  20429675.3534   20429671.7814
        56.0004         51.0004
  22172721.4474   23667540.12243  18440903.90042  22172722.6584   22172722.5644
        52.0004         45.0004
  23758721.4844    -444032.83043   -341127.73642  23758722.4524   23758722.4544
        47.0004         39.0004
  21951179.1414   -9009637.69443  -7008176.82342  21951180.4414   21951178.8954
        52.0004         45.0004
  23997608.0654   22372010.47543  17432020.02242  23997610.2724   23997609.4504
        45.0004         40.0004
  22604636.6994   20155961.31843  15707276.15542  22604637.9224   22604636.5234
        50.0004         43.0004
  23802781.2494   -6934995.33643  -5322572.57342  23802781.3664   23802781.8854
        45.0004         39.0004
 04  6 18 16 42 20.0000000  0  9G22G21G18G 6G16G15G29G26G 3
  21404918.8944    8402284.95443   6552344.32342  21404919.2254   21404915.5364
        56.0004         49.0004
  20555845.0554   14488602.20144  11297597.32842  20555846.0264   20555842.1964
        57.0004         50.0004
  20430115.0024   -3447639.82243  -2676991.97442  20430116.2594   20430112.8154
        56.0004         51.0004
  22184343.3574   23728611.80443  18488492.17342  22184344.8244   22184344.0144
        52.0004         45.0004
  23763138.5654    -420818.83143   -323038.95842  23763140.5934   23763138.4614
        46.0004         39.0004
  21942877.1844   -9053265.64743  -7042172.60342  21942877.0444   21942876.6114
        52.0004         45.0004
  24008038.8394   22426825.47043  17474732.97242  24008040.4154   24008039.6064
        44.0004         39.0004
  22613749.9214   20203852.00243  15744593.55042  22613752.1834   22613751.4454
        51.0004         43.0004
  23791275.9524   -6995455.90843  -5369684.68742  23791277.0754   23791277.0734
        45.0004         39.0004
 04  6 18 16 42 40.0000000  0  9G22G21G18G 6G16G15G29G26G 3
  21398687.5584    8369539.41443   6526828.34742  21398688.1694   21398684.0494
        56.0004         49.0004
  20555734.2854   14488021.01944  11297144.45442  20555735.2704   20555731.7834
        57.0004         50.0004
  20430587.2574   -3445158.08843  -2675058.15542  20430588.3874   20430585.0434
        56.0004         51.0004
  22195990.7254   23789819.92943  18536186.75242  22195992.3434   22195990.7314
        52.0004         45.0004
  23767591.4054    -397422.50243   -304808.10542  23767591.4554   23767592.0124
        45.0004         39.0004
  21934583.2804   -9096851.88543  -7076135.88242  21934584.1894   21934582.2414
        52.0004         45.0004
  24018498.1004   22481790.83743  17517563.08342  24018500.0034   24018500.4854
        44.0004         39.0004
  22622908.1094   20251976.51043  15782093.14242  22622910.3724   22622908.1414
        51.0004         43.0004
  23779792.6194   -7055802.49643  -5416707.97842  23779793.8204   23779793.4364
        46.0004         39.0004
 04  6 18 16 43  0.0000000  0  9G22G21G18G 6G16G15G29G26G 3
  21392485.7824    8336949.12443   6501433.33542  21392485.9424   21392482.2864
        56.0004         49.0004
  20555644.0454   14487546.42744  11296774.63642  20555645.0124   20555641.5064
        57.0004         50.0004
  20431090.3624   -3442514.35343  -2672998.10342  20431091.5564   20431087.9394
        56.0004         51.0004
  22207663.5734   23851161.00143  18583984.92942  22207664.9484   22207664.7164
        52.0004         45.0004
  23772077.6454    -373847.11443   -286437.72542  23772078.9284   23772078.7234
        45.0004         39.0004
  21926296.4814   -9140398.87743  -7110068.58742  21926297.6424   21926295.6124
        52.0004         45.0004
  24028985.9254   22536903.22943  17560507.75342  24028988.1654   24028986.8324
        44.0004         39.0004
  22632109.6274   20300331.31443  15819772.19442  22632111.1824   22632109.3074
        51.0004         43.0004
  23768330.0504   -7116036.76143  -5463643.74642  23768331.2494   23768331.8504
        46.0004         39.0004
 04  6 18 16 43 20.0000000  0  9G22G21G18G 6G16G15G29G26G 3
  21386314.1574    8304516.54243   6476161.22042  21386314.2974   21386310.8454
        56.0004         49.0004
  20555574.6554   14487181.12244  11296489.97642  20555575.6754   20555571.9404
        57.0004         50.0004
  20431624.6844   -3439706.39643  -2670810.08342  20431625.7594   20431622.5414
        56.0004         51.0004
  22219362.2044   23912636.99243  18631888.22142  22219363.6484   22219362.9174
        52.0004         45.0004
  23776597.6784    -350090.78143   -267926.35442  23776600.2804   23776599.3984
        46.0004         39.0004
  21918017.6424   -9183903.83443  -7143968.52942  21918018.9024   21918017.5624
        52.0004         45.0004
  24039501.8844   22592164.24143  17603568.23242  24039503.4704   24039502.6164
        44.0004         39.0004
  22641355.1054   20348918.26443  15857632.13842  22641357.6214   22641355.1464
        50.0004         43.0004
  23756888.8414   -7176155.45843  -5510489.46342  23756890.2894   23756889.6364
        46.0004         39.0004
 04  6 18 16 43 40.0000000  0  9G22G21G18G 6G16G15G29G26G 3
  21380172.6004    8272242.48343   6451012.63442  21380172.9334   21380168.9554
        56.0004         49.0004
  20555526.0174   14486926.29044  11296291.40142  20555527.2084   20555523.5414
        57.0004         50.0004
  20432190.4054   -3436733.84043  -2668493.80842  20432191.4424   20432187.9414
        56.0004         51.0004
  22231086.2474   23974248.11843  18679896.83742  22231087.6364   22231087.0134
        52.0004         45.0004
  23781154.2004    -326153.44243   -249273.93542  23781154.0134   23781152.4714
        45.0004         39.0004
  21909747.0644   -9227365.76843  -7177834.95242  21909747.6304   21909746.0694
        52.0004         45.0004
  24050046.5694   22647574.12743  17646744.74642  24050047.8664   24050047.8044
        45.0004         40.0004
  22650644.9774   20397737.32043  15895672.93242  22650646.5534   22650644.6644
        50.0004         43.0004
  23745471.5794   -7236157.18043  -5557244.03042  23745472.1364   23745473.2514
        45.0004         39.0004
 04  6 18 16 44  0.0000000  0  9G22G21G18G 6G16G15G29G26G 3
  21374059.8784    8240119.83443   6425982.02242  21374060.3504   21374056.0344
        56.0004         49.0004
  20555497.1734   14486775.01944  11296173.52342  20555498.3504   20555494.7964
        57.0004         50.0004
  20432785.8124   -3433604.21243  -2666055.13742  20432786.8404   20432783.7794
        56.0004         51.0004
  22242834.7504   24035986.49243  18728004.60642  22242836.0034   22242835.1734
        52.0004         45.0004
  23785741.9094    -302042.87943   -230486.53342  23785742.0934   23785742.1654
        45.0004         39.0004
  21901483.3534   -9270791.54043  -7211673.18642  21901484.2924   21901482.8404
        52.0004         45.0004
  24060617.0974   22703124.90243  17690031.02942  24060618.6954   24060618.0804
        45.0004         40.0004
  22659977.5704   20446780.57443  15933888.42142  22659979.3914   22659979.1004
        50.0004         43.0004
  23734075.1894   -7296048.23043  -5603912.35442  23734075.9664   23734075.4254
        46.0004         39.0004
 04  6 18 16 44 20.0000000  0  9G22G21G18G 6G16G15G29G26G 3
  21367978.0244    8208159.59743   6401077.96642  21367978.1874   21367974.3654
        56.0004         49.0004
  20555490.3174   14486738.48544  11296145.05542  20555491.4064   20555487.7584
        57.0004         50.0004
  20433413.3524   -3430306.56843  -2663485.54442  20433414.7024   20433411.2374
        56.0004         51.0004
  22254609.5764   24097862.46343  18776219.57942  22254610.1454   22254610.6024
        52.0004         45.0004
  23790364.2094    -277748.75343   -211556.10442  23790366.0164   23790366.7744
        45.0004         39.0004
  21893228.6104   -9314169.90243  -7245474.48642  21893230.4844   21893228.2764
        52.0004         45.0004
  24071217.0684   22758826.83543  17733435.09742  24071218.2634   24071218.1914
        45.0004         40.0004
  22669355.3454   20496058.29643  15972286.62042  22669357.1984   22669356.3484
        49.0004         43.0004
  23722701.2944   -7355816.99143  -5650485.38842  23722701.7594   23722702.1504
        46.0004         40.0004
 04  6 18 16 44 40.0000000  0  9G22G21G18G 6G16G15G29G26G 3
  21361925.8784    8176355.89444   6376295.88442  21361926.3534   21361921.9574
        57.0004         49.0004
  20555504.0144   14486810.99144  11296201.54942  20555505.0654   20555501.5434
        57.0004         50.0004
  20434071.7884   -3426847.35943  -2660790.05842  20434072.8014   20434069.4704
        56.0004         51.0004
  22266409.2244   24159869.51743  18824536.69142  22266410.7174   22266409.8974
        51.0004         45.0004
  23795020.9814    -253277.51743   -192487.66642  23795021.5304   23795021.5554
        45.0004         39.0004
  21884982.1104   -9357506.42443  -7279243.18442  21884982.5964   21884981.8144
        52.0004         45.0004
  24081843.8294   22814673.30943  17776951.78842  24081844.3434   24081846.0914
        45.0004         39.0004
  22678776.1734   20545563.80643  16010862.31742  22678777.9694   22678776.9534
        50.0004         43.0004
  23711349.4444   -7415468.55043  -5696967.09942  23711351.5554   23711350.7464
        46.0004         40.0004
 04  6 18 16 45  0.0000000  0  9G22G21G18G 6G16G15G29G26G 3
  21355903.0004    8144705.59144   6351633.33642  21355903.7634   21355899.2734
        57.0004         49.0004
  20555538.1754   14486989.90844  11296340.95442  20555539.3294   20555535.2564
        57.0004         50.0004
  20434760.0654   -3423229.98043  -2657971.31842  20434761.2274   20434757.8994
        56.0004         51.0004
  22278232.7934   24222004.17243  18872953.27342  22278234.5074   22278233.8314
        51.0004         45.0004
  23799710.8164    -228632.85443   -173284.09142  23799711.4344   23799712.5714
        45.0004         39.0004
  21876742.7834   -9400803.92443  -7312981.46742  21876743.1714   21876742.7084
        52.0004         45.0004
  24092498.2564   22870660.77743  17820578.34442  24092498.9994   24092500.1044
        45.0004         39.0004
  22688239.0704   20595293.46243  16049612.68842  22688240.7364   22688239.8704
        50.0004         43.0004
  23700020.1074   -7475005.13143  -5743359.20942  23700021.1284   23700021.3964
        45.0004         39.0004
 04  6 18 16 45 20.0000000  0  9G22G21G18G 6G16G15G29G26G 3
  21349910.5174    8113214.73944   6327095.03242  21349910.7854   21349906.5624
        57.0004         49.0004
  20555593.6254   14487281.63144  11296568.26542  20555594.7004   20555591.1514
        57.0004         50.0004
  20435479.6064   -3419448.66943  -2655024.84242  20435480.7004   20435477.3574
        56.0004         51.0004
  22290081.9854   24284271.76443  18921473.40542  22290083.6254   22290082.8584
        51.0004         45.0004
  23804434.1734    -203809.49843   -153941.27242  23804435.6414   23804435.2164
        45.0004         39.0004
  21868512.0634   -9444056.07643  -7346684.42042  21868512.3924   21868511.3964
        52.0004         45.0004
  24103180.0674   22926794.35243  17864318.75442  24103181.9114   24103181.6234
        45.0004         39.0004
  22697745.6874   20645252.32043  16088541.63642  22697749.1944   22697745.8864
        49.0004         43.0004
  23688714.1544   -7534419.91243  -5789656.41142  23688715.5334   23688715.8454
        45.0004         40.0004
 04  6 18 16 45 40.0000000  0  9G22G21G18G 6G16G15G29G26G 3
  21343947.5834    8081879.75544   6302678.19042  21343948.1474   21343944.0074
        57.0004         49.0004
  20555669.9914   14487682.51944  11296880.64242  20555670.9414   20555667.3444
        57.0004         50.0004
  20436229.5054   -3415507.51743  -2651953.81342  20436230.7164   20436227.2764
        56.0004         51.0004
  22301955.6714   24346667.79043  18970093.62842  22301957.6694   22301956.4574
        51.0004         45.0004
  23809191.4234    -178811.73843   -134462.55442  23809193.6194   23809192.9004
        44.0004         39.0004
  21860289.7394   -9487266.35943  -7380354.74942  21860290.4684   21860287.8324
        52.0004         45.0004
  24113889.1084   22983069.78343  17908169.71142  24113891.4284   24113890.2234
        45.0004         39.0004
  22707295.1954   20695436.00743  16127645.79842  22707298.2044   22707296.7924
        49.0004         42.0004
  23677429.4744   -7593715.85043  -5835860.99542  23677431.5734   23677432.9124
        46.0004         40.0004
 04  6 18 16 46  0.0000000  0  9G22G21G18G 6G16G15G29G26G 3
  21338014.8474    8050702.77144   6278384.45742  21338015.3034   21338010.9494
        57.0004         49.0004
  20555767.4804   14488195.15744  11297280.09142  20555768.5904   20555765.0044
        57.0004         50.0004
  20437010.3974   -3411404.42343  -2648756.59342  20437011.5824   20437008.1834
        56.0004         51.0004
  22313854.0784   24409193.96043  19018815.25342  22313856.1644   22313854.7094
        51.0004         45.0004
  23813982.0214    -153637.75143   -114846.52142  23813983.4214   23813982.7094
        45.0004         39.0004
  21852075.2354   -9530432.24343  -7413990.48242  21852075.9804   21852074.4404
        52.0004         45.0004
  24124624.8904   23039488.64443  17952132.42442  24124627.4184   24124627.9824
        45.0004         40.0004
  22716888.1494   20745845.95343  16166926.25142  22716889.2794   22716888.8964
        49.0004         42.0004
  23666169.7004   -7652890.13443  -5881970.79042  23666171.3434   23666171.6584
        46.0004         40.0004
 04  6 18 16 46 20.0000000  0  9G22G21G18G 6G16G15G29G26G 3
  21332111.4274    8019680.61144   6254211.37242  21332111.9834   21332107.8994
        57.0004         49.0004
  20555885.9034   14488816.74544  11297764.43842  20555886.9944   20555883.2654
        57.0004         50.0004
  20437821.2164   -3407143.13343  -2645436.10542  20437822.4894   20437819.0154
        56.0004         51.0004
  22325776.5074   24471846.33943  19067635.22042  22325778.7774   22325777.8954
        51.0004         45.0004
  23818805.2404    -128291.57643    -95096.31442  23818806.8554   23818807.8934
        45.0004         39.0004
  21843868.9184   -9573556.66143  -7447593.90542  21843870.2544   21843867.9574
        52.0004         45.0004
  24135388.1764   23096046.75543  17996203.63742  24135390.5564   24135389.3354
        45.0004         40.0004
  22726522.9944   20796478.28443  16206379.98542  22726524.4344   22726523.8084
        49.0004         42.0004
  23654932.3104   -7711945.10343  -5927987.62342  23654933.0554   23654933.0224
        46.0004         40.0004
 04  6 18 16 46 40.0000000  0  9G22G21G18G 6G16G15G29G26G 3
  21326238.0514    7988815.30344   6230160.51042  21326238.4354   21326234.5144
        57.0004         49.0004
  20556025.1764   14489549.55944  11298335.45242  20556026.1894   20556022.7134
        57.0004         50.0004
  20438662.5964   -3402721.80243  -2641990.91142  20438663.7414   20438660.2724
        56.0004         51.0004
  22337723.3374   24534626.43343  19116554.70542  22337724.7414   22337723.4824
        51.0004         45.0004
  23823661.6564    -102771.84443    -75210.86542  23823663.2854   23823663.2964
        45.0004         39.0004
  21835670.8844   -9616637.24743  -7481163.17042  21835672.2304   21835670.4854
        52.0004         45.0004
  24146177.3774   23152745.51643  18040384.45042  24146178.7724   24146179.1014
        45.0004         40.0004
  22736200.9174   20847334.15443  16246007.90542  22736203.2664   22736201.5344
        49.0004         42.0004
  23643717.4314   -7770877.95943  -5973909.29342  23643719.2394   23643717.7614
        47.0004         40.0004
 04  6 18 16 47  0.0000000  0  9G22G21G18G 6G16G15G29G26G 3
  21320394.1744    7958106.04244   6206231.24442  21320394.4024   21320390.0264
        57.0004         49.0004
  20556186.0024   14490393.20544  11298992.82842  20556186.7994   20556183.2914
        57.0004         50.0004
  20439534.2294   -3398141.66343  -2638421.97042  20439535.4114   20439531.8684
        56.0004         51.0004
  22349693.9814   24597532.91943  19165572.67442  22349695.3034   22349694.7494
        51.0004         45.0004
  23828550.6744     -77079.90443    -55191.22442  23828552.2554   23828551.9834
        45.0004         39.0004
  21827481.3864   -9659674.57343  -7514698.72942  21827482.0864   21827480.3654
        52.0004         45.0004
  24156994.0484   23209583.39443  18084673.67242  24156993.9374   24156993.9514
        45.0004         40.0004
  22745920.9854   20898412.03743  16285808.83042  22745922.8504   22745921.2554
        49.0004         42.0004
  23632526.3024   -7829688.66443  -6019735.78442  23632529.1714   23632527.9724
        46.0004         40.0004
 04  6 18 16 47 20.0000000  0  9G22G21G18G 6G16G15G29G26G 3
  21314580.3854    7927554.61144   6182424.96242  21314580.6294   21314576.7234
        57.0004         49.0004
  20556367.8394   14491349.46044  11299737.95442  20556368.7014   20556365.2824
        57.0004         50.0004
  20440436.3204   -3393401.36143  -2634728.22642  20440437.6434   20440433.9104
        56.0004         51.0004
  22361688.7464   24660566.84143  19214689.95742  22361690.3194   22361689.4784
        51.0004         45.0004
  23833472.6464     -51214.70043    -35036.57342  23833474.2484   23833474.7934
        45.0004         39.0004
  21819300.1044   -9702666.51043  -7548198.91742  21819300.8324   21819299.6524
        52.0004         45.0004
  24167835.9904   23266561.58743  18129072.22642  24167837.4844   24167836.4234
        44.0004         39.0004
  22755682.7524   20949712.89043  16325783.49442  22755685.5964   22755684.4994
        49.0004         42.0004
  23621358.2974   -7888374.82843  -6065465.22242  23621360.6654   23621359.6914
        47.0004         40.0004
 04  6 18 16 47 40.0000000  0  9G22G21G18G 6G16G15G29G26G 3
  21308796.2784    7897158.62844   6158739.80542  21308796.8014   21308792.4654
        57.0004         49.0004
  20556570.8564   14492416.39244  11300569.32242  20556572.0904   20556568.2354
        57.0004         50.0004
  20441368.3034   -3388503.15843  -2630911.44442  20441369.4264   20441365.8924
        56.0004         51.0004
  22373707.5704   24723725.17743  19263904.17442  22373708.8574   22373708.5884
        51.0004         44.0004
  23838427.1864     -25179.23343    -14749.26042  23838429.8484   23838428.1344
        45.0004         39.0004
  21811127.4734   -9745615.07643  -7581665.30642  21811128.1504   21811126.8384
        52.0004         46.0004
  24178704.3364   23323676.96743  18173577.69842  24178706.1914   24178706.6344
        45.0004         39.0004
  22765486.6484   21001233.69343  16365929.55042  22765489.0544   22765487.8494
        49.0004         42.0004
  23610214.3984   -7946937.85243  -6111098.70842  23610215.7014   23610213.9954
        46.0004         40.0004
 04  6 18 16 48  0.0000000  0  9G22G21G18G 6G16G15G29G26G 3
  21303041.9234    7866919.80044   6135177.10342  21303042.2324   21303038.0494
        57.0004         49.0004
  20556795.3054   14493595.91444  11301488.41942  20556796.4474   20556792.9104
        57.0004         50.0004
  20442330.6704   -3383445.76643  -2626970.62042  20442331.7614   20442328.3354
        56.0004         51.0004
  22385750.2774   24787009.16643  19313216.30842  22385750.6894   22385751.1114
        51.0004         44.0004
  23843414.2874       1027.52743      5671.52942  23843415.8464   23843415.6824
        45.0004         39.0004
  21802962.9724   -9788518.38743  -7615096.43342  21802963.9414   21802963.0824
        53.0004         46.0004
  24189599.7914   23380930.64443  18218190.92042  24189601.6954   24189600.7914
        45.0004         39.0004
  22775333.0104   21052975.27843  16406247.64242  22775335.5564   22775333.1754
        48.0004         42.0004
  23599094.0894   -8005375.32943  -6156634.37142  23599095.2544   23599094.3434
        46.0004         40.0004
 04  6 18 16 48 20.0000000  0  9G22G21G18G 6G16G15G29G26G 3
  21297317.8044    7836839.55244   6111737.97442  21297318.1334   21297314.1564
        57.0004         49.0004
  20557041.5484   14494890.00744  11302496.79642  20557042.8034   20557039.1324
        57.0004         50.0004
  20443323.6234   -3378228.46743  -2622905.18942  20443324.7634   20443321.2674
        56.0004         51.0004
  22397816.8294   24850419.39743  19362626.80442  22397818.8314   22397817.4864
        51.0004         44.0004
  23848433.9054      27406.31843     26226.35842  23848434.6254   23848434.0264
        45.0004         39.0004
  21794807.7054   -9831374.62143  -7648490.87642  21794809.1314   21794807.3344
        52.0004         46.0004
  24200521.5004   23438323.07043  18262912.24942  24200522.9244   24200521.7714
        45.0004         39.0004
  22785221.2114   21104938.33143  16446738.31542  22785223.6244   22785220.6954
        48.0004         42.0004
  23587998.7014   -8063685.08343  -6202070.50642  23587999.0364   23587997.7304
        46.0004         40.0004
 04  6 18 16 48 40.0000000  0  9G22G21G18G 6G16G15G29G26G 3
  21291622.8334    7806912.25144   6088418.02442  21291623.1534   21291619.2844
        57.0004         49.0004
  20557308.6394   14496293.26644  11303590.23342  20557309.7984   20557305.8804
        57.0004         50.0004
  20444345.5904   -3372857.25143  -2618719.82542  20444346.6714   20444343.5054
        56.0004         51.0004
  22409906.2024   24913949.60943  19412130.81142  22409907.7044   22409907.5294
        51.0004         44.0004
  23853484.5854      53950.76143     46910.29242  23853486.4454   23853486.2064
        46.0004         39.0004
  21786660.3444   -9874189.26543  -7681852.91142  21786661.4524   21786659.3644
        52.0004         46.0004
  24211468.3244   23495847.92243  18307736.77342  24211469.9284   24211469.3504
        45.0004         40.0004
  22795150.5844   21157116.35443  16487396.47942  22795152.4204   22795150.9354
        48.0004         42.0004
  23576925.6654   -8121871.99343  -6247410.90842  23576926.0004   23576926.7094
        46.0004         40.0004
 04  6 18 16 49  0.0000000  0  9G22G21G18G 6G16G15G29G26G 3
  21285957.5744    7777141.41544   6065219.99242  21285958.0404   21285953.6704
        57.0004         49.0004
  20557597.1504   14497809.63644  11304771.81042  20557598.5394   20557594.6664
        57.0004         50.0004
  20445397.7164   -3367328.68443  -2614411.84942  20445398.8744   20445395.3464
        56.0004         51.0004
  22422019.1844   24977602.86243  19461730.68142  22422020.4494   22422020.2714
        51.0004         44.0004
  23858569.0284      80663.97443     67725.71942  23858570.1154   23858569.0484
        45.0004         39.0004
  21778521.8034   -9916958.34543  -7715179.44842  21778522.4354   21778520.7354
        52.0004         46.0004
  24222440.7334   23553508.26643  18352666.86842  24222441.2874   24222441.8264
        45.0004         40.0004
  22805121.0364   21209512.22143  16528224.40642  22805122.0154   22805120.9714
        48.0004         42.0004
  23565877.2984   -8179931.67243  -6292652.18442  23565877.6534   23565877.7324
        47.0004         40.0004
 04  6 18 16 49 20.0000000  0 10G22G21G18G14G 6G16G15G29G26G 3
  21280320.3894    7747517.58744   6042136.51242  21280320.9874   21280316.6224
        57.0004         49.0004
  20557905.5414   14499429.65944  11306034.15442  20557906.6514   20557902.8394
        57.0004         50.0004
  20446477.8754   -3361652.54343  -2609988.88442  20446479.2874   20446475.4604
        56.0004         51.0004
  24678057.9024   -3724559.75853  -2572298.08252  24678060.8674   24678062.7744
        43.0004         37.0004
  22434153.5204   25041368.91543  19511418.44342  22434154.8714   22434154.8564
        51.0004         44.0004
  23863682.4234     107535.74643     88664.69042  23863682.9984   23863683.4494
        45.0004         39.0004
  21770389.8924   -9959690.98843  -7748477.59042  21770390.8794   21770389.7224
        52.0004         46.0004
  24233437.0754   23611293.89243  18397694.58942  24233437.9864   24233438.6594
        46.0004         39.0004
  22815131.1364   21262115.59643  16569214.01842  22815133.4134   22815132.7014
        49.0004         42.0004
  23554851.1814   -8237872.70643  -6337801.00442  23554852.0724   23554851.7334
        46.0004         40.0004
 04  6 18 16 49 40.0000000  0 10G22G21G18G14G 6G16G15G29G26G 3
  21274715.3634    7718062.86944   6019184.80642  21274715.8244   21274711.6814
        57.0004         49.0004
  20558237.7484   14501175.82444  11307394.79042  20558238.9174   20558235.5904
        57.0004         50.0004
  20447590.3344   -3355806.91543  -2605433.84842  20447591.2764   20447587.8864
        56.0004         51.0004
  24663660.3154   -3800214.58143  -2631249.85042  24663663.3754   24663665.5014
        44.0004         37.0004
  22446313.5274   25105269.28243  19561210.86642  22446313.7654   22446314.2714
        51.0004         44.0004
  23868829.8874     134587.57843    109743.97642  23868832.1414   23868831.7964
        45.0004         39.0004
  21762269.4824  -10002364.69843  -7781729.80242  21762269.9764   21762269.1044
        53.0004         46.0004
  24244460.5724   23669226.05243  18442836.50842  24244462.3764   24244461.9264
        44.0004         39.0004
  22825184.9014   21314948.00443  16610382.10742  22825185.5294   22825184.3154
        48.0004         42.0004
  23543852.4104   -8295672.27043  -6382839.59242  23543853.4684   23543852.7034
        46.0004         40.0004
 04  6 18 16 50  0.0000000  0 10G22G21G18G14G 6G16G15G29G26G 3
  21269139.2384    7688759.84144   5996351.30142  21269139.3544   21269135.2924
        57.0004         49.0004
  20558590.8594   14503030.95544  11308840.33542  20558591.8054   20558588.3154
        57.0004         50.0004
  20448731.6184   -3349809.78443  -2600760.75842  20448732.5004   20448729.1984
        56.0004         51.0004
  24649262.5474   -3875875.62043  -2690206.47842  24649265.4994   24649269.3754
        44.0004         37.0004
  22458495.2794   25169286.11643  19611094.05142  22458496.1364   22458495.3964
        51.0004         44.0004
  23874008.3854     161801.39043    130949.48342  23874010.7704   23874010.6064
        44.0004         39.0004
  21754156.5084  -10044996.67043  -7814949.50942  21754158.1614   21754155.8194
        53.0004         46.0004
  24255509.1184   23727286.82243  18488078.64742  24255511.0884   24255509.2214
        44.0004         39.0004
  22835278.4374   21367991.10743  16651714.37542  22835278.0654   22835279.4244
        48.0004         42.0004
  23532876.8664   -8353347.08843  -6427780.96542  23532878.9644   23532878.0674
        46.0004         40.0004
 04  6 18 16 50 20.0000000  0 10G22G21G18G14G 6G16G15G29G26G 3
  21263593.3914    7659616.83844   5973642.48842  21263593.9214   21263589.6804
        57.0004         49.0004
  20558966.2574   14505003.95444  11310377.72842  20558967.3344   20558963.5734
        57.0004         50.0004
  20449903.2304   -3343652.99743  -2595963.26542  20449904.3584   20449900.9584
        56.0004         51.0004
  24634864.4084   -3951533.53443  -2749160.64942  24634866.8104   24634868.8604
        43.0004         37.0004
  22470701.1084   25233427.00943  19661073.89642  22470702.1944   22470702.1174
        50.0004         44.0004
  23879219.9974     189184.96943    152287.27942  23879221.5764   23879220.5244
        46.0004         39.0004
  21746053.6844  -10087578.26243  -7848129.94942  21746053.9704   21746053.2674
        53.0004         46.0004
  24266584.0394   23785483.87843  18533426.97342  24266585.6764   24266585.6524
        46.0004         39.0004
  22845413.8844   21421252.64043  16693216.83142  22845416.4814   22845415.9054
        48.0004         42.0004
  23521926.5384   -8410887.96843  -6472617.97742  23521928.5824   23521928.7424
        47.0004         40.0004
 04  6 18 16 50 40.0000000  0 10G22G21G18G14G 6G16G15G29G26G 3
  21258076.8504    7630626.88744   5951052.94342  21258077.2644   21258073.2194
        57.0004         49.0004
  20559362.9224   14507087.91944  11312001.58842  20559364.0294   20559360.4024
        57.0004         50.0004
  20451103.7074   -3337344.08743  -2591047.23042  20451104.7934   20451101.3684
        56.0004         51.0004
  24620464.2124   -4027194.98643  -2808117.57942  24620464.4474   24620468.3404
        43.0004         37.0004
  22482928.6664   25297684.22643  19711144.38442  22482930.4894   22482929.8114
        51.0004         44.0004
  23884461.6634     216730.30643    173751.11742  23884462.6174   23884463.9004
        44.0004         39.0004
  21737958.9264  -10130116.23043  -7881276.39342  21737959.7094   21737958.3644
        53.0004         46.0004
  24277683.5324   23843809.34843  18578875.35942  24277685.3154   24277684.3884
        45.0004         40.0004
  22855589.7314   21474724.49443  16734883.17442  22855590.8734   22855590.1694
        49.0004         42.0004
  23511001.1344   -8468301.53943  -6517355.77842  23511001.9674   23511002.7484
        47.0004         40.0004
 04  6 18 16 51  0.0000000  0 10G22G21G18G14G 6G16G15G29G26G 3
  21252590.2584    7601794.61644   5928586.26042  21252590.6254   21252586.5894
        57.0004         49.0004
  20559781.5634   14509288.21644  11313716.09542  20559782.5194   20559779.0264
        57.0004         50.0004
  20452334.0704   -3330878.36543  -2586009.00842  20452335.3614   20452331.7264
        56.0004         51.0004
  24606068.2384   -4102854.01743  -2867072.62242  24606069.7224   24606071.7424
        42.0004         37.0004
  22495179.3514   25362062.00343  19761308.81642  22495180.3144   22495180.5904
        50.0004         44.0004
  23889734.2104     244441.71243    195344.37342  23889736.7884   23889736.1384
        45.0004         39.0004
  21729873.5584  -10172605.38843  -7914384.81142  21729874.0094   21729873.0954
        53.0004         46.0004
  24288806.9144   23902267.26143  18624426.94142  24288808.4884   24288809.6694
        44.0004         40.0004
  22865805.3254   21528410.83543  16776716.66642  22865807.5824   22865807.1044
        48.0004         42.0004
  23500102.0504   -8525581.86343  -6561989.76542  23500103.0444   23500102.3974
        47.0004         40.0004
 04  6 18 16 51 20.0000000  0 10G22G21G18G14G 6G16G15G29G26G 3
  21247132.8654    7573116.51544   5906239.71942  21247132.9794   21247128.9934
        57.0004         49.0004
  20560221.7564   14511601.27944  11315518.47442  20560222.7964   20560219.2464
        57.0004         50.0004
  20453593.4404   -3324259.70043  -2580851.60542  20453594.7094   20453591.1654
        56.0004         51.0004
  24591670.8404   -4178513.44843  -2926027.97442  24591673.5074   24591675.0964
        43.0004         37.0004
  22507452.2664   25426556.15943  19811563.92742  22507454.4574   22507453.4484
        50.0004         44.0004
  23895039.3744     272315.07043    217063.80342  23895040.5164   23895040.6384
        46.0004         38.0004
  21721796.6374  -10215048.91943  -7947457.67542  21721797.5624   21721797.3304
        53.0004         46.0004
  24299955.1094   23960853.41943  18670078.44342  24299956.6404   24299957.3364
        44.0004         39.0004
  22876061.5674   21582307.39643  16818713.96642  22876064.4544   22876061.4414
        48.0004         42.0004
  23489226.4974   -8582731.71543  -6606522.09542  23489228.8084   23489226.5884
        47.0004         40.0004
 04  6 18 16 51 40.0000000  0 10G22G21G18G14G 6G16G15G29G26G 3
  21241705.6634    7544597.04444   5884016.78742  21241706.2814   21241702.2574
        57.0004         49.0004
  20560684.2604   14514031.78044  11317412.36442  20560685.0564   20560681.7914
        57.0004         50.0004
  20454882.9694   -3317484.36643  -2575572.12442  20454884.0934   20454880.4574
        56.0004         51.0004
  24577274.3074   -4254168.29843  -2984979.73942  24577275.7684   24577276.2004
        42.0004         37.0004
  22519747.9534   25491170.43043  19861912.63542  22519749.0284   22519749.3804
        50.0004         44.0004
  23900374.7764     300353.94743    238912.22842  23900375.8344   23900374.3334
        45.0004         39.0004
  21713729.4984  -10257442.21343  -7980491.38942  21713730.1274   21713729.4874
        53.0004         46.0004
  24311129.1134   24019571.61843  18715832.82142  24311130.8854   24311131.4274
        44.0004         39.0004
  22886358.6004   21636417.66243  16860877.77842  22886359.9014   22886359.1234
        48.0004         42.0004
  23478376.6774   -8639746.10243  -6650948.85042  23478378.5674   23478378.8644
        46.0004         40.0004
 04  6 18 16 52  0.0000000  0 10G22G21G18G14G 6G16G15G29G26G 3
  21236307.9264    7516231.21844   5861913.57242  21236308.2854   21236303.9704
        57.0004         49.0004
  20561168.1874   14516575.26844  11319394.29542  20561169.2734   20561165.5654
        57.0004         50.0004
  20456201.0644   -3310557.31843  -2570174.42742  20456202.4114   20456198.6294
        56.0004         51.0004
  24562877.5274   -4329822.49443  -3043930.99942  24562878.8894   24562881.2814
        43.0004         37.0004
  22532065.7264   25555899.27143  19912350.61842  22532067.3144   22532067.6474
        50.0004         44.0004
  23905741.3804     328552.84343    260885.32242  23905743.4844   23905742.7484
        45.0004         39.0004
  21705671.0474  -10299789.73443  -8013489.43442  21705672.5584   21705669.9094
        53.0004         46.0004
  24322327.1564   24078416.07543  18761685.59742  24322328.6314   24322329.0674
        44.0004         39.0004
  22896695.2514   21690735.98843  16903203.72142  22896696.3104   22896695.1034
        48.0004         42.0004
  23467552.8604   -8696628.86143  -6695273.05342  23467553.9834   23467554.6144
        46.0004         40.0004
 04  6 18 16 52 20.0000000  0 10G22G21G18G14G 6G16G15G29G26G 3
  21230939.7534    7488021.18844   5839931.75242  21230940.0954   21230935.8164
        57.0004         49.0004
  20561674.2444   14519234.19444  11321466.17742  20561675.2024   20561671.6624
        57.0004         50.0004
  20457548.3884   -3303476.77443  -2564657.12242  20457549.4124   20457546.0974
        56.0004         51.0004
  24548482.4004   -4405473.05143  -3102879.42442  24548481.6984   24548486.2694
        44.0004         37.0004
  22544405.2674   25620744.20443  19962879.06942  22544406.1974   22544406.8584
        50.0004         43.0004
  23911137.4654     356913.07343    282984.14442  23911139.2874   23911137.9554
        45.0004         39.0004
  21697621.7194  -10342089.14043  -8046449.99242  21697622.6524   21697622.0864
        53.0004         46.0004
  24333549.5684   24137388.36643  18807637.99942  24333551.9724   24333551.8744
        45.0004         39.0004
  22907071.4914   21745263.61143  16945692.73942  22907073.0874   22907072.4584
        48.0004         42.0004
  23456753.0764   -8753377.29443  -6739492.57042  23456754.0654   23456755.9344
        47.0004         40.0004
 04  6 18 16 52 40.0000000  0 10G22G21G18G14G 6G16G15G29G26G 3
  21225601.3314    7459967.85844   5818072.03642  21225601.6534   21225597.5564
        57.0004         49.0004
  20562202.3014   14522009.92744  11323629.07842  20562203.3464   20562199.8364
        57.0004         50.0004
  20458925.2164   -3296242.04243  -2559019.67142  20458926.1604   20458922.9294
        56.0004         51.0004
  24534087.4274   -4481118.28843  -3161823.70842  24534089.3634   24534090.6744
        42.0004         37.0004
  22556767.1024   25685705.56043  20013498.22142  22556768.7334   22556767.9094
        49.0004         43.0004
  23916566.1684     385435.16643    305209.08442  23916567.5214   23916565.9504
        45.0004         38.0004
  21689581.9144  -10384339.06643  -8079371.98942  21689582.6004   21689581.8654
        53.0004         46.0004
  24344796.0454   24196488.63743  18853690.13642  24344797.2314   24344796.8084
        45.0004         39.0004
  22917487.6884   21800000.78843  16988345.04642  22917489.2154   22917488.5474
        48.0004         42.0004
  23445980.3364   -8809989.63243  -6783606.05242  23445982.4794   23445981.1084
        47.0004         40.0004
 04  6 18 16 53  0.0000000  0 10G22G21G18G14G 6G16G15G29G26G 3
  21220292.1704    7432067.93544   5796331.86042  21220292.7884   21220288.3914
        57.0004         49.0004
  20562752.2654   14524899.38144  11325880.58942  20562753.2614   20562749.8324
        57.0004         50.0004
  20460330.5584   -3288856.69943  -2553264.85842  20460331.6354   20460327.9834
        56.0004         51.0004
  24519693.5624   -4556760.50443  -3220765.62142  24519694.4484   24519696.9294
        44.0004         38.0004
  22569150.1814   25750779.45043  20064205.08342  22569151.2624   22569151.2184
        50.0004         43.0004
  23922023.2324     414115.12743    327557.05642  23922024.8984   23922023.7364
        46.0004         39.0004
  21681550.8174  -10426542.42643  -8112257.70542  21681551.7534   21681550.7824
        53.0004         46.0004
  24356065.8134   24255713.02443  18899838.96742  24356068.9564   24356067.9054
        44.0004         39.0004
  22927943.3194   21854943.43743  17031157.46642  22927944.3954   22927945.2064
        49.0004         42.0004
  23435232.8294   -8866468.23343  -6827615.31342  23435234.2334   23435233.9874
        47.0004         40.0004
 04  6 18 16 53 20.0000000  0 10G22G21G18G14G 6G16G15G29G26G 3
  21215012.8434    7404324.97544   5774713.99542  21215013.1864   21215008.8274
        57.0004         49.0004
  20563324.6654   14527906.52444  11328223.80842  20563325.6834   20563321.8964
        57.0004         50.0004
  20461765.1514   -3281317.51543  -2547390.17042  20461766.0834   20461762.9904
        56.0004         51.0004
  24505300.0354   -4632395.40743  -3279701.84642  24505302.1194   24505303.5694
        43.0004         38.0004
  22581555.3914   25815968.76243  20115001.87242  22581556.7014   22581557.2764
        50.0004         43.0004
  23927511.4624     442955.84543    350030.29042  23927511.5694   23927512.2324
        45.0004         39.0004
  21673529.4894  -10468695.40043  -8145104.15842  21673530.5424   21673528.5964
        53.0004         46.0004
  24367360.1734   24315064.34943  18946086.71342  24367361.4654   24367361.2264
        45.0004         39.0004
  22938437.7304   21910094.40143  17074132.21342  22938440.1754   22938439.4604
        48.0004         42.0004
  23424511.8034   -8922808.89543  -6871517.10842  23424513.5174   23424513.4334
        47.0004         40.0004
 04  6 18 16 53 40.0000000  0 10G22G21G18G14G 6G16G15G29G26G 3
  21209763.6004    7376740.23244   5753219.41542  21209764.2914   21209759.7744
        57.0004         49.0004
  20563919.4254   14531032.86944  11330659.91542  20563920.4774   20563917.0884
        57.0004         50.0004
  20463229.2244   -3273623.74343  -2541395.02642  20463230.6004   20463226.9524
        56.0004         51.0004
  24490909.1694   -4708020.72643  -3338630.58142  24490910.4104   24490912.6574
        46.0004         38.0004
  22593982.7794   25881274.19543  20165889.14242  22593984.5704   22593983.5924
        50.0004         43.0004
  23933030.2884     471957.72143    372629.09542  23933031.5504   23933031.6514
        46.0004         39.0004
  21665517.6884  -10510796.22443  -8177909.97742  21665518.9734   21665517.3504
        53.0004         46.0004
  24378678.5854   24374543.11743  18992433.75642  24378680.1454   24378680.8364
        45.0004         39.0004
  22948972.3264   21965454.14843  17117269.64742  22948973.6974   22948973.1894
        48.0004         42.0004
  23413817.6694   -8979009.52743  -6915309.77942  23413817.6394   23413818.8364
        47.0004         40.0004
 04  6 18 16 54  0.0000000  0 10G22G21G18G14G 6G16G15G29G26G 3
  21204543.1534    7349306.32044   5731842.35542  21204543.6494   21204539.3734
        57.0004         49.0004
  20564535.8964   14534271.50444  11333183.52542  20564536.5834   20564533.4234
        57.0004         50.0004
  20464721.3524   -3265782.78643  -2535285.19342  20464722.4074   20464719.1794
        56.0004         51.0004
  24476518.9924   -4783643.01743  -3397556.96542  24476519.2924   24476523.0604
        44.0004         38.0004
  22606430.7904   25946687.83643  20216860.73442  22606432.8144   22606432.1164
        50.0004         43.0004
  23938578.1184     501113.04843    395347.46842  23938580.0914   23938578.9674
        45.0004         39.0004
  21657515.1564  -10552851.87843  -8210680.59842  21657515.5954   21657514.4674
        53.0004         46.0004
  24390019.9864   24434141.54343  19038874.04142  24390021.2974   24390020.9984
        45.0004         40.0004
  22959544.6274   22021014.60243  17160563.47042  22959546.5104   22959545.1314
        48.0004         42.0004
  23403148.3304   -9035076.50943  -6958998.32042  23403147.7414   23403149.9334
        47.0004         40.0004
 04  6 18 16 54 20.0000000  0 10G22G21G18G14G 6G16G15G29G26G 3
  21199352.3504    7322029.10244   5710587.40242  21199353.0064   21199348.6234
        57.0004         49.0004
  20565174.4984   14537628.35744  11335799.24042  20565175.3084   20565172.1624
        57.0004         50.0004
  20466242.3184   -3257789.58343  -2529056.72442  20466243.3874   20466240.0484
        56.0004         51.0004
  24462130.3104   -4859255.91143  -3456476.02942  24462132.9744   24462135.5044
        45.0004         38.0004
  22618900.0074   26012214.69043  20267920.54442  22618901.1514   22618901.5584
        50.0004         43.0004
  23944156.5824     530426.84343    418189.31942  23944158.8604   23944157.4174
        46.0004         39.0004
  21649521.7924  -10594856.43043  -8243411.39742  21649522.3774   21649521.2474
        53.0004         46.0004
  24401385.2254   24493864.33043  19085411.24242  24401387.9224   24401385.2934
        45.0004         39.0004
  22970157.0454   22076780.64043  17204017.47642  22970159.1454   22970158.7904
        48.0004         42.0004
  23392505.3774   -9091003.47343  -7002577.74642  23392505.9894   23392506.9474
        47.0004         40.0004
 04  6 18 16 54 40.0000000  0 10G22G21G18G14G 6G16G15G29G26G 3
  21194191.2174    7294907.08844   5689453.38942  21194191.4974   21194187.3524
        57.0004         49.0004
  20565835.7674   14541102.32344  11338506.22442  20565836.5644   20565832.9644
        57.0004         50.0004
  20467792.1554   -3249645.57643  -2522710.74342  20467793.1484   20467790.1544
        56.0004         51.0004
  24447743.9954   -4934859.66743  -3515387.97042  24447746.4804   24447748.1564
        44.0004         38.0004
  22631390.3264   26077852.74343  20319067.00342  22631391.8124   22631391.5044
        49.0004         43.0004
  23949764.6084     559896.86943    441152.90742  23949767.8684   23949765.0894
        46.0004         39.0004
  21641538.1084  -10636810.92643  -8276103.18942  21641538.8544   21641537.8024
        53.0004         46.0004
  24412773.3914   24553709.71243  19132043.97842  24412775.0944   24412773.2504
        46.0004         39.0004
  22980807.8164   22132750.05243  17247629.97042  22980809.2354   22980807.9864
        48.0004         42.0004
  23381889.3724   -9146790.96443  -7046048.49542  23381891.6874   23381891.2464
        47.0004         40.0004
 04  6 18 16 55  0.0000000  0 10G22G21G18G14G 6G16G15G29G26G 3
  21189059.5074    7267939.72144   5668439.87842  21189059.7564   21189056.1304
        57.0004         49.0004
  20566518.9854   14544693.30144  11341304.38042  20566520.0254   20566516.3854
        57.0004         50.0004
  20469370.3794   -3241351.66143  -2516247.95742  20469371.7324   20469368.1284
        56.0004         51.0004
  24433357.4574   -5010454.23743  -3574292.74642  24433358.4004   24433360.4164
        44.0004         38.0004
  22643902.2084   26143600.91443  20370299.26742  22643903.9294   22643903.3324
        50.0004         43.0004
  23955402.4644     589522.02443    464237.36842  23955403.7504   23955403.4664
        46.0004         39.0004
  21633563.8484  -10678715.51243  -8308756.09242  21633564.4324   21633563.1384
        53.0004         46.0004
  24424184.0984   24613676.31543  19178771.17542  24424185.3394   24424185.2754
        44.0004         39.0004
  22991496.9114   22188921.49743  17291399.89142  22991498.9774   22991498.3474
        48.0004         42.0004
  23371299.9204   -9202438.77043  -7089410.39542  23371302.3224   23371299.7384
        47.0004         40.0004
 04  6 18 16 55 20.0000000  0 10G22G21G18G14G 6G16G15G29G26G 3
  21183957.3264    7241128.18744   5647547.79442  21183957.9944   21183953.5834
        57.0004         49.0004
  20567224.8574   14548402.73744  11344194.84542  20567225.7174   20567222.4804
        57.0004         50.0004
  20470977.3374   -3232907.14243  -2509667.81442  20470978.5684   20470975.1554
        56.0004         51.0004
  24418974.5784   -5086037.45543  -3633188.67442  24418976.2654   24418978.6854
        45.0004         38.0004
  22656434.6884   26209459.66643  20421617.69642  22656436.7464   22656436.9464
        49.0004         43.0004
  23961068.7234     619302.68943    487443.00542  23961070.8664   23961070.1014
        46.0004         39.0004
  21625599.4864  -10720568.60643  -8341368.87442  21625600.4904   21625598.9254
        53.0004         46.0004
  24435618.0114   24673764.69143  19225593.24442  24435620.8184   24435620.0114
        44.0004         39.0004
  23002224.3014   22245295.37643  17335327.55542  23002225.9374   23002226.1064
        48.0004         42.0004
  23360737.0064   -9257944.89543  -7132661.88942  23360738.4504   23360737.6144
        47.0004         41.0004
 04  6 18 16 55 40.0000000  0 10G22G21G18G14G 6G16G15G29G26G 3
  21178884.5234    7214469.97544   5626775.17442  21178884.7424   21178881.0134
        57.0004         49.0004
  20567952.9204   14552228.64844  11347176.07142  20567953.6804   20567950.4904
        57.0004         50.0004
  20472612.3284   -3224314.66743  -2502972.37942  20472613.6174   20472610.2934
        56.0004         51.0004
  24404594.7114   -5161610.77643  -3692076.88742  24404596.8194   24404598.2194
        46.0004         38.0004
  22668987.7894   26275426.20143  20473020.11542  22668988.4424   22668990.2414
        49.0004         43.0004
  23966765.0614     649236.00743    510767.58442  23966765.4254   23966766.8204
        45.0004         39.0004
  21617644.4804  -10762372.14043  -8373943.03442  21617645.5944   21617643.9984
        53.0004         46.0004
  24447075.2724   24733971.71643  19272507.75342  24447075.9724   24447077.1614
        44.0004         39.0004
  23012990.2294   22301868.66343  17379410.59042  23012992.7054   23012991.3434
        47.0004         42.0004
  23350201.6554   -9313310.93043  -7175804.23442  23350202.3604   23350201.2344
        48.0004         41.0004
 04  6 18 16 56  0.0000000  0 10G22G21G18G14G 6G16G15G29G26G 3
  21173842.0704    7187970.83644   5606126.50942  21173842.2104   21173837.8514
        57.0004         49.0004
  20568704.2244   14556177.13644  11350252.80842  20568705.2434   20568701.9464
        57.0004         50.0004
  20474276.7734   -3215568.79343  -2496157.41542  20474277.8484   20474274.4014
        56.0004         51.0004
  24390215.4914   -5237167.75843  -3750952.37242  24390216.9554   24390218.5534
        44.0004         38.0004
  22681562.2904   26341505.40543  20524510.33542  22681564.1524   22681562.1314
        50.0004         43.0004
  23972492.1324     679326.94743    534215.00242  23972492.3454   23972493.4844
        46.0004         39.0004
  21609700.1754  -10804120.13443  -8406473.91842  21609700.7934   21609700.1924
        53.0004         46.0004
  24458556.2494   24794302.38743  19319518.61842  24458558.0984   24458557.7794
        45.0004         39.0004
  23023794.5724   22358646.09343  17423652.69542  23023796.0294   23023795.5024
        48.0004         42.0004
  23339693.9704   -9368530.32843  -7218832.30842  23339695.4004   23339695.6144
        48.0004         41.0004
 04  6 18 16 56 20.0000000  0 10G22G21G18G14G 6G16G15G29G26G 3
  21168827.6854    7161621.03244   5585594.21242  21168827.8714   21168824.0294
        57.0004         49.0004
  20569477.3054   14560239.10044  11353417.96842  20569478.4894   20569474.6944
        57.0004         50.0004
  20475968.2634   -3206679.38943  -2489230.60642  20475969.5154   20475966.1114
        56.0004         51.0004
  24375838.6974   -5312717.36343  -3809822.08642  24375839.2764   24375841.3034
        44.0004         38.0004
  22694156.1514   26407686.87243  20576080.22942  22694156.5064   22694156.9964
        50.0004         43.0004
  23978245.6754     709564.96843    557777.01842  23978247.1614   23978245.1074
        46.0004         39.0004
  21601764.6364  -10845821.97643  -8438968.84142  21601765.2764   21601764.2304
        53.0004         46.0004
  24470059.1634   24854746.13743  19366617.60242  24470060.4594   24470060.2244
        45.0004         40.0004
  23034635.6494   22415617.03643  17468045.57542  23034637.5544   23034636.8554
        47.0004         42.0004
  23329212.1854   -9423612.24143  -7261753.25142  23329213.3154   23329211.0074
        48.0004         41.0004
 04  6 18 16 56 40.0000000  0 10G22G21G18G14G 6G16G15G29G26G 3
  21163843.2444    7135427.36544   5565183.57842  21163843.6044   21163839.1754
        57.0004         49.0004
  20570273.1774   14564421.28044  11356676.80442  20570274.0604   20570270.8874
        57.0004         50.0004
  20477688.4964   -3197640.02143  -2482186.94742  20477689.6194   20477686.3714
        56.0004         51.0004
  24361464.8514   -5388251.90843  -3868680.07842  24361466.3684   24361467.9634
        46.0004         38.0004
  22706770.9554   26473976.83343  20627734.65942  22706772.8754   22706772.8444
        49.0004         43.0004
  23984028.8254     739956.35743    581458.56942  23984031.6634   23984031.1914
        45.0004         39.0004
  21593839.1244  -10887470.42343  -8471422.15242  21593839.6234   21593838.4424
        53.0004         46.0004
  24481583.3524   24915309.49843  19413809.79642  24481585.4404   24481585.7304
        46.0004         40.0004
  23045515.0514   22472787.73943  17512594.13442  23045515.5194   23045514.9604
        48.0004         41.0004
  23318758.0244   -9478548.95843  -7304561.05942  23318760.4574   23318757.5484
        48.0004         41.0004
 04  6 18 16 57  0.0000000  0 10G22G21G18G14G 6G16G15G29G26G 3
  21158888.1804    7109389.05744   5544894.00742  21158888.6734   21158884.3724
        57.0004         49.0004
  20571091.7534   14568723.18344  11360028.93642  20571092.6224   20571089.3034
        57.0004         50.0004
  20479436.9464   -3188451.67443  -2475027.19542  20479438.1394   20479434.8794
        56.0004         51.0004
  24347094.7764   -5463771.16243  -3927526.15342  24347097.0584   24347097.1554
        45.0004         38.0004
  22719406.1034   26540374.04743  20679472.66342  22719406.8354   22719406.5954
        50.0004         43.0004
  23989841.2224     770499.74343    605258.54342  23989842.6234   23989841.4964
        45.0004         39.0004
  21585923.8104  -10929065.78143  -8503834.09942  21585924.3164   21585922.5404
        53.0004         46.0004
  24493130.5444   24975990.66443  19461093.78042  24493132.4704   24493132.3204
        45.0004         39.0004
  23056432.4904   22530156.74943  17557297.22442  23056433.6664   23056432.9104
        48.0004         41.0004
  23308331.9224   -9533340.21243  -7347255.51542  23308332.8154   23308331.2054
        48.0004         41.0004
 04  6 18 16 57 20.0000000  0 10G22G21G18G14G 6G16G15G29G26G 3
  21153962.5854    7083504.68844   5524724.38242  21153963.0764   21153959.0614
        57.0004         49.0004
  20571933.0864   14573143.82344  11363473.58742  20571933.9094   20571930.3154
        57.0004         50.0004
  20481213.4904   -3179116.03343  -2467752.67342  20481214.6704   20481211.1664
        56.0004         51.0004
  24332725.8404   -5539275.68643  -3986360.75942  24332726.9574   24332728.2324
        44.0004         38.0004
  22732060.9134   26606876.48543  20731292.67042  22732062.5724   22732061.5654
        49.0004         43.0004
  23995682.3574     801192.94143    629175.24742  23995684.2594   23995684.1164
        46.0004         39.0004
  21578018.3444  -10970609.16943  -8536205.54942  21578018.7414   21578017.7884
        54.0004         46.0004
  24504700.1444   25036787.83743  19508468.15642  24504701.6654   24504700.8214
        45.0004         39.0004
  23067386.9364   22587721.66943  17602152.96742  23067387.4954   23067386.6784
        48.0004         42.0004
  23297932.7774   -9587986.68343  -7389837.14442  23297933.5224   23297932.7304
        48.0004         41.0004
 04  6 18 16 57 40.0000000  0 10G22G21G18G14G 6G16G15G29G26G 3
  21149066.7674    7057776.32644   5504676.32142  21149067.0634   21149063.0164
        57.0004         49.0004
  20572797.1294   14577685.78544  11367012.76842  20572798.0074   20572795.0984
        57.0004         50.0004
  20483018.4714   -3169631.56643  -2460362.18342  20483019.2914   20483016.2184
        56.0004         51.0004
  24318361.1944   -5614762.48943  -4045181.54342  24318362.8884   24318365.1654
        46.0004         38.0004
  22744736.4104   26673485.62543  20783195.81542  22744738.0064   22744737.8834
        49.0004         43.0004
  24001552.0034     832037.40143    653209.82142  24001553.0304   24001553.7734
        45.0004         39.0004
  21570123.0874  -11012097.97943  -8568534.47042  21570123.6814   21570123.1724
        53.0004         46.0004
  24516291.8094   25097702.29543  19555933.92042  24516293.1534   24516293.2624
        44.0004         39.0004
  23078378.3704   22645483.85743  17647162.42442  23078379.8504   23078378.8974
        48.0004         41.0004
  23287561.4794   -9642485.49743  -7432303.72342  23287562.2594   23287562.3104
        47.0004         41.0004
 04  6 18 16 58  0.0000000  0 10G22G21G18G14G 6G16G15G29G26G 3
  21144199.7464    7032201.35044   5484747.79042  21144200.1444   21144196.1534
        57.0004         49.0004
  20573684.1014   14582347.03844  11370644.90942  20573685.3434   20573681.6144
        57.0004         50.0004
  20484850.9064   -3160001.08243  -2452857.90742  20484852.2044   20484848.5784
        56.0004         51.0004
  24304000.3604   -5690233.35543  -4103989.91642  24304001.4784   24304003.0274
        45.0004         38.0004
  22757431.4694   26740198.16243  20835179.52642  22757433.8904   22757432.6424
        49.0004         43.0004
  24007448.9314     863029.81643    677359.70342  24007451.3104   24007451.6354
        46.0004         39.0004
  21562238.0694  -11053534.46943  -8600822.62442  21562238.7574   21562237.4384
        53.0004         46.0004
  24527904.9764   25158730.79843  19603488.55742  24527906.7564   24527905.5744
        45.0004         39.0004
  23089406.5724   22703439.92343  17692322.93542  23089408.4114   23089407.7094
        47.0004         41.0004
  23277218.8254   -9696838.55243  -7474656.71842  23277219.0854   23277220.4294
        47.0004         41.0004
 04  6 18 16 58 20.0000000  0 10G22G21G18G14G 6G16G15G29G26G 3
  21139362.3244    7006780.30844   5464939.20142  21139362.8394   21139358.3904
        57.0004         49.0004
  20574594.0364   14587127.89644  11374370.25042  20574595.2914   20574591.6614
        57.0004         50.0004
  20486711.3184   -3150224.54743  -2445239.83142  20486712.3984   20486709.0744
        56.0004         51.0004
  24289640.3694   -5765687.00643  -4162784.86942  24289642.6064   24289643.8954
        46.0004         38.0004
  22770146.0304   26807014.02443  20887243.75442  22770147.4914   22770146.8644
        49.0004         43.0004
  24013374.5634     894170.16143    701624.84842  24013375.3534   24013376.0184
        45.0004         39.0004
  21554363.0874  -11094917.81443  -8633069.36542  21554363.2094   21554362.7184
        53.0004         47.0004
  24539539.8024   25219873.18643  19651131.92642  24539541.9914   24539542.2714
        45.0004         39.0004
  23100471.9484   22761589.57443  17737634.31142  23100473.1134   23100471.6824
        47.0004         41.0004
  23266903.7504   -9751044.53843  -7516895.11342  23266905.3964   23266904.8744
        47.0004         41.0004
 04  6 18 16 58 40.0000000  0 10G22G21G18G14G 6G16G15G29G26G 3
  21134554.0084    6981513.10244   5445250.49942  21134554.6074   21134550.4064
        57.0004         49.0004
  20575526.7194   14592028.88144  11378189.19342  20575527.6504   20575524.1204
        57.0004         50.0004
  20488599.5524   -3140302.32943  -2437508.23242  20488600.8244   20488597.2584
        56.0004         51.0004
  24275285.9684   -5841122.54243  -4221565.70142  24275287.5234   24275289.1484
        46.0004         38.0004
  22782880.6084   26873932.44243  20939387.89442  22782882.0434   22782882.2534
        50.0004         43.0004
  24019328.9664     925457.51343    726004.54142  24019329.7254   24019330.0024
        45.0004         39.0004
  21546498.1854  -11136247.68243  -8665274.43942  21546499.2114   21546497.5554
        53.0004         47.0004
  24551196.7964   25281128.70043  19698863.46042  24551197.4144   24551198.3294
        45.0004         39.0004
  23111574.6294   22819931.93343  17783095.85342  23111576.3434   23111575.6434
        47.0004         41.0004
  23256616.5994   -9805102.70043  -7559018.32342  23256617.4954   23256617.8404
        48.0004         41.0004
 04  6 18 16 59  0.0000000  0 10G22G21G18G14G 6G16G15G29G26G 3
  21129774.9984    6956398.21344   5425680.47942  21129775.4204   21129771.1844
        57.0004         49.0004
  20576482.1124   14597049.02644  11382100.99842  20576482.9014   20576479.5084
        57.0004         50.0004
  20490515.0744   -3130235.98743  -2429664.33142  20490516.2614   20490512.7994
        56.0004         51.0004
  24260934.1584   -5916540.49943  -4280332.85942  24260934.4124   24260937.5984
        44.0004         38.0004
  22795633.7394   26940951.48243  20991610.43842  22795633.9594   22795635.0364
        49.0004         43.0004
  24025310.3274     956889.91543    750497.24842  24025311.6004   24025312.3884
        46.0004         39.0004
  21538643.2734  -11177525.08443  -8697438.62642  21538644.2704   21538641.8714
        53.0004         46.0004
  24562874.2524   25342495.18643  19746681.46642  24562876.3964   24562876.1064
        44.0004         39.0004
  23122713.3664   22878464.89743  17828705.90342  23122716.8234   23122714.9044
        48.0004         41.0004
  23246357.8744   -9859013.56343  -7601026.75242  23246359.0124   23246357.9834
        48.0004         41.0004
 04  6 18 16 59 20.0000000  0 10G22G21G18G14G 6G16G15G29G26G 3
  21125025.4424    6931439.21144   5406231.92542  21125025.7044   21125021.7134
        57.0004         49.0004
  20577460.6314   14602192.15044  11386108.62342  20577461.6354   20577458.3714
        57.0004         50.0004
  20492458.6104   -3120022.37243  -2421705.67042  20492459.8304   20492456.2584
        56.0004         51.0004
  24246587.3394   -5991936.39143  -4339082.78842  24246589.3234   24246590.8454
        45.0004         38.0004
  22808406.7874   27008074.01643  21043913.63142  22808408.3984   22808407.7034
        49.0004         43.0004
  24031319.8004     988470.08743    775105.10742  24031320.8194   24031323.2504
        45.0004         39.0004
  21530799.3424  -11218745.95443  -8729558.76242  21530799.7784   21530798.5984
        53.0004         47.0004
  24574573.5734   25403975.60843  19794588.25742  24574575.7394   24574575.5614
        45.0004         38.0004
  23133888.6404   22937191.05243  17874466.49742  23133890.4164   23133888.9984
        48.0004         41.0004
  23236127.7234   -9912772.83443  -7642917.05842  23236128.1064   23236128.4584
        49.0004         41.0004
 04  6 18 16 59 40.0000000  0 10G22G21G18G14G 6G16G15G29G26G 3
  21120304.9414    6906632.93744   5386902.37542  21120305.3524   21120300.9454
        57.0004         49.0004
  20578462.2754   14607455.41344  11390209.86642  20578463.0954   20578459.7924
        57.0004         50.0004
  20494429.6384   -3109664.73443  -2413634.79142  20494430.7384   20494427.5754
        56.0004         51.0004
  24232244.5304   -6067312.62743  -4397817.41542  24232246.8984   24232245.3044
        44.0004         38.0004
  22821198.7384   27075296.30743  21096294.54642  22821201.0374   22821199.9634
        49.0004         43.0004
  24037357.5504    1020194.31643    799825.22542  24037358.0494   24037358.7764
        46.0004         39.0004
  21522965.3104  -11259913.08343  -8761637.02942  21522966.1604   21522964.7094
        53.0004         47.0004
  24586293.3224   25465566.18343  19842580.87242  24586294.9464   24586296.4004
        44.0004         39.0004
  23145099.9414   22996106.51743  17920374.60342  23145101.3484   23145100.3944
        47.0004         41.0004
  23225926.2074   -9966382.79543  -7684691.01342  23225927.4514   23225924.6194
        48.0004         41.0004
 04  6 18 17  0  0.0000000  0 10G22G21G18G14G 6G16G15G29G26G 3
  21115613.6454    6881979.53744   5367691.94942  21115613.7974   21115609.8354
        57.0004         49.0004
  20579486.7854   14612839.39144  11394405.17042  20579487.7524   20579484.3334
        57.0004         50.0004
  20496427.8764   -3099163.45743  -2405451.98142  20496429.0104   20496425.5074
        56.0004         51.0004
  24217903.3554   -6142668.20843  -4456535.94842  24217904.3984   24217906.7614
        45.0004         38.0004
  22834009.8254   27142617.91443  21148752.85842  22834011.2604   22834011.1204
        49.0004         43.0004
  24043420.6774    1052061.92843    824657.07042  24043422.3524   24043424.5924
        45.0004         39.0004
  21515141.8854  -11301026.03343  -8793673.07342  21515142.3284   21515141.4004
        53.0004         47.0004
  24598035.8674   25527266.28043  19890658.82742  24598036.5404   24598036.5544
        44.0004         39.0004
  23156347.0484   23055210.68543  17966429.76542  23156349.3834   23156347.7034
        47.0004         41.0004
  23215753.2834  -10019842.77343  -7726348.10242  23215753.9344   23215753.5794
        48.0004         41.0004
 04  6 18 17  0 20.0000000  0  9G22G21G18G14G 6G16G29G26G 3
  21110951.4644    6857480.38644   5348601.71842  21110951.9194   21110947.6744
        57.0004         49.0004
  20580534.7584   14618345.87944  11398695.93942  20580535.5924   20580532.3684
        57.0004         50.0004
  20498453.8944   -3088517.30143  -2397156.27942  20498455.0194   20498451.6774
        56.0004         51.0004
  24203568.6434   -6218000.66543  -4515236.45442  24203570.1774   24203572.3454
        45.0004         38.0004
  22846839.7014   27210039.74843  21201289.26742  22846841.3034   22846842.8834
        49.0004         43.0004
  24049512.6254    1084073.91143    849601.41242  24049514.6904   24049515.1964
        45.0004         38.0004
  24609797.2014   25589076.69343  19938822.74142  24609797.7604   24609799.9604
        45.0004         39.0004
  23167629.8904   23114504.25243  18012632.50642  23167631.5394   23167630.2424
        47.0004         41.0004
  23205608.7414  -10073150.24943  -7767886.36342  23205610.3534   23205610.5244
        48.0004         41.0004
 04  6 18 17  0 40.0000000  0 10G22G21G18G14G 6G16G15G29G26G 3
  21106319.0944    6833135.96044   5329632.05642  21106319.0624   21106314.7514
        57.0004         49.0004
  20581605.7074   14623975.60544  11403082.73542  20581607.0104   20581603.9644
        57.0004         50.0004
  20500507.2994   -3077726.08043  -2388747.53542  20500508.6334   20500505.2504
        56.0004         51.0004
  24189236.5594   -6293308.75743  -4573917.97242  24189237.4014   24189239.2404
        44.0004         38.0004
  22859688.8604   27277561.50043  21253903.52442  22859690.3464   22859691.5894
        49.0004         43.0004
  24055631.9884    1116229.83343    874657.92842  24055632.6934   24055633.2464
        46.0004         39.0004
  21499527.5504   -1090539.35953   -824526.02752  21499528.2474   21499526.4994
        54.0004         47.0004
  24621579.8064   25650997.30943  19987072.53442  24621581.1214   24621580.4274
        44.0004         39.0004
  23178948.3684   23173986.74243  18058982.45742  23178950.2784   23178949.6914
        47.0004         41.0004
  23195494.4174  -10126304.03743  -7809304.87642  23195494.8824   23195494.4754
        49.0004         41.0004
 04  6 18 17  1  0.0000000  0 10G22G21G18G14G 6G16G15G29G26G 3
  21101714.9254    6808942.40444   5310779.94342  21101715.0794   21101711.1344
        57.0004         49.0004
  20582700.0814   14629725.15844  11407562.89942  20582701.0284   20582697.6994
        57.0004         50.0004
  20502587.6054   -3066794.01643  -2380229.04642  20502588.8994   20502585.2024
        56.0004         51.0004
  24174911.0934   -6368595.23343  -4632582.64742  24174912.8164   24174914.0774
        45.0004         38.0004
  22872556.0604   27345178.77343  21306592.22342  22872557.0554   22872558.2104
        49.0004         43.0004
  24061777.9394    1148525.22443    899823.09442  24061779.4934   24061779.3424
        46.0004         38.0004
  21491735.7074   -1131485.41643   -856432.02642  21491736.0164   21491734.7134
        54.0004         47.0004
  24633382.8854   25713023.50843  20035404.59442  24633385.1384   24633385.5394
        44.0004         38.0004
  23190303.3604   23233653.64343  18105476.09542  23190304.2444   23190304.5294
        46.0004         41.0004
  23185407.9134  -10179307.11143  -7850605.92942  23185409.6234   23185408.9604
        48.0004         41.0004
 04  6 18 17  1 20.0000000  0 10G22G21G18G14G 6G16G15G29G26G 3
  21097140.4324    6784903.39144   5292048.26942  21097140.8804   21097136.6494
        57.0004         49.0004
  20583817.7054   14635598.69744  11412139.67442  20583818.6174   20583815.5714
        57.0004         50.0004
  20504695.3604   -3055717.68143  -2371598.13742  20504696.4044   20504693.0964
        56.0004         51.0004
  24160589.2874   -6443855.71343  -4691227.07442  24160590.1754   24160592.5094
        45.0004         38.0004
  22885441.9344   27412894.68343  21359357.78042  22885444.3754   22885444.3214
        49.0004         43.0004
  24067950.5274    1180963.31043    925099.46242  24067951.4154   24067952.0284
        45.0004         39.0004
  21483955.0664   -1172373.70843   -888293.01642  21483955.0134   21483954.2504
        54.0004         47.0004
  24645206.8834   25775158.47143  20083821.40742  24645208.6324   24645208.1404
        43.0004         38.0004
  23201693.8064   23293507.87643  18152115.70442  23201695.0474   23201694.5394
        47.0004         41.0004
  23175351.3354  -10232154.94943  -7891786.03042  23175352.4584   23175350.5124
        48.0004         41.0004
 04  6 18 17  1 40.0000000  0 10G22G21G18G14G 6G16G15G29G26G 3
  21092594.8374    6761016.43544   5273435.07942  21092595.5984   21092590.8474
        57.0004         49.0004
  20584958.4914   14641594.00644  11416811.33342  20584959.5144   20584956.4734
        57.0004         50.0004
  20506830.1694   -3044499.78743  -2362856.92242  20506831.2954   20506827.9564
        56.0004         51.0004
  24146272.9754   -6519091.71443  -4749852.42742  24146274.3874   24146273.8194
        45.0004         38.0004
  22898346.1304   27480706.23343  21412197.86442  22898348.0874   22898349.0144
        48.0004         43.0004
  24074150.3244    1213540.81343    950484.46342  24074151.0084   24074150.8214
        45.0004         39.0004
  21476184.6124   -1213206.15743   -920110.49242  21476184.7654   21476183.9414
        54.0004         47.0004
  24657050.7824   25837398.96143  20132320.44742  24657053.3654   24657054.0964
        44.0004         38.0004
  23213118.2764   23353546.18443  18198898.76142  23213119.9604   23213120.6664
        47.0004         41.0004
  23165323.8014  -10284849.14343  -7932846.41242  23165324.4784   23165323.3174
        49.0004         41.0004
 04  6 18 17  2  0.0000000  0 10G22G21G18G14G 6G16G15G29G26G 3
  21088078.3904    6737282.03044   5254940.76142  21088078.7244   21088074.5064
        57.0004         49.0004
  20586122.7914   14647711.94744  11421578.54742  20586123.8954   20586120.3594
        57.0004         50.0004
  20508991.7124   -3033140.26043  -2354005.34142  20508993.0604   20508989.5324
        56.0004         51.0004
  24131959.9104   -6594301.77843  -4808457.55042  24131962.2434   24131962.6344
        46.0004         38.0004
  22911268.6244   27548613.22843  21465112.31842  22911270.8154   22911270.5314
        49.0004         43.0004
  24080376.3874    1246257.45243    975977.87742  24080377.2514   24080377.1394
        45.0004         38.0004
  21468425.2554   -1253981.90743   -951883.78142  21468425.5344   21468424.1694
        54.0004         47.0004
  24668915.7594   25899744.84943  20180901.61942  24668917.4704   24668918.1104
        44.0004         38.0004
  23224578.1784   23413768.16443  18245824.93342  23224578.9704   23224579.8274
        47.0004         41.0004
  23155326.0474  -10337388.50643  -7973786.14842  23155327.0964   23155326.0614
        48.0004         41.0004
 04  6 18 17  2 20.0000000  0 10G22G21G18G14G 6G16G15G29G26G 3
  21083591.1354    6713701.26444   5236566.15042  21083591.8684   21083586.8254
        57.0004         49.0004
  20587310.6294   14653954.07544  11426442.53742  20587311.6854   20587308.2004
        57.0004         50.0004
  20511180.6044   -3021638.07643  -2345042.60542  20511181.6804   20511178.1504
        56.0004         51.0004
  24117654.2004   -6669483.91543  -4867040.92342  24117654.6474   24117655.4394
        44.0004         38.0004
  22924209.2994   27616616.23743  21518101.57442  22924211.1764   22924210.5774
        49.0004         43.0004
  24086628.1324    1279113.90543   1001580.23542  24086629.8224   24086630.3504
        46.0004         39.0004
  21460676.9264   -1294699.34743   -983611.63542  21460677.2334   21460676.1074
        54.0004         47.0004
  24680799.7274   25962196.77243  20229565.42642  24680801.2004   24680802.2554
        43.0004         38.0004
  23236073.2404   23474174.37743  18292894.65942  23236075.2144   23236074.8084
        47.0004         41.0004
  23145357.5224  -10389770.96243  -8014603.61842  23145359.1104   23145358.1964
        49.0004         41.0004
 04  6 18 17  2 40.0000000  0 10G22G21G18G14G 6G16G15G29G26G 3
  21079132.6814    6690271.35144   5218309.10242  21079132.9214   21079128.6824
        57.0004         49.0004
  20588521.6774   14660317.76344  11431401.24842  20588522.9324   20588519.3274
        57.0004         50.0004
  20513395.9174   -3009996.48143  -2335971.23342  20513397.3484   20513393.5794
        56.0004         51.0004
  24103352.0054   -6744639.99643  -4925603.98842  24103353.2204   24103355.4324
        45.0004         39.0004
  22937167.4214   27684711.83043  21571162.97942  22937169.9454   22937167.9814
        49.0004         43.0004
  24092906.8554    1312106.58243   1027288.76242  24092908.7034   24092908.2794
        46.0004         39.0004
  21452939.3554   -1335360.98843  -1015296.01242  21452939.7154   21452938.3544
        54.0004         47.0004
  24692703.4924   26024751.20843  20278309.11742  24692705.3394   24692705.1374
        44.0004         38.0004
  23247602.6954   23534761.04743  18340105.00542  23247605.0594   23247603.8634
        47.0004         41.0004
  23135419.0744  -10441998.64143  -8055300.48042  23135419.7494   23135419.0774
        49.0004         41.0004
 04  6 18 17  3  0.0000000  0 10G22G21G18G14G 6G16G15G29G26G 3
  21074703.5574    6666996.69844   5200173.03042  21074703.7714   21074699.3984
        57.0004         49.0004
  20589756.7594   14666808.19944  11436458.72442  20589757.8494   20589754.4974
        57.0004         50.0004
  20515638.5274   -2998211.23543  -2326787.92542  20515639.4814   20515636.2214
        56.0004         50.0004
  24089055.8594   -6819764.66943  -4984142.57742  24089057.4004   24089058.0364
        45.0004         38.0004
  22950144.4304   27752903.97843  21624299.61842  22950145.8224   22950144.3234
        49.0004         43.0004
  24099211.5344    1345239.38543   1053106.46842  24099213.5664   24099212.1204
        45.0004         38.0004
  21445213.3044   -1375961.85443  -1046933.03242  21445213.2484   21445212.2634
        54.0004         47.0004
  24704627.5114   26087411.90143  20327135.59542  24704629.7134   24704627.9654
        44.0004         38.0004
  23259166.8754   23595532.04743  18387458.99642  23259168.5994   23259167.8334
        47.0004         41.0004
  23125511.2844  -10494066.05943  -8095872.47342  23125512.9134   23125512.1344
        49.0004         41.0004
 04  6 18 17  3 20.0000000  0 10G22G21G18G14G 6G16G15G29G26G 3
  21070302.6874    6643870.67044   5182152.76942  21070302.9124   21070298.5644
        57.0004         49.0004
  20591014.7834   14673418.72344  11441609.77242  20591015.5294   20591012.2704
        57.0004         50.0004
  20517907.1344   -2986289.35243  -2317498.14442  20517908.5024   20517904.8144
        56.0004         51.0004
  24074765.1034   -6894863.89043  -5042661.32442  24074766.2044   24074768.6674
        45.0004         38.0004
  22963137.7264   27821185.10343  21677505.59642  22963139.4974   22963138.1554
        49.0004         43.0004
  24105541.7594    1378504.68243   1079027.40742  24105542.2304   24105542.8934
        46.0004         39.0004
  21437497.1804   -1416508.19743  -1078527.57142  21437497.6114   21437496.2064
        54.0004         47.0004
  24716569.8424   26150171.41343  20376039.07442  24716573.1534   24716572.4224
        43.0004         38.0004
  23270764.8264   23656479.63143  18434950.57942  23270765.9564   23270765.8574
        46.0004         40.0004
  23115632.6664  -10545979.19943  -8136324.24042  23115633.6444   23115631.7494
        49.0004         41.0004
 04  6 18 17  3 40.0000000  0 10G22G21G18G14G 6G16G15G29G26G 3
  21065931.2714    6620898.98444   5164252.78042  21065931.7694   21065927.1474
        57.0004         49.0004
  20592296.8214   14680155.81544  11446859.45042  20592298.1004   20592294.4344
        57.0004         50.0004
  20520202.8404   -2974225.24043  -2308097.54242  20520204.1684   20520200.4724
        56.0004         51.0004
  24060479.3404   -6969930.77943  -5101154.88142  24060480.5184   24060483.1024
        45.0004         38.0004
  22976149.1964   27889560.66943  21730785.15242  22976149.2394   22976149.7914
        49.0004         42.0004
  24111897.4114    1411907.81543   1105055.74242  24111899.5254   24111899.2094
        45.0004         38.0004
  21429793.0984   -1456993.65743  -1110074.65542  21429793.5214   21429792.4554
        54.0004         47.0004
  24728532.5824   26213035.07343  20425023.70242  24728534.0764   24728533.3134
        43.0004         38.0004
  23282397.0744   23717609.03043  18482583.84042  23282398.0744   23282398.9214
        46.0004         41.0004
  23105784.4164  -10597731.39843  -8176650.61042  23105785.6534   23105783.8364
        49.0004         42.0004
 04  6 18 17  4  0.0000000  0 10G22G21G18G14G 6G16G15G29G26G 3
  21061588.9364    6598079.53044   5146471.40842  21061589.3734   21061584.3294
        57.0004         49.0004
  20593602.5674   14687017.58844  11452206.28142  20593603.7744   20593600.1154
        57.0004         50.0004
  20522525.2364   -2962021.18443  -2298587.88842  20522526.6344   20522522.7234
        56.0004         51.0004
  24046201.6164   -7044966.58943  -5159624.22542  24046202.3484   24046204.9784
        45.0004         39.0004
  22989177.8824   27958027.84043  21784136.11142  22989179.8614   22989179.9824
        48.0004         42.0004
  24118279.4674    1445445.92843   1131189.26742  24118282.0354   24118281.6384
        45.0004         38.0004
  21422100.3434   -1497419.98143  -1141575.66642  21422100.5494   21422099.0054
        54.0004         47.0004
  24740514.8844   26276000.09843  20474087.31542  24740516.1204   24740517.0644
        44.0004         38.0004
  23294064.0474   23778917.30443  18530356.45442  23294065.3894   23294066.1624
        47.0004         41.0004
  23095966.1304  -10649324.05243  -8216852.64342  23095967.8724   23095967.1164
        48.0004         41.0004
 04  6 18 17  4 20.0000000  0 10G22G21G18G14G 6G16G15G29G26G 3
  21057275.2804    6575410.56944   5128807.30342  21057275.6134   21057271.0454
        57.0004         49.0004
  20594931.8504   14694002.81044  11457649.30542  20594932.9134   20594929.3164
        57.0004         50.0004
  20524873.8884   -2949679.07743  -2288970.66842  20524875.0534   20524871.9294
        56.0004         51.0004
  24031927.6294   -7119971.91443  -5218069.79542  24031929.7164   24031930.5484
        45.0004         39.0004
  23002223.9984   28026584.49343  21837556.76742  23002225.4834   23002224.8544
        49.0004         42.0004
  24124688.2164    1479116.76043   1157426.22342  24124688.3344   24124689.4394
        46.0004         39.0004
  21414418.5374   -1537788.27743  -1173031.46042  21414418.7074   21414417.4894
        54.0004         47.0004
  24752515.9664   26339064.20743  20523228.14342  24752517.0974   24752515.8864
        44.0004         38.0004
  23305764.2504   23840402.03943  18578266.60342  23305765.7544   23305764.6754
        47.0004         41.0004
  23086178.0164  -10700757.98943  -8256931.01442  23086180.4114   23086179.2764
        48.0004         41.0004
 04  6 18 17  4 40.0000000  0 10G22G21G18G14G 6G16G15G29G26G 3
  21052990.2084    6552892.26044   5111260.59142  21052990.6404   21052986.1634
        57.0004         49.0004
  20596284.6344   14701111.95844  11463188.89642  20596285.6724   20596281.9924
        57.0004         50.0004
  20527248.7954   -2937199.36043  -2279246.21642  20527249.8614   20527246.2924
        56.0004         51.0004
  24017660.6074   -7194945.74043  -5276490.84442  24017663.5914   24017663.7434
        46.0004         39.0004
  23015286.5744   28095230.09643  21891046.74442  23015287.9664   23015289.2164
        48.0004         42.0004
  24131120.8254    1512919.82743   1183766.21842  24131121.8274   24131122.7474
        46.0004         39.0004
  21406747.8274   -1578098.03343  -1204441.63842  21406748.0134   21406746.4524
        54.0004         47.0004
  24764534.8384   26402226.90343  20572445.79742  24764537.2554   24764536.9394
        44.0004         38.0004
  23317497.4334   23902062.54043  18626313.70542  23317500.6104   23317499.4104
        47.0004         41.0004
  23076421.4124  -10752032.17443  -8296884.87842  23076423.5314   23076422.0104
        48.0004         41.0004
 04  6 18 17  5  0.0000000  0 10G22G21G18G14G 6G16G15G29G26G 3
  21048734.6564    6530530.06844   5093835.53342  21048735.0344   21048730.3814
        57.0004         50.0004
  20597662.2064   14708351.00844  11468829.70742  20597663.5694   20597659.6744
        57.0004         50.0004
  20529650.7154   -2924576.76543  -2269410.43242  20529651.9134   20529648.2944
        56.0004         51.0004
  24003401.0734   -7269881.76043  -5334882.41642  24003401.8004   24003404.2314
        46.0004         39.0004
  23028367.4654   28163969.49443  21944609.81342  23028368.5274   23028370.1854
        49.0004         42.0004
  24137579.1594    1546859.67243   1210212.76042  24137580.3684   24137581.7434
        46.0004         39.0004
  21399089.2984   -1618343.36543  -1235801.61742  21399089.9794   21399088.4904
        54.0004         47.0004
  24776573.6724   26465492.99543  20621744.02442  24776575.5294   24776575.0704
        44.0004         38.0004
  23329265.2814   23963903.43943  18674501.36842  23329267.3684   23329268.2714
        46.0004         41.0004
  23066695.8224  -10803140.26343  -8336709.34442  23066696.9834   23066696.6754
        48.0004         42.0004
 04  6 18 17  5 20.0000000  0 10G22G21G18G14G 6G16G15G29G26G 3
  21044507.4994    6508315.88644   5076525.80742  21044507.7334   21044503.7184
        57.0004         50.0004
  20599062.8454   14715712.04244  11474565.56942  20599063.9454   20599060.3684
        57.0004         50.0004
  20532078.2134   -2911819.85843  -2259469.98742  20532079.4024   20532076.0114
        56.0004         51.0004
  23989146.6454   -7344787.25243  -5393250.19742  23989148.4654   23989148.8494
        46.0004         39.0004
  23041464.5654   28232793.98743  21998239.17142  23041465.2104   23041467.0254
        49.0004         42.0004
  24144061.3674    1580927.66143   1236759.20142  24144064.3234   24144062.7114
        45.0004         39.0004
  21391441.8904   -1658531.70443  -1267117.18242  21391442.4804   21391440.5944
        54.0004         47.0004
  24788631.1194   26528853.67543  20671115.95642  24788633.8604   24788633.1464
        44.0004         38.0004
  23341066.2624   24025915.91943  18722822.74142  23341068.3364   23341066.8374
        47.0004         41.0004
  23057000.9394  -10854089.64843  -8376410.13542  23057002.4014   23057001.7364
        48.0004         42.0004
 04  6 18 17  5 40.0000000  0 10G22G21G18G14G 6G16G15G29G26G 3
  21040308.4584    6486249.28744   5059331.08042  21040308.9374   21040304.6424
        57.0004         50.0004
  20600486.8794   14723195.19344  11480396.59042  20600488.1434   20600484.3674
        57.0004         50.0004
  20534531.3024   -2898929.09643  -2249425.23742  20534532.4744   20534529.3294
        56.0004         51.0004
  23974898.9404   -7419661.59443  -5451593.71542  23974900.3734   23974901.1834
        46.0004         39.0004
  23054577.3964   28301702.69643  22051934.16842  23054580.3874   23054580.2924
        48.0004         42.0004
  24150569.5334    1615122.73243   1263404.66042  24150571.5244   24150570.7504
        46.0004         39.0004
  21383805.0754   -1698663.19943  -1298388.45042  21383805.8624   21383803.7544
        54.0004         47.0004
  24800705.9404   26592307.96343  20720560.82542  24800707.6004   24800707.7834
        44.0004         37.0004
  23352899.7914   24088098.83143  18771276.92442  23352901.6904   23352901.3074
        47.0004         41.0004
  23047335.6214  -10904879.93743  -8415986.95942  23047336.3634   23047336.6914
        48.0004         42.0004
 04  6 18 17  6  0.0000000  0  9G22G21G18G14G 6G16G15G26G 3
  21036140.5964    6464347.87144   5042265.06342  21036140.9274   21036136.6784
        57.0004         50.0004
  20601937.6374   14730818.27044  11486336.64342  20601938.5754   20601935.0944
        57.0004         50.0004
  20537013.2024   -2885887.21543  -2239262.73342  20537014.2144   20537010.9724
        56.0004         51.0004
  23960659.5474   -7494486.35843  -5509898.58542  23960662.0504   23960662.1114
        47.0004         39.0004
  23067709.8094   28370712.49143  22105707.92542  23067711.3334   23067711.9854
        48.0004         42.0004
  24157103.1544    1649461.66743   1290162.24042  24157106.9724   24157104.8804
        46.0004         39.0004
  21376182.3414   -1738719.68443  -1329601.26842  21376182.7074   21376181.9084
        54.0004         47.0004
  23364767.9374   24150468.82143  18819876.87542  23364769.7704   23364769.1654
        47.0004         41.0004
  23037704.4624  -10955492.75943  -8455425.50042  23037704.4404   23037703.9774
        48.0004         42.0004
 04  6 18 17  6 20.0000000  0  9G22G21G18G14G 6G16G15G26G 3
  21031999.3974    6442586.02044   5025307.79842  21031999.9574   21031995.5894
        57.0004         50.0004
  20603410.2054   14738556.17744  11492366.17742  20603411.2474   20603407.3804
        57.0004         50.0004
  20539518.6344   -2872719.95443  -2229002.53042  20539519.7974   20539516.3664
        56.0004         51.0004
  23946425.8194   -7569286.21743  -5568184.05742  23946427.2144   23946428.1444
        46.0004         39.0004
  23080856.4604   28439797.11343  22159539.99542  23080857.7784   23080859.2094
        49.0004         42.0004
  24163660.5684    1683918.33143   1317011.54342  24163660.1324   24163662.9284
        45.0004         39.0004
  21368569.3474   -1778726.33943  -1360775.25842  21368569.9774   21368568.4614
        54.0004         47.0004
  23376667.0864   24212999.64943  18868602.14442  23376668.3574   23376669.7664
        46.0004         41.0004
  23028101.8524  -11005952.83543  -8494745.00242  23028101.8824   23028102.8364
        48.0004         42.0004
 04  6 18 17  6 40.0000000  0  9G22G21G18G14G 6G16G15G26G 3
  21027887.1394    6420976.80544   5008469.46842  21027887.5154   21027883.2584
        57.0004         50.0004
  20604907.0554   14746422.48144  11498495.75742  20604908.1984   20604904.4564
        57.0004         50.0004
  20542050.6244   -2859414.45843  -2218634.61242  20542051.8304   20542048.6804
        56.0004         50.0004
  23932199.1504   -7644047.06843  -5626439.12742  23932200.8174   23932200.5024
        46.0004         40.0004
  23094019.4114   28508969.29443  22213440.30042  23094020.7014   23094020.7144
        48.0004         42.0004
  24170242.4204    1718505.22243   1343962.31042  24170244.6494   24170242.7954
        46.0004         39.0004
  21360968.3684   -1818669.40243  -1391899.70242  21360969.0404   21360967.6504
        54.0004         47.0004
  23388599.6784   24275703.82343  18917462.48842  23388600.9774   23388601.3414
        46.0004         41.0004
  23018531.2254  -11056246.10743  -8533934.52942  23018534.3394   23018531.1484
        48.0004         42.0004
 04  6 18 17  7  0.0000000  0  9G22G21G18G14G 6G16G15G26G 3
  21023804.0144    6399518.33144   4991748.60142  21023804.4334   21023800.3124
        57.0004         50.0004
  20606428.0144   14754415.70744  11504724.24142  20606429.0624   20606425.2864
        57.0004         50.0004
  20544608.5184   -2845972.92343  -2208160.69242  20544609.7504   20544606.2124
        56.0004         50.0004
  23917980.0384   -7718769.74943  -5684664.46642  23917981.6024   23917981.8884
        47.0004         40.0004
  23107198.5724   28578226.50443  22267406.84042  23107200.2924   23107200.3814
        48.0004         42.0004
  24176848.4384    1753219.79743   1371012.58842  24176848.8124   24176850.6314
        45.0004         39.0004
  21353379.4124   -1858550.32443  -1422975.71942  21353379.9284   21353378.0504
        54.0004         47.0004
  23400564.2204   24338578.40143  18966455.62042  23400565.9974   23400564.0934
        46.0004         41.0004
  23008992.5974  -11106373.65443  -8572994.92442  23008993.5074   23008991.5354
        49.0004         42.0004
 04  6 18 17  7 20.0000000  0  9G22G21G18G14G 6G16G15G26G 3
  21019748.9174    6378209.77044   4975144.54642  21019749.3424   21019744.8774
        57.0004         50.0004
  20607973.1154   14762535.33244  11511051.21942  20607974.2294   20607970.5704
        57.0004         50.0004
  20547191.8384   -2832396.77443  -2197581.87542  20547193.2154   20547189.7444
        56.0004         51.0004
  23903767.8104   -7793454.16543  -5742859.95742  23903769.7594   23903770.4144
        47.0004         40.0004
  23120393.8724   28647567.28643  22321438.50742  23120394.0274   23120394.6814
        49.0004         42.0004
  24183477.8184    1788060.48743   1398161.10242  24183479.7874   24183478.6974
        46.0004         38.0004
  21345801.8184   -1898369.53343  -1454003.64842  21345802.6764   21345801.1714
        54.0004         47.0004
  23412561.1564   24401621.81443  19015580.30442  23412562.5754   23412561.5594
        46.0004         41.0004
  22999485.0754  -11156335.51943  -8611926.21542  22999486.4244   22999484.0774
        49.0004         42.0004
 04  6 18 17  7 40.0000000  0  9G22G21G18G14G 6G16G15G26G 3
  21015722.4854    6357050.38244   4958656.72642  21015722.8664   21015718.5004
        57.0004         50.0004
  20609542.2184   14770781.04244  11517476.44342  20609543.1494   20609539.9834
        57.0004         50.0004
  20549800.7254   -2818686.80143  -2186898.78142  20549802.1934   20549798.8254
        56.0004         50.0004
  23889563.2074   -7868100.19043  -5801025.55642  23889562.6744   23889563.6404
        47.0004         40.0004
  23133605.1884   28716990.39343  22375534.32042  23133606.3844   23133606.2144
        48.0004         42.0004
  24190131.5954    1823025.99343   1425406.90342  24190132.5134   24190133.1654
        45.0004         38.0004
  21338236.2334   -1938127.18743  -1484983.61642  21338236.3694   21338235.2814
        54.0004         47.0004
  23424589.6464   24464832.80043  19064835.58342  23424591.1154   23424590.2264
        47.0004         40.0004
  22990009.1924  -11206131.61243  -8650728.32342  22990009.1544   22990010.7804
        49.0004         42.0004
 04  6 18 17  8  0.0000000  0  9G22G21G18G14G 6G16G15G26G 3
  21011724.7924    6336042.20744   4942286.73542  21011725.1734   21011720.9294
        57.0004         50.0004
  20611135.8004   14779155.41644  11524001.92342  20611136.6964   20611133.3874
        57.0004         50.0004
  20552435.6734   -2804841.02543  -2176109.86742  20552437.1134   20552433.4254
        56.0004         51.0004
  23875366.2294   -7942704.88143  -5859158.92442  23875368.6044   23875368.3554
        47.0004         40.0004
  23146831.8464   28786497.24643  22429695.39542  23146832.7164   23146831.9394
        49.0004         42.0004
  24196809.2794    1858117.59343   1452750.96242  24196809.9674   24196811.9264
        45.0004         38.0004
  21330683.0054   -1977820.80543  -1515913.68242  21330683.4804   21330682.3804
        54.0004         47.0004
  23436651.0204   24528212.50943  19114222.32342  23436651.2904   23436651.5934
        47.0004         41.0004
  22980565.4654  -11255759.05443  -8689399.02442  22980567.7354   22980566.3334
        49.0004         42.0004
 04  6 18 17  8 20.0000000  0  9G22G21G18G14G 6G16G15G26G 3
  21007755.4914    6315184.08644   4926033.67642  21007756.0294   21007751.7284
        57.0004         50.0004
  20612753.7774   14787657.78144  11530627.13742  20612754.8074   20612751.5554
        57.0004         50.0004
  20555096.0084   -2790860.88143  -2165216.24942  20555097.2124   20555093.8204
        56.0004         50.0004
  23861176.5344   -8017268.36643  -5917260.19442  23861177.8884   23861179.6274
        47.0004         40.0004
  23160074.0544   28856086.21443  22483920.46442  23160074.5454   23160077.1654
        48.0004         42.0004
  24203512.0294    1893333.59843   1480191.91742  24203512.5274   24203512.9894
        45.0004         38.0004
  21323141.4324   -2017450.84843  -1546794.21342  21323142.1074   21323140.0834
        54.0004         48.0004
  23448743.6644   24591759.07643  19163739.09542  23448744.7404   23448743.2654
        47.0004         40.0004
  22971153.8674  -11305218.10043  -8727938.51942  22971154.7574   22971153.0694
        49.0004         42.0004
 04  6 18 17  8 40.0000000  0  9G22G21G18G14G 6G16G15G26G 3
  21003815.4304    6294477.96344   4909899.05942  21003815.8534   21003811.1974
        57.0004         50.0004
  20614396.6924   14796290.15344  11537353.65542  20614397.5704   20614394.0434
        57.0004         50.0004
  20557782.2544   -2776744.88543  -2154216.77542  20557783.5794   20557779.8624
        56.0004         50.0004
  23846996.0144   -8091787.76643  -5975327.10542  23846997.0314   23846999.5554
        47.0004         40.0004
  23173332.1164   28925758.61443  22538210.52342  23173334.4614   23173333.3764
        48.0004         42.0004
  24210235.9504    1928675.13443   1507730.73742  24210235.5724   24210238.0834
        44.0004         38.0004
  21315612.6374   -2057014.99843  -1577623.39642  21315613.5374   21315611.9574
        54.0004         48.0004
  23460866.7714   24655473.50443  19213386.65142  23460870.2424   23460869.2824
        46.0004         40.0004
  22961774.3514  -11354506.02443  -8766344.66142  22961776.6174   22961776.0464
        49.0004         42.0004
 04  6 18 17  9  0.0000000  0  9G22G21G18G14G 6G16G15G26G 3
  20999902.9754    6273918.30644   4893878.56542  20999903.3464   20999899.1404
        57.0004         50.0004
  20616063.0644   14805047.53544  11544177.58642  20616063.9834   20616060.6134
        57.0004         50.0004
  20560493.2564   -2762498.69943  -2143115.85342  20560494.5504   20560490.9584
        56.0004         50.0004
  23832823.2334   -8166267.68043  -6033363.25342  23832825.2444   23832825.9104
        46.0004         40.0004
  23186605.3674   28995508.31743  22592560.82242  23186607.0094   23186607.5424
        48.0004         42.0004
  24216983.8204    1964136.10143   1535362.61942  24216984.4944   24216987.2024
        45.0004         38.0004
  21308095.1584   -2096518.22743  -1608405.10842  21308096.1624   21308094.6484
        54.0004         48.0004
  23473022.2294   24719349.67343  19263160.24142  23473023.9924   23473023.2074
        46.0004         40.0004
  22952427.1074  -11403627.48043  -8804621.07342  22952429.1424   22952426.4684
        49.0004         42.0004
 04  6 18 17  9 20.0000000  0  9G22G21G18G14G 6G16G15G26G 3
  20996019.2564    6253509.43944   4877975.57142  20996019.5734   20996015.2044
        57.0004         50.0004
  20617754.1864   14813934.74344  11551102.67642  20617755.3714   20617751.7394
        57.0004         50.0004
  20563229.5684   -2748118.45443  -2131910.46742  20563230.9154   20563227.2844
        56.0004         50.0004
  23818658.4964   -8240702.73043  -6091364.43442  23818658.7364   23818660.8434
        47.0004         40.0004
  23199893.2714   29065339.10443  22646974.30142  23199894.6994   23199894.7784
        48.0004         42.0004
  24223756.2454    1999720.15743   1563090.38142  24223758.4084   24223757.6084
        45.0004         38.0004
  21300590.5084   -2135955.67343  -1639135.56042  21300590.8784   21300590.2124
        54.0004         48.0004
  23485209.6814   24783391.12043  19313062.62342  23485210.2694   23485211.4164
        46.0004         40.0004
  22943111.9234  -11452577.35043  -8842763.80042  22943112.6964   22943110.7194
        49.0004         42.0004
 04  6 18 17  9 40.0000000  0  9G22G21G18G14G 6G16G15G26G 3
  20992163.9604    6233249.50044   4862188.63042  20992164.1274   20992159.9524
        57.0004         50.0004
  20619469.6814   14822950.17144  11558127.67642  20619470.6764   20619467.1794
        57.0004         50.0004
  20565991.1474   -2733606.31543  -2120602.30742  20565992.4734   20565988.9214
        56.0004         50.0004
  23804502.3724   -8315093.83943  -6149331.39042  23804505.8054   23804504.7384
        47.0004         40.0004
  23213196.9414   29135248.51943  22701449.05242  23213198.0284   23213200.0204
        48.0004         42.0004
  24230549.9564    2035424.90643   1590912.22642  24230551.4354   24230553.6254
        45.0004         38.0004
  21293098.2304   -2175328.61443  -1669815.75342  21293098.7084   21293097.2504
        54.0004         47.0004
  23497427.7084   24847595.26243  19363091.78042  23497429.2044   23497429.4324
        46.0004         40.0004
  22933829.3904  -11501356.59943  -8880773.56242  22933829.9354   22933829.5064
        49.0004         42.0004
 04  6 18 17 10  0.0000000  0  9G22G21G18G14G 6G16G15G26G 3
  20988336.8394    6213137.85544   4846517.23542  20988337.3674   20988333.1944
        57.0004         50.0004
  20621209.6214   14832093.88544  11565252.64242  20621210.8774   20621207.2224
        57.0004         50.0004
  20568777.6864   -2718962.71543  -2109191.71242  20568778.9924   20568775.5174
        56.0004         50.0004
  23790354.4274   -8389440.83443  -6207263.95542  23790354.8034   23790356.5134
        47.0004         40.0004
  23226515.0954   29205235.56443  22755984.28742  23226516.9794   23226517.5274
        47.0004         42.0004
  24237367.4024    2071248.98343   1618827.06942  24237367.3414   24237369.3524
        45.0004         38.0004
  21285617.8734   -2214637.19843  -1700445.79642  21285618.6534   21285616.4914
        54.0004         48.0004
  23509675.7624   24911960.63943  19413246.59042  23509677.8514   23509677.0784
        46.0004         40.0004
  22924579.9564  -11549965.02643  -8918650.23142  22924580.9424   22924580.5444
        49.0004         42.0004
 04  6 18 17 10 20.0000000  0  9G22G21G18G14G 6G16G15G26G 3
  20984538.3164    6193176.84944   4830963.22642  20984538.7764   20984534.4554
        57.0004         50.0004
  20622974.6544   14841368.67244  11572479.74242  20622975.9304   20622972.2984
        57.0004         50.0004
  20571589.7184   -2704185.61043  -2097677.08142  20571591.1544   20571587.5244
        56.0004         50.0004
  23776215.0894   -8463740.26943  -6265159.47142  23776216.8024   23776217.8894
        47.0004         40.0004
  23239848.6884   29275301.79943  22810581.22342  23239850.0674   23239852.2114
        48.0004         42.0004
  24244208.6194    2107194.05743   1646836.16242  24244209.5944   24244209.2124
        45.0004         38.0004
  21278150.3994   -2253878.51643  -1731023.42342  21278151.1084   21278149.8684
        54.0004         48.0004
  23521955.1804   24976488.96043  19463528.34942  23521956.3194   23521956.7354
        46.0004         40.0004
  22915362.2694  -11598399.41543  -8956391.27142  22915363.9164   22915363.4284
        49.0004         42.0004
 04  6 18 17 10 40.0000000  0  9G22G21G18G14G 6G16G15G26G 3
  20980767.9204    6173363.89544   4815524.58142  20980768.1824   20980763.8594
        57.0004         50.0004
  20624764.1944   14850772.34444  11579807.26742  20624765.1134   20624761.4234
        57.0004         50.0004
  20574426.5234   -2689277.86143  -2086060.65542  20574427.6934   20574424.4774
        56.0004         50.0004
  23762085.1134   -8537993.56143  -6323019.02742  23762087.3194   23762087.5004
        47.0004         40.0004
  23253196.3284   29345444.31943  22865237.60842  23253197.6554   23253198.6704
        48.0004         42.0004
  24251069.6324    2143256.90643   1674937.02942  24251069.7354   24251071.5254
        44.0004         38.0004
  21270695.5404   -2293054.49543  -1761550.13842  21270696.4814   21270694.9504
        54.0004         48.0004
  23534264.9464   25041176.92643  19513934.51942  23534267.1344   23534267.1224
        45.0004         40.0004
  22906178.3524  -11646661.39243  -8993997.97142  22906179.5624   22906179.4124
        49.0004         42.0004
 04  6 18 17 11  0.0000000  0  9G22G21G18G14G 6G16G15G26G 3
  20977026.0014    6153699.50544   4800201.69842  20977026.5934   20977021.5984
        57.0004         50.0004
  20626578.3674   14860305.65844  11587235.81242  20626579.2784   20626576.0254
        57.0004         50.0004
  20577288.3724   -2674239.41543  -2074342.38842  20577289.6584   20577286.1044
        56.0004         50.0004
  23747964.0314   -8612199.56743  -6380841.75742  23747966.1544   23747965.8354
        47.0004         40.0004
  23266558.4824   29415662.83743  22919953.20942  23266560.2174   23266561.7954
        47.0004         41.0004
  24257955.1084    2179437.24643   1703129.46542  24257955.8644   24257957.0664
        44.0004         38.0004
  21263253.2344   -2332164.33543  -1792025.31942  21263253.8104   21263252.4944
        54.0004         48.0004
  23546604.7374   25106024.15843  19564464.78442  23546606.9414   23546606.5544
        46.0004         40.0004
  22897027.4974  -11694749.82243  -9031469.44942  22897028.7584   22897027.7644
        49.0004         42.0004
 04  6 18 17 11 20.0000000  0  9G22G21G18G14G 6G16G15G26G 3
  20973312.2324    6134183.55244   4784994.48342  20973312.6234   20973308.0274
        57.0004         50.0004
  20628417.2404   14869968.98744  11594765.66842  20628418.1574   20628414.7224
        57.0004         50.0004
  20580174.9214   -2659070.60643  -2062522.53542  20580175.9874   20580172.5754
        56.0004         50.0004
  23733852.1434   -8686357.36743  -6438626.89742  23733851.8344   23733853.9854
        47.0004         40.0004
  23279934.9374   29485956.66243  22974727.47942  23279936.9324   23279937.4634
        47.0004         41.0004
  24264862.3994    2215734.40343   1731412.92242  24264864.1804   24264863.7404
        44.0004         38.0004
  21255823.3914   -2371207.52443  -1822448.56042  21255824.1564   21255822.9654
        54.0004         48.0004
  23558975.2504   25171029.64343  19615118.36542  23558975.9404   23558976.4304
        46.0004         40.0004
  22887909.8884  -11742663.94343  -9068805.09942  22887912.1504   22887909.9014
        50.0004         42.0004
 04  6 18 17 11 40.0000000  0  9G22G21G18G14G 6G16G15G26G 3
  20969626.3164    6114814.46044   4769901.70642  20969626.5114   20969622.5904
        57.0004         50.0004
  20630280.6554   14879761.13344  11602395.90242  20630281.7474   20630278.0584
        57.0004         50.0004
  20583085.7874   -2643773.21243  -2050602.48642  20583087.0624   20583083.6274
        56.0004         50.0004
  23719749.0914   -8760467.59443  -6496374.98042  23719751.1714   23719751.9594
        47.0004         40.0004
  23293325.6934   29556323.66943  23029558.79042  23293326.7024   23293328.1774
        47.0004         42.0004
  24271791.0104    2252146.10343   1759785.63742  24271792.1974   24271790.8504
        44.0004         37.0004
  21248406.2684   -2410185.15043  -1852820.71842  21248406.8374   21248405.4714
        54.0004         48.0004
  23571374.8644   25236191.31643  19665893.65542  23571376.9334   23571376.2134
        46.0004         40.0004
  22878825.2194  -11790404.63443  -9106005.60942  22878826.0634   22878825.3744
        49.0004         42.0004
 04  6 18 17 12  0.0000000  0  9G22G21G18G14G 6G16G15G26G 3
  20965969.0904    6095595.35544   4754925.79942  20965969.4924   20965965.2424
        57.0004         50.0004
  20632169.3154   14889685.66944  11610129.29642  20632169.9314   20632166.7524
        57.0004         50.0004
  20586021.8384   -2628344.17743  -2038579.86242  20586023.1304   20586019.7454
        56.0004         50.0004
  23705656.7424   -8834526.03643  -6554082.71642  23705659.3294   23705659.1874
        48.0004         40.0004
  23306730.6944   29626766.67943  23084449.32142  23306733.3274   23306733.9414
        48.0004         41.0004
  24278742.3594    2288674.77943   1788249.48542  24278743.1754   24278744.8234
        44.0004         38.0004
  21241002.3504   -2449093.50143  -1883138.89442  21241003.0044   21241001.6384
        54.0004         48.0004
  23583804.6994   25301511.43243  19716792.41542  23583805.9074   23583806.2084
        46.0004         40.0004
  22869774.5004  -11837967.62343  -9143067.65342  22869776.4554   22869774.1084
        49.0004         42.0004
 04  6 18 17 12 20.0000000  0  9G22G21G18G14G 6G16G15G26G 3
  20962340.3554    6076525.61244   4740066.27942  20962340.7174   20962336.1664
        57.0004         50.0004
  20634082.8084   14899742.31544  11617965.63642  20634083.9534   20634080.5554
        57.0004         50.0004
  20588982.9034   -2612784.49143  -2026455.42942  20588984.0284   20588980.6834
        56.0004         50.0004
  23691573.6524   -8908532.26443  -6611749.76242  23691575.8914   23691574.1994
        48.0004         40.0004
  23320150.1804   29697284.28643  23139397.98342  23320149.2854   23320153.5654
        47.0004         41.0004
  24285715.5724    2325319.28143   1816803.59642  24285718.1274   24285714.9814
        44.0004         38.0004
  21233611.5054   -2487932.61543  -1913403.12142  21233612.2684   21233610.6514
        54.0004         48.0004
  23596264.9654   25366988.65643  19767813.59042  23596267.7554   23596266.2044
        46.0004         40.0004
  22860757.5574  -11885352.71643  -9179991.06642  22860758.9044   22860757.7014
        50.0004         42.0004
 04  6 18 17 12 40.0000000  0  9G22G21G18G14G 6G16G15G26G 3
  20958739.1914    6057601.45444   4725320.20342  20958739.3624   20958734.8744
        57.0004         50.0004
  20636021.0874   14909928.00044  11625902.52642  20636022.1884   20636018.9224
        57.0004         50.0004
  20591967.8924   -2597098.00943  -2014232.19942  20591969.2014   20591965.5364
        56.0004         50.0004
  23677500.0224   -8982489.17643  -6669378.39342  23677501.3184   23677503.0104
        47.0004         40.0004
  23333581.9284   29767872.32043  23194401.51442  23333583.6944   23333585.1624
        47.0004         41.0004
  24292710.4324    2362075.27943   1845444.56242  24292711.2054   24292713.0604
        44.0004         38.0004
  21226232.9854   -2526705.70743  -1943615.89942  21226234.1034   21226231.8674
        54.0004         48.0004
  23608753.3504   25432618.59243  19818953.76442  23608755.5174   23608755.5754
        45.0004         40.0004
  22851773.6244  -11932562.96843  -9216778.25042  22851774.5584   22851774.1434
        49.0004         42.0004
 04  6 18 17 13  0.0000000  0  9G22G21G18G14G 6G16G15G26G 3
  20955165.7144    6038823.82144   4710688.29942  20955166.3124   20955161.7134
        57.0004         50.0004
  20637984.2854   14920243.99144  11633940.95142  20637985.1484   20637981.7494
        57.0004         50.0004
  20594977.0284   -2581284.36243  -2001909.87342  20594978.1434   20594974.7784
        56.0004         50.0004
  23663436.1964   -9056394.90743  -6726967.13342  23663437.7924   23663437.5104
        47.0004         40.0004
  23347028.3484   29838531.08943  23249460.15842  23347028.8944   23347031.1254
        47.0004         41.0004
  24299725.7654    2398943.02043   1874172.61042  24299727.3194   24299727.8174
        44.0004         38.0004
  21218867.5474   -2565411.23143  -1973776.03642  21218868.4074   21218866.7484
        55.0004         48.0004
  23621271.6764   25498401.27243  19870212.95742  23621273.6984   23621274.7214
        45.0004         40.0004
  22842823.3264  -11979596.56543  -9253427.78442  22842824.6284   22842823.1364
        49.0004         42.0004
 04  6 18 17 13 20.0000000  0  9G22G21G18G14G 6G16G15G26G 3
  20951621.3664    6020197.85344   4696174.58042  20951621.8244   20951617.4724
        57.0004         50.0004
  20639973.2114   14930695.83844  11642085.23642  20639974.2404   20639970.6784
        57.0004         50.0004
  20598011.5004   -2565338.35843  -1989484.41942  20598012.6884   20598009.1484
        56.0004         50.0004
  23649383.2394   -9130243.16143  -6784511.10042  23649384.6964   23649386.0244
        47.0004         40.0004
  23360488.5034   29909265.14743  23304577.46842  23360490.7544   23360490.9394
        48.0004         41.0004
  24306763.5654    2435927.03943   1902991.28842  24306764.3654   24306767.1714
        44.0004         37.0004
  21211516.3154   -2604043.42943  -2003879.02342  21211516.7344   21211515.1464
        55.0004         48.0004
  23633820.1284   25564341.22243  19921594.69142  23633821.5024   23633821.7654
        45.0004         40.0004
  22833908.1414  -12026447.42943  -9289934.91742  22833908.7344   22833907.7604
        50.0004         42.0004
 04  6 18 17 13 40.0000000  0  9G22G21G18G14G 6G16G15G26G 3
  20948104.0714    6001715.06944   4681772.42742  20948104.4144   20948099.7544
        57.0004         50.0004
  20641986.4954   14941275.16644  11650328.86042  20641987.5794   20641983.5314
        57.0004         50.0004
  20601069.5574   -2549268.93643  -1976962.79442  20601070.7394   20601067.2454
        56.0004         50.0004
  23635339.7474   -9204041.66743  -6842016.30542  23635341.7824   23635342.9574
        48.0004         40.0004
  23373961.1694   29980065.53643  23359746.46642  23373962.2554   23373964.7824
        46.0004         41.0004
  24313823.0654    2473017.96143   1931893.23442  24313823.6324   24313825.3914
        44.0004         37.0004
  21204176.9804   -2642610.49143  -2033931.26242  21204177.8534   21204176.5094
        55.0004         48.0004
  23646396.2224   25630429.01643  19973091.63442  23646398.3214   23646397.0094
        46.0004         40.0004
  22825026.0574  -12073123.35843  -9326305.75342  22825027.5424   22825026.9024
        49.0004         43.0004
 04  6 18 17 14  0.0000000  0  9G22G21G18G14G 6G16G15G26G 3
  20944614.9534    5983379.39744   4667484.91142  20944615.5244   20944610.6254
        57.0004         50.0004
  20644024.6884   14951986.75744  11658675.54342  20644025.6624   20644022.3504
        57.0004         50.0004
  20604151.5864   -2533072.08343  -1964341.87442  20604152.6884   20604149.3374
        56.0004         50.0004
  23621306.7114   -9277785.41443  -6899478.84242  23621307.5514   23621309.9094
        47.0004         40.0004
  23387447.5354   30050935.61643  23414969.76142  23387448.8724   23387450.4504
        47.0004         41.0004
  24320899.8294    2510219.24843   1960881.21442  24320903.2354   24320903.5304
        44.0004         38.0004
  21196851.3194   -2681107.69843  -2063929.07442  21196852.4024   21196850.3494
        55.0004         48.0004
  23659001.3314   25696668.11143  20024706.47342  23659003.2414   23659003.1894
        46.0004         40.0004
  22816177.6394  -12119619.52543  -9362536.50642  22816179.0074   22816177.9244
        50.0004         43.0004
 04  6 18 17 14 20.0000000  0  9G22G21G18G14G 6G16G15G26G 3
  20941154.1464    5965192.26244   4653313.13542  20941154.3874   20941149.6204
        57.0004         50.0004
  20646088.6144   14962832.31044  11667126.61142  20646089.6784   20646085.9854
        57.0004         50.0004
  20607258.2094   -2516746.81643  -1951620.88942  20607259.4844   20607255.8604
        56.0004         50.0004
  23607283.9114   -9351471.98443  -6956896.81842  23607286.4364   23607286.3184
        47.0004         40.0004
  23400947.3994   30121876.25743  23470248.05042  23400949.3484   23400950.5814
        47.0004         41.0004
  24328002.3014    2547531.58343   1989955.70842  24328002.8694   24328002.8304
        43.0004         37.0004
  21189539.3044   -2719533.07343  -2093870.90842  21189540.0134   21189537.9514
        55.0004         48.0004
  23671634.6944   25763059.02543  20076439.62142  23671636.7384   23671637.5604
        46.0004         41.0004
  22807364.4414  -12165933.58443  -9398625.36042  22807365.0914   22807364.8394
        49.0004         43.0004
 04  6 18 17 14 40.0000000  0  9G22G21G18G14G 6G16G15G26G 3
  20937720.7014    5947149.50844   4639253.86342  20937721.1214   20937716.4524
        57.0004         50.0004
  20648177.2074   14973808.21144  11675679.25542  20648178.1574   20648174.9364
        57.0004         50.0004
  20610388.2554   -2500297.47643  -1938803.22242  20610389.5474   20610385.9654
        56.0004         50.0004
  23593272.2394   -9425104.57643  -7014272.74042  23593272.8844   23593275.5294
        47.0004         40.0004
  23414459.6484   30192882.69143  23525577.58742  23414461.8404   23414463.0614
        46.0004         41.0004
  24335122.3084    2584950.19843   2019113.00242  24335123.7914   24335124.0744
        43.0004         37.0004
  21182240.3004   -2757890.18843  -2123759.55142  21182241.1324   21182238.9904
        55.0004         48.0004
  23684296.4074   25829596.93643  20128287.31342  23684298.5844   23684298.7814
        45.0004         40.0004
  22798585.3534  -12212068.95943  -9434574.98442  22798586.4504   22798584.7414
        50.0004         43.0004
 04  6 18 17 15  0.0000000  0 10G22G21G18G14G 6G16G15G 9G26G 3
  20934314.1134    5929248.02244   4625304.67542  20934314.5184   20934310.1404
        57.0004         50.0004
  20650290.2064   14984911.83344  11684331.42842  20650290.7654   20650288.0374
        57.0004         50.0004
  20613541.4654   -2483727.05143  -1925891.20142  20613542.7894   20613539.5364
        56.0004         50.0004
  23579270.2504   -9498685.14743  -7071608.12642  23579271.2084   23579274.3754
        47.0004         40.0004
  23427983.6594   30263951.49843  23580955.72842  23427984.1754   23427987.6444
        47.0004         41.0004
  24342261.7294    2622471.60443   2048350.40142  24342262.4504   24342264.0314
        44.0004         37.0004
  21174953.5494   -2796181.44043  -2153596.87542  21174954.3174   21174952.5164
        55.0004         48.0004
  24484338.6084   -4518245.74553  -3469155.35652  24484341.1524   24484343.7994
        45.0004         37.0004
  23696984.9414   25896277.97143  20180246.51142  23696987.0684   23696987.6544
        45.0004         40.0004
  22789839.3404  -12258027.71143  -9470386.96342  22789840.1924   22789838.4824
        50.0004         43.0004
 04  6 18 17 15 20.0000000  0 10G22G21G18G14G 6G16G15G 9G26G 3
  20930936.5904    5911498.06844   4611473.56342  20930936.7054   20930932.2544
        57.0004         50.0004
  20652429.4664   14996153.53144  11693091.18242  20652430.6314   20652427.2654
        57.0004         50.0004
  20616719.4344   -2467026.16043  -1912877.52342  20616721.0044   20616717.7354
        56.0004         50.0004
  23565280.0604   -9572202.71043  -7128894.43542  23565282.4644   23565282.2014
        47.0004         40.0004
  23441520.9744   30335092.06743  23636389.79242  23441522.3644   23441523.8564
        46.0004         41.0004
  24349424.5124    2660104.96743   2077675.04542  24349424.5084   24349424.9244
        44.0004         37.0004
  21167681.6064   -2834396.25243  -2183374.63642  21167682.1484   21167680.6814
        55.0004         48.0004
  24475624.0414   -4564039.47443  -3504838.71342  24475624.8684   24475628.8094
        45.0004         38.0004
  23709703.2274   25963111.53943  20232324.57942  23709705.3064   23709705.6994
        45.0004         40.0004
  22781129.3184  -12303799.05143  -9506052.92142  22781131.2664   22781128.5284
        49.0004         43.0004
 04  6 18 17 15 40.0000000  0 10G22G21G18G14G 6G16G15G 9G26G 3
  20927587.0564    5893896.66144   4597758.20342  20927587.2404   20927583.1324
        57.0004         50.0004
  20654594.4324   15007530.79144  11701956.57542  20654595.5264   20654591.9894
        57.0004         50.0004
  20619922.0444   -2450197.85543  -1899764.56242  20619923.2994   20619919.8724
        56.0004         50.0004
  23551301.7064   -9645659.18443  -7186133.12842  23551304.2054   23551304.1894
        47.0004         40.0004
  23455072.0854   30406300.89543  23691877.05242  23455072.1144   23455075.0634
        47.0004         41.0004
  24356605.3734    2697846.76143   2107084.19142  24356607.3734   24356607.2384
        42.0004         37.0004
  21160423.4194   -2872537.02043  -2213094.70242  21160424.6664   21160422.7784
        55.0004         48.0004
  24466925.3764   -4609740.83443  -3540450.10442  24466927.4654   24466930.5554
        44.0004         38.0004
  23722449.7094   26030093.94143  20284518.62042  23722451.6884   23722450.7644
        45.0004         40.0004
  22772454.7324  -12349385.02643  -9541574.44342  22772457.1104   22772454.7914
        50.0004         43.0004
 04  6 18 17 16  0.0000000  0 10G22G21G18G14G 6G16G15G 9G26G 3
  20924265.0484    5876439.82144   4584155.49342  20924265.2354   20924260.8794
        57.0004         50.0004
  20656784.6824   15019040.15944  11710924.90242  20656785.8424   20656782.2364
        57.0004         50.0004
  20623147.8404   -2433246.14443  -1886555.43942  20623149.0494   20623145.4114
        56.0004         50.0004
  23537334.9864   -9719057.47543  -7243326.49042  23537336.8664   23537335.2234
        47.0004         40.0004
  23468634.7514   30477573.63143  23747414.10442  23468636.5104   23468637.2954
        46.0004         40.0004
  24363807.2684    2735692.55143   2136574.35742  24363809.6784   24363809.7734
        43.0004         37.0004
  21153178.8464   -2910607.09343  -2242759.67742  21153179.9644   21153178.1064
        55.0004         48.0004
  24458246.7444   -4655352.60243  -3575991.68042  24458248.0164   24458250.2224
        44.0004         38.0004
  23735224.0184   26097220.56643  20336825.04542  23735226.3524   23735225.5204
        46.0004         40.0004
  22763814.4414  -12394788.64743  -9576953.86642  22763815.7844   22763815.1204
        49.0004         43.0004
 04  6 18 17 16 20.0000000  0 10G22G21G18G14G 6G16G15G 9G26G 3
  20920970.4654    5859127.88844   4570665.69642  20920970.9244   20920966.4744
        57.0004         50.0004
  20659000.1084   15030682.71444  11719997.02142  20659001.2194   20658997.7284
        57.0004         50.0004
  20626397.2444   -2416170.84743  -1873250.01442  20626398.2874   20626395.1984
        56.0004         50.0004
  23523378.9104   -9792396.13943  -7300473.39442  23523380.4664   23523379.4164
        48.0004         41.0004
  23482210.0024   30548910.10343  23803000.80742  23482209.8394   23482213.5654
        47.0004         40.0004
  24371029.2714    2773642.05043   2166145.35642  24371030.3454   24371029.6944
        44.0004         37.0004
  21145948.0444   -2948605.36943  -2272368.71142  21145949.2494   21145947.5134
        55.0004         48.0004
  24449584.3594   -4700873.13243  -3611462.14642  24449588.6054   24449591.6134
        45.0004         38.0004
  23748025.0634   26164491.09043  20389243.60142  23748026.0674   23748026.6244
        46.0004         40.0004
  22755209.3714  -12440008.79543  -9612190.31942  22755210.7764   22755209.1244
        50.0004         43.0004
 04  6 18 17 16 40.0000000  0 10G22G21G18G14G 6G16G15G 9G26G 3
  20917703.9134    5841961.80944   4557289.55242  20917704.3354   20917700.0594
        57.0004         50.0004
  20661241.3354   15042459.69644  11729173.88642  20661242.4614   20661238.7474
        57.0004         50.0004
  20629670.0164   -2398971.41243  -1859847.86342  20629671.6644   20629667.9004
        56.0004         50.0004
  23509434.4164   -9865673.37843  -7357572.43842  23509435.1714   23509435.4834
        47.0004         41.0004
  23495796.8664   30620310.73743  23858637.50842  23495798.6294   23495800.3564
        46.0004         40.0004
  24378269.7124    2811695.34543   2195797.23242  24378270.5134   24378272.8084
        42.0004         37.0004
  21138731.3184   -2986530.45343  -2301920.70942  21138732.0364   21138730.2884
        55.0004         48.0004
  24440940.1634   -4746300.57943  -3646860.07842  24440942.7514   24440944.7614
        45.0004         38.0004
  23760853.6974   26231905.65143  20441774.38442  23760855.6174   23760855.4014
        46.0004         41.0004
  22746639.4594  -12485043.62743  -9647282.37742  22746640.3584   22746639.8064
        50.0004         43.0004
 04  6 18 17 17  0.0000000  0 10G22G21G18G14G 6G16G15G 9G26G 3
  20914464.6954    5824939.39144   4544025.34942  20914464.9354   20914460.6334
        57.0004         50.0004
  20663507.6074   15054369.33244  11738454.11342  20663508.3914   20663504.8594
        57.0004         50.0004
  20632966.2604   -2381650.14843  -1846350.77942  20632967.2874   20632964.0094
        56.0004         50.0004
  23495501.7244   -9938890.19143  -7414624.38842  23495503.8214   23495502.8964
        48.0004         41.0004
  23509395.9394   30691772.91743  23914322.17642  23509398.0244   23509401.0294
        46.0004         40.0004
  24385531.1794    2849849.82843   2225527.94642  24385532.0574   24385533.1794
        43.0004         37.0004
  21131527.9204   -3024383.81143  -2331416.81342  21131528.4384   21131527.3184
        55.0004         48.0004
  24432313.0014   -4791635.65043  -3682186.04142  24432314.0224   24432319.4194
        45.0004         38.0004
  23773708.6404   26299461.42443  20494415.20742  23773711.1364   23773710.9124
        46.0004         40.0004
  22738104.6644  -12529894.55143  -9682231.12742  22738106.2314   22738103.9004
        50.0004         43.0004
 04  6 18 17 17 20.0000000  0 10G22G21G18G14G 6G16G15G 9G26G 3
  20911253.7444    5808065.83044   4530877.13542  20911254.3204   20911249.8374
        57.0004         50.0004
  20665800.0484   15066417.10644  11747841.98542  20665801.3494   20665797.4244
        57.0004         50.0004
  20636286.5334   -2364201.99943  -1832754.82342  20636287.6984   20636284.3774
        56.0004         50.0004
  23481581.5824  -10012040.61843  -7471624.62242  23481584.1354   23481582.6744
        48.0004         41.0004
  23523007.9174   30763301.00943  23970058.18542  23523009.0394   23523011.6114
        47.0004         40.0004
  24392811.3024    2888109.95043   2255340.97842  24392812.1924   24392814.2624
        43.0004         37.0004
  21124339.5414   -3062159.71443  -2360852.57042  21124340.2044   21124338.7514
        55.0004         48.0004
  24423707.3914   -4836872.22243  -3717435.25642  24423707.1394   24423709.9344
        46.0004         38.0004
  23786592.1274   26367162.80243  20547169.50742  23786594.3774   23786593.5894
        46.0004         40.0004
  22729605.9454  -12574555.54243  -9717031.87142  22729606.8154   22729606.6614
        50.0004         43.0004
 04  6 18 17 17 40.0000000  0 10G22G21G18G14G 6G16G15G 9G26G 3
  20908069.7544    5791333.31544   4517838.83042  20908070.1784   20908065.7834
        57.0004         50.0004
  20668117.6634   15078595.90544  11757331.95842  20668118.8704   20668115.1604
        57.0004         50.0004
  20639629.3774   -2346635.07443  -1819066.31442  20639630.5874   20639627.3664
        56.0004         50.0004
  23467672.6654  -10085131.42943  -7528578.37842  23467673.1534   23467674.6654
        48.0004         41.0004
  23536629.9794   30834887.04343  24025839.35642  23536631.2474   23536632.8304
        47.0004         40.0004
  24400111.0294    2926467.36743   2285229.80642  24400112.1514   24400112.4084
        42.0004         37.0004
  21117164.2394   -3099865.21043  -2390233.46042  21117165.0844   21117163.3324
        55.0004         48.0004
  24415115.3874   -4882016.84343  -3752612.79042  24415114.5734   24415118.3774
        45.0004         38.0004
  23799501.3674   26435001.26943  20600030.62042  23799502.6204   23799502.8084
        45.0004         40.0004
  22721142.1314  -12619033.71343  -9751690.16142  22721143.4874   22721143.0064
        50.0004         43.0004
 04  6 18 17 18  0.0000000  0 10G22G21G18G14G 6G16G15G 9G26G 3
  20904913.6384    5774747.62544   4504914.93842  20904914.0594   20904909.4844
        57.0004         50.0004
  20670461.3764   15090911.83744  11766928.78942  20670462.4714   20670458.9654
        57.0004         50.0004
  20642995.9054   -2328943.87243  -1805280.96442  20642997.4104   20642993.7904
        56.0004         50.0004
  23453776.5664  -10158155.82843  -7585480.40342  23453778.3194   23453777.9904
        48.0004         41.0004
  23550264.7324   30906535.74343  24081669.34842  23550266.9134   23550268.6124
        46.0004         40.0004
  24407429.9084    2964926.84443   2315198.17942  24407431.6314   24407432.3234
        42.0004         37.0004
  21110003.8284   -3137494.23943  -2419554.76742  21110004.5244   21110002.8534
        55.0004         48.0004
  24406541.8244   -4927062.78943  -3787713.45342  24406543.7734   24406546.8654
        44.0004         38.0004
  23812437.8154   26502981.79543  20653002.42942  23812440.0314   23812439.2604
        45.0004         40.0004
  22712714.7014  -12663322.30343  -9786200.73342  22712714.3844   22712714.7234
        50.0004         43.0004
 04  6 18 17 18 20.0000000  0 10G22G21G18G14G 6G16G15G 9G26G 3
  20901784.8834    5758306.17944   4492103.44242  20901785.1294   20901780.9104
        57.0004         50.0004
  20672830.7574   15103362.64644  11776630.72042  20672831.8174   20672828.2554
        57.0004         50.0004
  20646385.5274   -2311130.96843  -1791400.78142  20646387.0094   20646383.3904
        56.0004         50.0004
  23439892.6244  -10231115.68943  -7642332.14442  23439894.6214   23439894.6294
        48.0004         41.0004
  23563909.8584   30978244.05643  24137545.81242  23563911.4974   23563912.9454
        46.0004         40.0004
  24414766.9424    3003485.16743   2345243.57242  24414768.3734   24414768.3834
        43.0004         37.0004
  21102857.2874   -3175048.88143  -2448818.10742  21102858.0924   21102856.3314
        55.0004         48.0004
  24397987.7284   -4972011.52243  -3822738.31742  24397992.3814   24397993.6924
        45.0004         38.0004
  23825400.5654   26571100.79643  20706082.12742  23825402.4804   23825402.4994
        46.0004         40.0004
  22704322.3744  -12707423.37143  -9820565.18042  22704323.8534   22704322.7004
        50.0004         43.0004
 04  6 18 17 18 40.0000000  0 10G22G21G18G14G 6G16G15G 9G26G 3
  20898683.7324    5742010.13444   4479405.24742  20898684.2214   20898679.6544
        57.0004         50.0004
  20675226.1094   15115950.22344  11786439.21942  20675227.1364   20675223.6914
        57.0004         50.0004
  20649798.6364   -2293195.49543  -1777425.09442  20649799.8634   20649796.3294
        56.0004         50.0004
  23426021.3004  -10304008.54343  -7699131.67042  23426023.2194   23426023.4844
        48.0004         41.0004
  23577567.3644   31050012.88543  24193469.40642  23577568.4274   23577569.8854
        47.0004         40.0004
  24422123.7994    3042143.24443   2375366.69542  24422124.1474   24422126.0964
        43.0004         37.0004
  21095725.5464   -3212526.96043  -2478021.78742  21095726.3974   21095724.4054
        55.0004         48.0004
  24389454.3964   -5016860.39343  -3857685.38942  24389457.1924   24389460.5654
        46.0004         38.0004
  23838389.3674   26639359.14843  20759270.41242  23838391.5174   23838391.4444
        45.0004         41.0004
  22695966.2554  -12751334.54043  -9854781.65142  22695967.1824   22695966.6374
        50.0004         43.0004
 04  6 18 17 19  0.0000000  0 10G22G21G18G14G 6G16G15G 9G26G 3
  20895609.5614    5725854.79344   4466816.68442  20895609.8114   20895605.3224
        57.0004         50.0004
  20677646.7444   15128670.06844  11796350.78142  20677647.6484   20677644.0694
        57.0004         50.0004
  20653233.8894   -2275142.40843  -1763357.76342  20653235.2334   20653231.8414
        56.0004         50.0004
  23412162.6174  -10376838.03843  -7755881.83142  23412164.3264   23412163.6684
        48.0004         41.0004
  23591235.2214   31121837.05443  24249436.13042  23591235.6874   23591238.0114
        46.0004         40.0004
  24429497.1854    3080895.59743   2405563.27142  24429499.7224   24429500.7944
        43.0004         37.0004
  21088607.3844   -3249932.68443  -2507169.09042  21088608.3154   21088606.4044
        55.0004         48.0004
  24380939.9834   -5061612.94443  -3892557.39642  24380942.2894   24380944.7564
        48.0004         38.0004
  23851404.4554   26707751.31443  20812562.96142  23851405.5914   23851406.1284
        45.0004         40.0004
  22687645.4084  -12795059.55943  -9888853.07042  22687646.6174   22687645.7454
        50.0004         43.0004
 04  6 18 17 19 20.0000000  0 10G22G21G18G14G 6G16G15G 9G26G 3
  20892562.7114    5709843.93844   4454340.71442  20892563.1824   20892558.4864
        57.0004         50.0004
  20680092.9964   15141526.49544  11806368.76942  20680094.0864   20680090.8294
        57.0004         50.0004
  20656692.5114   -2256968.08343  -1749195.95742  20656693.7284   20656690.2184
        56.0004         50.0004
  23398316.4364  -10449599.30043  -7812578.81942  23398317.3064   23398317.5374
        47.0004         41.0004
  23604914.4814   31193719.65343  24305448.37442  23604915.1754   23604917.4134
        46.0004         40.0004
  24436891.1744    3119745.48543   2435835.85542  24436892.6974   24436894.5474
        43.0004         37.0004
  21081503.8974   -3287261.53543  -2536256.48942  21081504.8094   21081502.9794
        55.0004         48.0004
  24372444.0674   -5106264.28543  -3927350.56142  24372444.0564   24372445.4394
        46.0004         38.0004
  23864444.8514   26776280.48243  20865962.27242  23864445.6304   23864447.3974
        45.0004         40.0004
  22679361.1174  -12838593.90343  -9922775.90442  22679361.1984   22679361.4534
        50.0004         43.0004
 04  6 18 17 19 40.0000000  0 10G22G21G18G14G 6G16G15G 9G26G 3
  20889543.4024    5693977.93144   4441977.62642  20889544.0054   20889539.3384
        57.0004         50.0004
  20682565.6704   15154520.36744  11816493.85942  20682566.6664   20682563.3334
        57.0004         50.0004
  20660174.0064   -2238672.44043  -1734939.61642  20660175.2764   20660172.0254
        56.0004         50.0004
  23384483.5474  -10522291.16843  -7869221.73542  23384484.0274   23384486.0114
        47.0004         41.0004
  23618604.3064   31265660.62343  24361506.10042  23618606.8244   23618607.2534
        47.0004         40.0004
  24444301.5584    3158692.40743   2466184.04442  24444304.5644   24444304.3404
        43.0004         37.0004
  21074415.2064   -3324512.66343  -2565283.32542  21074416.1394   21074414.2914
        55.0004         48.0004
  24363966.1484   -5150813.01743  -3962063.74442  24363967.2634   24363967.4464
        46.0004         38.0004
  23877511.7354   26844946.25143  20919468.03742  23877513.1794   23877511.1884
        46.0004         40.0004
  22671113.3484  -12881936.55443  -9956549.37642  22671115.4024   22671113.5624
        50.0004         43.0004
 04  6 18 17 20  0.0000000  0 10G22G21G18G14G 6G16G15G 9G26G 3
  20886551.2414    5678253.37344   4429724.74642  20886551.7234   20886546.7094
        57.0004         50.0004
  20685063.9104   15167648.64144  11826723.68242  20685065.0094   20685061.5134
        57.0004         50.0004
  20663678.0834   -2220258.92443  -1720591.43242  20663679.5154   20663675.7104
        56.0004         50.0004
  23370663.5384  -10594915.86743  -7925812.32142  23370665.9034   23370665.3244
        48.0004         41.0004
  23632304.4904   31337656.02443  24417606.24242  23632305.8724   23632306.7694
        46.0004         40.0004
  24451731.0074    3197732.55343   2496604.86742  24451731.6604   24451732.6984
        43.0004         37.0004
  21067341.1094   -3361688.68543  -2594251.63842  21067341.8054   21067339.9614
        55.0004         48.0004
  24355506.9994   -5195261.09943  -3996698.50442  24355507.3234   24355507.9774
        45.0004         38.0004
  23890603.8304   26913744.39243  20973076.95942  23890605.6984   23890605.8684
        46.0004         40.0004
  22662901.7444  -12925089.91343  -9990175.35442  22662902.7084   22662900.5474
        50.0004         43.0004
 04  6 18 17 20 20.0000000  0 10G22G21G18G14G 6G16G15G 9G26G 3
  20883586.6164    5662674.30044   4417585.23342  20883586.9924   20883582.4434
        57.0004         50.0004
  20687588.5744   15180915.85144  11837061.76742  20687589.5754   20687586.0354
        57.0004         50.0004
  20667205.2174   -2201723.85443  -1706148.52742  20667206.5474   20667202.8974
        56.0004         50.0004
  23356856.7924  -10667468.48043  -7982346.71642  23356858.4544   23356858.2054
        47.0004         41.0004
  23646015.8254   31409709.21143  24473751.42342  23646018.4714   23646020.7124
        46.0004         40.0004
  24459178.2914    3236869.02643   2527100.76942  24459180.5494   24459182.3474
        42.0004         37.0004
  21060281.6824   -3398785.33943  -2623158.10742  21060282.4594   21060280.7244
        55.0004         48.0004
  24347067.9804   -5239603.54843  -4031250.94342  24347068.8244   24347068.4624
        44.0004         38.0004
  23903721.1544   26982678.17443  21026791.57342  23903723.1964   23903722.0854
        46.0004         40.0004
  22654726.5344  -12968049.36243 -10023650.23142  22654728.5544   22654726.2224
        50.0004         43.0004
 04  6 18 17 20 40.0000000  0 10G22G21G18G14G 6G16G15G 9G26G 3
  20880649.0864    5647237.42644   4405556.52042  20880649.4834   20880644.8254
        57.0004         50.0004
  20690139.1614   15194319.05344  11847505.81542  20690140.0494   20690136.7654
        57.0004         50.0004
  20670754.7654   -2183070.65043  -1691613.56642  20670756.0514   20670752.2784
        56.0004         50.0004
  23343064.0174  -10739951.24743  -8038826.69942  23343065.7504   23343064.8164
        48.0004         41.0004
  23659737.4604   31481816.62143  24529938.84742  23659739.4154   23659741.1354
        46.0004         40.0004
  24466643.4464    3276098.19443   2557668.89342  24466644.9014   24466646.6814
        43.0004         37.0004
  21053236.9924   -3435804.99343  -2652004.58142  21053237.8424   21053235.6744
        55.0004         48.0004
  24338647.9314   -5283842.32043  -4065722.59542  24338651.3714   24338650.8864
        45.0004         38.0004
  23916863.5274   27051743.71043  21080608.84042  23916864.9534   23916866.1354
        45.0004         40.0004
  22646588.1384  -13010817.11343 -10056975.71542  22646588.9604   22646589.3844
        50.0004         43.0004
 04  6 18 17 21  0.0000000  0 10G22G21G18G14G 6G16G15G 9G26G 3
  20877738.3984    5631941.96644   4393638.00042  20877738.8574   20877734.2084
        57.0004         50.0004
  20692715.4944   15207857.98244  11858055.62442  20692716.3394   20692713.1234
        57.0004         50.0004
  20674326.6374   -2164300.33443  -1676987.35142  20674327.6564   20674324.4074
        56.0004         50.0004
  23329284.0874  -10812363.86643  -8095252.01742  23329286.2024   23329285.7844
        48.0004         41.0004
  23673469.7934   31553976.81543  24586167.40042  23673470.8114   23673473.9174
        46.0004         40.0004
  24474126.3724    3315418.54043   2588308.07942  24474127.7474   24474128.1914
        42.0004         37.0004
  21046207.1484   -3472747.76343  -2680791.13642  21046207.7554   21046206.0604
        55.0004         48.0004
  24330251.2034   -5327976.94843  -4100113.09042  24330253.9504   24330255.1594
        46.0004         38.0004
  23930031.1774   27120939.60343  21134527.66842  23930033.0054   23930034.0454
        44.0004         40.0004
  22638485.9344  -13053393.14643 -10090151.80842  22638487.2124   22638485.9044
        50.0004         43.0004
 04  6 18 17 21 20.0000000  0 10G22G21G18G14G 6G16G15G 9G26G 3
  20874854.9744    5616789.76144   4381831.10442  20874855.3644   20874850.7124
        57.0004         50.0004
  20695318.2624   15221534.97844  11868713.02142  20695319.0034   20695315.7834
        57.0004         50.0004
  20677921.1514   -2145411.15143  -1662268.50742  20677922.5364   20677919.0354
        56.0004         50.0004
  23315518.3204  -10884703.48143  -8151620.46142  23315521.4514   23315519.4834
        48.0004         42.0004
  23687211.8954   31626191.14143  24642438.13142  23687212.2524   23687214.9394
        45.0004         40.0004
  24481627.4324    3354831.27443   2619019.24842  24481626.3024   24481627.8144
        44.0004         37.0004
  21039192.1634   -3509611.18343  -2709515.86242  21039193.0644   21039191.5064
        55.0004         48.0004
  24321871.8204   -5372004.47343  -4134420.13442  24321874.4374   24321875.0804
        45.0004         38.0004
  23943224.3404   27190266.91143  21188548.90642  23943224.9954   23943225.0894
        45.0004         40.0004
  22630420.9474  -13095774.80043 -10123176.44642  22630422.7074   22630420.4064
        50.0004         43.0004
 04  6 18 17 21 40.0000000  0 10G22G21G18G14G 6G16G15G 9G26G 3
  20871998.4084    5601778.24444   4370133.83842  20871998.7694   20871994.3614
        57.0004         50.0004
  20697946.8644   15235347.88644  11879476.32142  20697947.6504   20697944.3334
        57.0004         50.0004
  20681537.5354   -2126406.28643  -1647459.53042  20681538.8054   20681535.3114
        56.0004         50.0004
  23301766.0944  -10956971.75843  -8207933.32542  23301767.6644   23301768.0754
        48.0004         42.0004
  23700963.4714   31698456.53643  24698748.64142  23700964.8124   23700966.8384
        47.0004         40.0004
  24489144.0524    3394333.13043   2649799.86242  24489144.8254   24489147.0784
        44.0004         37.0004
  21032192.0524   -3546397.20243  -2738180.27542  21032192.4084   21032190.9384
        55.0004         48.0004
  24313515.4844   -5415926.46043  -4168644.90942  24313517.5014   24313520.2664
        46.0004         38.0004
  23956440.7344   27259722.18343  21242669.86542  23956443.2294   23956442.8374
        46.0004         40.0004
  22622393.2244  -13137963.73743 -10156050.92542  22622394.2034   22622391.6434
        50.0004         43.0004
